ftp/pub/palmer/observations_modified/2019/August/original_files/AR190805_BASE.txt
Download
Sample DateTime Unit Id WS Avg 2min WD Avg 2min WGS 10min WGD 10min Air Temp Rel Humidity Dew Point Pyranometer Quantum Air Pressure Snow Level Rainfall PW Current Visibility CBase 1 CBase 2 CBase 3 Vert Vis
2019/08/05 00:00:00 BASE 4.54 348 5.45 354 -3.8 100 -3.8 0 0 966.2 NA 0.0000 -SN BR 9999 300 0 0 0
2019/08/05 00:01:00 BASE 4.34 348 5.45 354 -3.8 100 -3.8 0 0 966.2 NA 0.0000 -SN BR 8000 330 2850 0 0
2019/08/05 00:02:00 BASE 4.26 349 5.45 354 -3.8 100 -3.8 0 0 966.2 NA 0.0000 -SN BR 8000 300 4040 0 0
2019/08/05 00:03:00 BASE 4.20 347 5.45 354 -3.8 100 -3.8 0 0 966.2 NA 0.0000 -SN BR 9999 260 2850 0 0
2019/08/05 00:04:00 BASE 4.43 350 5.45 354 -3.8 100 -3.8 0 0 966.2 NA 0.0000 -SN BR 9000 260 1440 0 0
2019/08/05 00:05:00 BASE 4.91 351 5.56 346 -3.8 100 -3.8 0 0 966.2 NA 0.0000 -SN BR 9999 300 2170 0 0
2019/08/05 00:06:00 BASE 5.21 351 5.76 351 -3.8 100 -3.8 0 0 966.2 NA 0.0000 -SN BR 9999 300 2070 0 0
2019/08/05 00:07:00 BASE 5.25 351 5.76 351 -3.8 100 -3.8 0 0 966.2 NA 0.0000 -SN BR 9999 300 2000 0 0
2019/08/05 00:08:00 BASE 5.11 355 5.76 351 -3.8 100 -3.8 0 0 966.2 NA 0.0000 -SN BR 9999 300 1940 0 0
2019/08/05 00:09:00 BASE 5.28 4 5.92 55 -3.8 100 -3.8 0 0 966.2 NA 0.0000 -SN 9999 330 1970 0 0
2019/08/05 00:10:00 BASE 5.48 3 5.97 1 -3.8 100 -3.8 0 0 966.2 NA 0.0000 -SN 9999 360 1610 0 0
2019/08/05 00:11:00 BASE 5.50 355 6.17 360 -3.8 100 -3.8 0 0 966.2 NA 0.0000 -SN 9999 390 1640 0 0
2019/08/05 00:12:00 BASE 5.71 352 6.17 360 -3.8 100 -3.8 0 0 966.2 NA 0.0000 -SN 9999 390 1350 0 0
2019/08/05 00:13:00 BASE 5.93 357 6.38 115 -3.8 100 -3.8 0 0 966.2 NA 0.0000 -SN 9999 390 1840 0 0
2019/08/05 00:14:00 BASE 6.04 2 6.53 360 -3.8 100 -3.8 0 0 966.2 NA 0.0000 -SN 9999 390 0 0 0
2019/08/05 00:15:00 BASE 6.01 2 6.53 360 -3.8 100 -3.8 0 0 966.2 NA 0.0000 -SN 9999 430 1610 0 0
2019/08/05 00:16:00 BASE 5.64 358 6.53 360 -3.8 100 -3.8 0 0 966.3 NA 0.0000 -SN 9999 390 0 0 0
2019/08/05 00:17:00 BASE 5.68 357 6.53 360 -3.8 100 -3.8 0 0 966.3 NA 0.0000 -SN 9999 360 0 0 0
2019/08/05 00:18:00 BASE 5.94 359 6.53 360 -3.7 100 -3.7 0 0 966.3 NA 0.0000 -SN 9999 390 2400 0 0
2019/08/05 00:19:00 BASE 6.13 358 6.84 360 -3.7 100 -3.7 0 0 966.3 NA 0.0000 -SN 9999 360 2330 0 0
2019/08/05 00:20:00 BASE 6.23 354 6.84 360 -3.7 100 -3.7 0 0 966.3 NA 0.0000 -SN 9999 330 1350 0 0
2019/08/05 00:21:00 BASE 6.31 352 6.94 2 -3.7 100 -3.7 0 0 966.3 NA 0.0000 -SN 9999 360 1250 0 0
2019/08/05 00:22:00 BASE 6.42 354 6.94 2 -3.7 100 -3.7 0 0 966.3 NA 0.0000 -SN 9999 300 0 0 0
2019/08/05 00:23:00 BASE 6.20 357 6.94 2 -3.7 100 -3.7 0 0 966.3 NA 0.0000 -SN 9999 0 0 0 1640
2019/08/05 00:24:00 BASE 6.25 2 7.00 3 -3.7 100 -3.7 0 0 966.2 NA 0.0000 -SN 9999 0 0 0 1570
2019/08/05 00:25:00 BASE 6.31 360 7.15 354 -3.7 100 -3.7 0 0 966.2 NA 0.0000 -SN 8000 0 0 0 1310
2019/08/05 00:26:00 BASE 6.04 355 7.15 354 -3.7 100 -3.7 0 0 966.2 NA 0.0000 -SN 9999 230 0 0 0
2019/08/05 00:27:00 BASE 6.05 359 7.15 354 -3.7 100 -3.7 0 0 966.2 NA 0.0000 -SN 9999 260 0 0 0
2019/08/05 00:28:00 BASE 6.42 360 7.15 2 -3.7 100 -3.7 0 0 966.2 NA 0.0000 -SN 9999 0 0 0 1250
2019/08/05 00:29:00 BASE 6.37 357 7.15 2 -3.7 100 -3.7 0 0 966.2 NA 0.0000 -SN 9999 0 0 0 1150
2019/08/05 00:30:00 BASE 5.93 357 7.15 2 -3.7 100 -3.7 0 0 966.2 NA 0.0000 -SN 9999 0 0 0 1900
2019/08/05 00:31:00 BASE 5.74 352 7.15 2 -3.7 100 -3.7 0 0 966.2 NA 0.0000 -SN 9999 0 0 0 2030
2019/08/05 00:32:00 BASE 6.11 350 7.20 360 -3.7 100 -3.7 0 0 966.2 NA 0.0000 -SN 9000 0 0 0 2100
2019/08/05 00:33:00 BASE 6.32 353 7.20 360 -3.7 100 -3.7 0 0 966.2 NA 0.0000 -SN 9000 0 0 0 2130
2019/08/05 00:34:00 BASE 6.44 349 7.67 354 -3.8 100 -3.8 0 0 966.2 NA 0.0000 -SN 9999 0 0 0 3900
2019/08/05 00:35:00 BASE 6.31 347 7.67 354 -3.8 100 -3.8 0 0 966.2 NA 0.0000 -SN 9999 0 0 0 3310
2019/08/05 00:36:00 BASE 6.26 349 7.67 354 -3.8 100 -3.8 0 0 966.2 NA 0.0000 -SN 9999 0 0 0 1310
2019/08/05 00:37:00 BASE 6.47 351 7.67 354 -3.8 100 -3.8 0 0 966.3 NA 0.0000 -SN 9999 260 0 0 0
2019/08/05 00:38:00 BASE 6.29 351 7.67 354 -3.8 100 -3.8 0 0 966.4 NA 0.0000 -SN 9999 0 0 0 1150
2019/08/05 00:39:00 BASE 6.26 349 7.67 354 -3.8 100 -3.8 0 0 966.3 NA 0.0000 -SN 9999 260 0 0 0
2019/08/05 00:40:00 BASE 6.20 347 7.67 354 -3.7 100 -3.7 0 0 966.3 NA 0.0000 -SN 9999 0 0 0 1210
2019/08/05 00:41:00 BASE 6.00 344 7.67 354 -3.7 100 -3.7 0 0 966.3 NA 0.0000 -SN 9999 0 0 0 1280
2019/08/05 00:42:00 BASE 5.68 336 7.67 354 -3.7 100 -3.7 0 0 966.4 NA 0.0000 -SN 9999 0 0 0 1250
2019/08/05 00:43:00 BASE 5.22 329 7.67 354 -3.7 100 -3.7 0 0 966.4 NA 0.0000 -SN 7000 0 0 0 1210
2019/08/05 00:44:00 BASE 4.96 327 7.41 348 -3.7 100 -3.7 0 0 966.4 NA 0.0000 -SN BR 7000 300 0 0 0
2019/08/05 00:45:00 BASE 4.88 331 7.41 348 -3.7 100 -3.7 0 0 966.4 NA 0.0000 -SN BR 7000 300 0 0 0
2019/08/05 00:46:00 BASE 5.19 339 7.41 348 -3.8 100 -3.8 0 0 966.4 NA 0.0000 -SN BR 7000 300 0 0 0
2019/08/05 00:47:00 BASE 6.21 343 7.41 348 -3.8 100 -3.8 0 0 966.4 NA 0.0000 -SN BR 9999 300 0 0 0
2019/08/05 00:48:01 BASE 6.58 334 7.41 332 -3.8 100 -3.8 0 0 966.4 NA 0.0000 -SN BR 9999 300 0 0 0
2019/08/05 00:49:00 BASE 5.90 316 7.41 332 -3.8 100 -3.8 0 0 966.4 NA 0.0000 -SN BR 9999 300 0 0 0
2019/08/05 00:50:00 BASE 5.11 307 7.41 332 -3.8 100 -3.8 0 0 966.4 NA 0.0000 -SN BR 6000 300 0 0 0
2019/08/05 00:51:00 BASE 4.53 309 7.41 332 -3.8 100 -3.8 0 0 966.4 NA 0.0000 -SN BR 5000 300 0 0 0
2019/08/05 00:52:00 BASE 4.16 315 7.41 332 -3.7 100 -3.7 0 0 966.5 NA 0.0000 -SN BR 5000 300 0 0 0
2019/08/05 00:53:00 BASE 3.93 326 7.41 332 -3.7 100 -3.7 0 0 966.5 NA 0.0000 -SN BR 5000 330 0 0 0
2019/08/05 00:54:00 BASE 3.42 327 7.41 332 -3.8 100 -3.8 0 0 966.5 NA 0.0000 -SN BR 5000 330 0 0 0
2019/08/05 00:55:00 BASE 3.35 316 7.41 332 -3.8 100 -3.8 0 0 966.5 NA 0.0000 -SN BR 4900 330 0 0 0
2019/08/05 00:56:00 BASE 3.77 312 7.41 332 -3.8 100 -3.8 0 0 966.5 NA 0.0000 -SN BR 5000 330 0 0 0
2019/08/05 00:57:00 BASE 3.88 317 7.41 332 -3.8 100 -3.8 0 0 966.5 NA 0.0000 -SN BR 5000 330 0 0 0
2019/08/05 00:58:00 BASE 3.99 319 6.17 308 -3.8 100 -3.8 0 0 966.5 NA 0.0000 -SN BR 6000 300 0 0 0
2019/08/05 00:59:00 BASE 3.88 316 5.04 308 -3.8 100 -3.8 0 0 966.5 NA 0.0000 -SN BR 5000 260 0 0 0
2019/08/05 01:00:00 BASE 3.54 315 4.48 316 -3.8 100 -3.8 0 0 966.5 NA 0.0000 -SN BR 4300 0 0 0 4400
2019/08/05 01:01:00 BASE 3.60 317 4.73 320 -3.8 100 -3.8 0 0 966.5 NA 0.0000 -SN BR 3700 0 0 0 4430
2019/08/05 01:02:00 BASE 4.20 317 4.89 314 -3.9 100 -3.9 0 0 966.5 NA 0.0000 -SN BR 4100 0 0 0 4430
2019/08/05 01:03:00 BASE 4.30 315 4.89 314 -3.9 100 -3.9 0 0 966.5 NA 0.0000 -SN BR 5000 0 0 0 4430
2019/08/05 01:04:00 BASE 3.88 313 4.89 314 -3.9 100 -3.9 0 0 966.5 NA 0.0000 -SN BR 4800 0 0 0 4460
2019/08/05 01:05:00 BASE 3.66 314 4.89 314 -3.9 100 -3.9 0 0 966.5 NA 0.0000 -SN BR 4600 0 0 0 2950
2019/08/05 01:06:00 BASE 3.34 318 4.89 314 -3.9 100 -3.9 0 0 966.5 NA 0.0000 -SN BR 5000 0 0 0 2820
2019/08/05 01:07:00 BASE 3.06 323 4.89 314 -3.9 100 -3.9 0 0 966.5 NA 0.0000 -SN BR 6000 0 0 0 2990
2019/08/05 01:08:00 BASE 2.81 326 4.89 314 -3.9 100 -3.9 0 0 966.5 NA 0.0000 -SN BR 4400 0 0 0 1870
2019/08/05 01:09:00 BASE 2.89 324 4.89 314 -3.9 100 -3.9 0 0 966.5 NA 0.0000 -SN BR 4000 0 0 0 5540
2019/08/05 01:10:00 BASE 3.07 323 4.89 314 -3.9 100 -3.9 0 0 966.5 NA 0.0000 -SN BR 5000 300 0 0 0
2019/08/05 01:11:00 BASE 2.73 323 4.89 314 -4.0 100 -4.0 0 0 966.5 NA 0.0000 -SN BR 7000 300 0 0 0
2019/08/05 01:12:00 BASE 2.65 322 4.48 317 -4.0 100 -4.0 0 0 966.5 NA 0.0000 -SN BR 7000 330 0 0 0
2019/08/05 01:13:00 BASE 2.66 322 4.06 312 -4.0 100 -4.0 0 0 966.5 NA 0.0000 -SN BR 8000 330 0 0 0
2019/08/05 01:14:00 BASE 2.55 323 3.81 316 -4.0 100 -4.0 0 0 966.5 NA 0.0000 -SN BR 9000 330 0 0 0
2019/08/05 01:15:00 BASE 2.41 324 3.45 324 -4.0 100 -4.0 0 0 966.5 NA 0.0000 -SN BR 9000 360 0 0 0
2019/08/05 01:16:00 BASE 2.10 328 3.45 324 -4.0 100 -4.0 0 0 966.5 NA 0.0000 -SN BR 9999 360 0 0 0
2019/08/05 01:17:00 BASE 1.87 329 3.45 324 -4.0 100 -4.0 0 0 966.5 NA 0.0000 -SN BR 8000 330 0 0 0
2019/08/05 01:18:00 BASE 1.73 331 3.45 324 -3.9 100 -3.9 0 0 966.5 NA 0.0000 -SN BR 9999 390 0 0 0
2019/08/05 01:19:00 BASE 1.66 338 3.09 320 -3.9 100 -3.9 0 0 966.5 NA 0.0000 -SN BR 9000 390 0 0 0
2019/08/05 01:20:00 BASE 1.68 347 3.09 320 -3.9 100 -3.9 0 0 966.5 NA 0.0000 -SN BR 9999 390 0 0 0
2019/08/05 01:21:00 BASE 1.71 351 3.09 320 -3.9 100 -3.9 0 0 966.5 NA 0.0000 -SN BR 9999 390 0 0 0
2019/08/05 01:22:00 BASE 1.62 345 2.78 322 -3.9 100 -3.9 0 0 966.5 NA 0.0000 -SN BR 8000 360 0 0 0
2019/08/05 01:23:00 BASE 1.68 336 2.78 322 -3.9 100 -3.9 0 0 966.5 NA 0.0000 -SN BR 8000 360 0 0 0
2019/08/05 01:24:00 BASE 1.71 338 2.47 325 -3.9 100 -3.9 0 0 966.5 NA 0.0000 -SN BR 8000 360 0 0 0
2019/08/05 01:25:00 BASE 1.98 338 2.52 341 -3.9 100 -3.9 0 0 966.5 NA 0.0000 -SN BR 9000 390 0 0 0
2019/08/05 01:26:00 BASE 2.38 334 2.52 333 -3.9 100 -3.9 0 0 966.5 NA 0.0000 -SN BR 9999 620 0 0 0
2019/08/05 01:27:00 BASE 2.26 334 2.52 333 -3.9 100 -3.9 0 0 966.5 NA 0.0000 -SN BR 9999 660 0 0 0
2019/08/05 01:28:00 BASE 1.94 332 2.52 333 -3.9 100 -3.9 0 0 966.5 NA 0.0000 -SN BR 9999 390 0 0 0
2019/08/05 01:29:00 BASE 1.86 329 2.52 333 -3.9 100 -3.9 0 0 966.5 NA 0.0000 -SN BR 9999 660 0 0 0
2019/08/05 01:30:00 BASE 2.12 329 2.52 328 -3.9 100 -3.9 0 0 966.5 NA 0.0000 -SN 9999 660 0 0 0
2019/08/05 01:31:00 BASE 2.41 328 2.62 328 -3.9 100 -3.9 0 0 966.5 NA 0.0000 -SN 9999 660 0 0 0
2019/08/05 01:32:00 BASE 2.61 322 2.83 319 -3.9 100 -3.9 0 0 966.5 NA 0.0000 -SN 9999 620 0 0 0
2019/08/05 01:33:00 BASE 2.62 324 2.83 319 -3.9 100 -3.9 0 0 966.5 NA 0.0000 -SN 9999 560 0 0 0
2019/08/05 01:34:00 BASE 2.44 332 2.83 319 -3.9 100 -3.9 0 0 966.5 NA 0.0000 -SN 9999 430 0 0 0
2019/08/05 01:35:00 BASE 2.25 334 2.83 319 -3.9 100 -3.9 0 0 966.5 NA 0.0000 -SN 9999 430 0 0 0
2019/08/05 01:36:00 BASE 2.27 331 2.83 319 -3.9 100 -3.9 0 0 966.5 NA 0.0000 -SN 9999 0 0 0 3940
2019/08/05 01:37:00 BASE 2.30 325 2.83 319 -3.9 100 -3.9 0 0 966.5 NA 0.0000 -SN 9999 0 0 0 3740
2019/08/05 01:38:00 BASE 2.07 322 2.83 319 -3.9 100 -3.9 0 0 966.5 NA 0.0000 -SN 9999 0 0 0 3670
2019/08/05 01:39:00 BASE 1.91 321 2.83 319 -3.9 100 -3.9 0 0 966.5 NA 0.0000 -SN 9999 0 0 0 3940
2019/08/05 01:40:00 BASE 2.22 320 2.83 319 -3.9 100 -3.9 0 0 966.5 NA 0.0000 -SN 9999 0 0 0 3810
2019/08/05 01:41:00 BASE 2.45 319 2.83 319 -3.9 100 -3.9 0 0 966.5 NA 0.0000 -SN 9999 0 0 0 3540
2019/08/05 01:42:00 BASE 2.24 324 2.73 330 -3.9 100 -3.9 0 0 966.5 NA 0.0000 -SN 9999 0 0 0 3310
2019/08/05 01:43:00 BASE 2.03 326 2.68 330 -3.9 100 -3.9 0 0 966.5 NA 0.0000 -SN 7000 0 0 0 3080
2019/08/05 01:44:00 BASE 2.01 322 2.68 330 -3.9 100 -3.9 0 0 966.5 NA 0.0000 -SN 4500 0 0 0 3150
2019/08/05 01:45:00 BASE 1.94 314 2.62 315 -3.9 100 -3.9 0 0 966.5 NA 0.0000 -SN BR 3800 0 0 0 2990
2019/08/05 01:46:00 BASE 1.90 311 2.62 315 -3.9 100 -3.9 0 0 966.5 NA 0.0000 -SN BR 3900 0 0 0 2950
2019/08/05 01:47:00 BASE 2.00 315 2.62 315 -3.9 100 -3.9 0 0 966.5 NA 0.0000 -SN BR 3800 0 0 0 2990
2019/08/05 01:48:00 BASE 1.93 325 2.62 315 -3.9 100 -3.9 0 0 966.5 NA 0.0000 -SN BR 4200 0 0 0 2820
2019/08/05 01:49:00 BASE 1.87 330 2.62 315 -3.9 100 -3.9 0 0 966.5 NA 0.0000 -SN BR 3200 0 0 0 2660
2019/08/05 01:50:00 BASE 1.94 324 2.62 315 -3.9 100 -3.9 0 0 966.6 NA 0.0000 -SN BR 4100 330 0 0 0
2019/08/05 01:51:00 BASE 1.90 324 2.42 312 -3.9 100 -3.9 0 0 966.6 NA 0.0000 -SN BR 3700 260 0 0 0
2019/08/05 01:52:00 BASE 1.82 328 2.42 312 -3.9 100 -3.9 0 0 966.5 NA 0.0000 -SN BR 2500 0 0 0 3940
2019/08/05 01:53:00 BASE 1.67 327 2.42 312 -3.9 100 -3.9 0 0 966.5 NA 0.0000 -SN BR 2700 0 0 0 3670
2019/08/05 01:54:00 BASE 1.59 327 2.42 312 -3.9 100 -3.9 0 0 966.5 NA 0.0000 -SN BR 2800 0 0 0 3770
2019/08/05 01:55:00 BASE 1.19 331 2.42 312 -3.9 100 -3.9 0 0 966.5 NA 0.0000 -SN BR 3300 300 2530 0 0
2019/08/05 01:56:00 BASE 0.41 345 2.42 312 -4.0 100 -4.0 0 0 966.4 NA 0.0000 -SN BR 3800 300 2360 0 0
2019/08/05 01:57:00 BASE 0.24 356 2.11 323 -4.0 100 -4.0 0 0 966.4 NA 0.0000 -SN BR 5000 330 2230 0 0
2019/08/05 01:58:00 BASE 0.88 359 2.11 323 -4.0 100 -4.0 0 0 966.4 NA 0.0000 -SN BR 8000 330 2200 0 0
2019/08/05 01:59:00 BASE 1.27 1 2.11 323 -3.9 100 -3.9 0 0 966.4 NA 0.0000 -SN BR 8000 2360 0 0 0
2019/08/05 02:00:00 BASE 0.62 6 2.11 323 -3.9 100 -3.9 0 0 966.4 NA 0.0000 -SN BR 9999 2000 0 0 0
2019/08/05 02:01:00 BASE 0.04 8 1.95 321 -3.9 100 -3.9 0 0 966.4 NA 0.0000 -SN BR 9999 2170 0 0 0
2019/08/05 02:02:00 BASE 0.00 356 1.95 321 -4.0 100 -4.0 0 0 966.4 NA 0.0000 -SN BR 9999 2030 5770 0 0
2019/08/05 02:03:00 BASE 0.27 341 1.95 321 -4.0 100 -4.0 0 0 966.4 NA 0.0000 -SN BR 9999 2000 2890 0 0
2019/08/05 02:04:00 BASE 0.80 333 1.54 360 -4.0 100 -4.0 0 0 966.4 NA 0.0000 -SN BR 9999 1900 2790 0 0
2019/08/05 02:05:00 BASE 0.76 330 1.54 360 -3.9 100 -3.9 0 0 966.4 NA 0.0000 -SN BR 9999 1900 2530 0 0
2019/08/05 02:06:00 BASE 0.23 327 1.54 360 -3.9 100 -3.9 0 0 966.4 NA 0.0000 -SN 9999 1800 2360 0 0
2019/08/05 02:07:00 BASE 0.47 314 1.54 309 -3.9 100 -3.9 0 0 966.4 NA 0.0000 -SN 9999 1740 0 0 0
2019/08/05 02:08:00 BASE 1.21 310 1.65 315 -3.9 100 -3.9 0 0 966.4 NA 0.0000 -SN 9999 1670 0 0 0
2019/08/05 02:09:00 BASE 1.40 316 1.65 315 -3.9 100 -3.9 0 0 966.4 NA 0.0000 -SN 9999 1610 0 0 0
2019/08/05 02:10:00 BASE 1.48 319 2.16 328 -3.9 100 -3.9 0 0 966.4 NA 0.0000 -SN 9999 1670 0 0 0
2019/08/05 02:11:00 BASE 1.66 319 2.16 328 -3.9 100 -3.9 0 0 966.4 NA 0.0000 -SN 9999 1640 0 0 0
2019/08/05 02:12:00 BASE 1.78 315 2.21 316 -3.9 100 -3.9 0 0 966.4 NA 0.0000 -SN 9999 1710 0 0 0
2019/08/05 02:13:00 BASE 1.90 318 2.21 311 -3.9 100 -3.9 0 0 966.4 NA 0.0000 -SN 9999 1640 0 0 0
2019/08/05 02:14:00 BASE 2.01 321 2.57 325 -3.9 100 -3.9 0 0 966.4 NA 0.0000 -SN 9999 1710 2790 0 0
2019/08/05 02:15:00 BASE 2.02 321 2.57 325 -3.9 100 -3.9 0 0 966.4 NA 0.0000 -SN 9999 2100 2660 0 0
2019/08/05 02:16:00 BASE 1.76 325 2.57 325 -3.9 100 -3.9 0 0 966.4 NA 0.0000 9999 1970 2560 0 0
2019/08/05 02:17:00 BASE 1.80 331 2.57 325 -3.9 100 -3.9 0 0 966.4 NA 0.0000 9999 1970 0 0 0
2019/08/05 02:18:00 BASE 1.95 329 2.57 325 -3.9 100 -3.9 0 0 966.4 NA 0.0000 9999 1840 0 0 0
2019/08/05 02:19:00 BASE 1.65 328 2.57 325 -3.9 100 -3.9 0 0 966.4 NA 0.0000 -SN 9999 1770 0 0 0
2019/08/05 02:20:00 BASE 1.46 323 2.57 325 -3.9 100 -3.9 0 0 966.4 NA 0.0000 -SN 9999 1840 0 0 0
2019/08/05 02:21:00 BASE 1.04 305 2.57 325 -3.9 100 -3.9 0 0 966.5 NA 0.0000 -SN 9999 490 0 0 0
2019/08/05 02:22:00 BASE 0.99 301 2.57 325 -3.9 100 -3.9 0 0 966.5 NA 0.0000 -SN 8000 0 0 0 3120
2019/08/05 02:23:00 BASE 1.47 304 2.57 325 -3.8 100 -3.8 0 0 966.5 NA 0.0000 -SN 6000 390 0 0 0
2019/08/05 02:24:00 BASE 1.67 306 2.52 332 -3.8 100 -3.8 0 0 966.5 NA 0.0000 -SN 5000 2260 0 0 0
2019/08/05 02:25:00 BASE 1.63 310 2.52 332 -3.8 100 -3.8 0 0 966.4 NA 0.0000 -SN BR 6000 2300 0 0 0
2019/08/05 02:26:00 BASE 1.28 322 2.52 332 -3.8 100 -3.8 0 0 966.4 NA 0.0000 -SN BR 9999 3020 0 0 0
2019/08/05 02:27:00 BASE 1.23 327 2.21 303 -3.8 100 -3.8 0 0 966.4 NA 0.0000 -SN BR 9999 0 0 0 4070
2019/08/05 02:28:00 BASE 1.66 321 2.98 342 -3.8 100 -3.8 0 0 966.4 NA 0.0000 -SN BR 9999 1840 0 0 0
2019/08/05 02:29:00 BASE 2.42 326 3.45 322 -3.8 100 -3.8 0 0 966.4 NA 0.0000 -SN BR 9999 820 0 0 0
2019/08/05 02:30:00 BASE 3.21 329 4.32 344 -3.8 100 -3.8 0 0 966.4 NA 0.0000 -SN BR 9999 590 0 0 0
2019/08/05 02:31:00 BASE 3.43 325 4.32 333 -3.8 100 -3.8 0 0 966.4 NA 0.0000 -SN BR 9999 690 0 0 0
2019/08/05 02:32:00 BASE 3.11 327 4.32 333 -3.8 100 -3.8 0 0 966.4 NA 0.0000 -SN 9999 1280 0 0 0
2019/08/05 02:33:00 BASE 2.60 322 4.32 333 -3.8 100 -3.8 0 0 966.4 NA 0.0000 -SN 9999 1350 0 0 0
2019/08/05 02:34:00 BASE 2.72 316 4.32 333 -3.8 100 -3.8 0 0 966.4 NA 0.0000 -SN 9999 390 4000 0 0
2019/08/05 02:35:00 BASE 3.01 315 4.32 333 -3.8 100 -3.8 0 0 966.5 NA 0.0000 -SN 9999 2200 3450 0 0
2019/08/05 02:36:00 BASE 2.74 310 4.32 333 -3.8 100 -3.8 0 0 966.5 NA 0.0000 -SN 9999 2100 3310 0 0
2019/08/05 02:37:00 BASE 2.62 302 4.32 333 -3.8 100 -3.8 0 0 966.5 NA 0.0000 -SN 9999 1970 4720 0 0
2019/08/05 02:38:00 BASE 2.92 294 4.32 333 -3.8 100 -3.8 0 0 966.5 NA 0.0000 -SN 9999 1900 0 0 0
2019/08/05 02:39:00 BASE 3.28 298 4.32 333 -3.7 100 -3.7 0 0 966.5 NA 0.0000 -SN 9999 3250 0 0 0
2019/08/05 02:40:00 BASE 3.04 300 4.32 333 -3.7 100 -3.7 0 0 966.5 NA 0.0000 -SN 9999 1510 0 0 0
2019/08/05 02:41:00 BASE 2.64 299 3.81 312 -3.7 100 -3.7 0 0 966.5 NA 0.0000 -SN 9999 1250 0 0 0
2019/08/05 02:42:00 BASE 2.61 299 3.81 312 -3.7 100 -3.7 0 0 966.5 NA 0.0000 -SN 9999 660 0 0 0
2019/08/05 02:43:00 BASE 2.60 300 3.81 312 -3.7 100 -3.7 0 0 966.5 NA 0.0000 -SN 9999 820 0 0 0
2019/08/05 02:44:00 BASE 2.65 316 3.81 312 -3.7 100 -3.7 0 0 966.5 NA 0.0000 -SN 9999 890 0 0 0
2019/08/05 02:45:00 BASE 3.08 336 4.01 349 -3.7 100 -3.7 0 0 966.5 NA 0.0000 -SN 7000 360 0 0 0
2019/08/05 02:46:00 BASE 4.31 350 7.82 344 -3.7 100 -3.7 0 0 966.5 NA 0.0000 -SN 7000 0 0 0 1380
2019/08/05 02:47:00 BASE 6.42 4 9.36 15 -3.6 100 -3.6 0 0 966.5 NA 0.0000 -SN 5000 0 0 0 1350
2019/08/05 02:48:00 BASE 8.65 13 10.65 11 -3.6 100 -3.6 0 0 966.4 NA 0.0000 -SN BR 6000 0 0 0 1280
2019/08/05 02:49:00 BASE 9.78 15 10.91 20 -3.5 100 -3.5 0 0 966.4 NA 0.0000 -SN BR 5000 230 2400 0 0
2019/08/05 02:50:00 BASE 10.57 13 11.94 10 -3.5 100 -3.5 0 0 966.4 NA 0.0000 -SN BR 9999 330 2260 0 0
2019/08/05 02:51:00 BASE 10.88 14 11.94 10 -3.5 100 -3.5 0 0 966.4 NA 0.0000 -SN BR 9999 330 2070 0 0
2019/08/05 02:52:00 BASE 10.59 19 11.94 10 -3.4 100 -3.4 0 0 966.4 NA 0.0000 -SN BR 9999 2030 0 0 0
2019/08/05 02:53:00 BASE 10.99 23 12.04 25 -3.4 100 -3.4 0 0 966.3 NA 0.0000 -SN BR 9999 1800 0 0 0
2019/08/05 02:54:00 BASE 11.08 24 12.04 25 -3.3 100 -3.3 0 0 966.2 NA 0.0000 -SN BR 9999 1840 0 0 0
2019/08/05 02:55:00 BASE 11.54 24 13.02 22 -3.3 100 -3.3 0 0 966.2 NA 0.0000 -SN BR 9999 1770 0 0 0
2019/08/05 02:56:00 BASE 12.80 23 14.61 16 -3.3 100 -3.3 0 0 966.2 NA 0.0000 -SN BR 9999 1770 0 0 0
2019/08/05 02:57:00 BASE 12.60 20 14.61 16 -3.2 100 -3.2 0 0 966.2 NA 0.0000 -SN 9999 1740 0 0 0
2019/08/05 02:58:00 BASE 12.26 12 14.61 16 -3.2 100 -3.2 0 0 966.2 NA 0.0000 -SN 9999 1740 0 0 0
2019/08/05 02:59:00 BASE 11.94 8 14.61 16 -3.1 100 -3.1 0 0 966.2 NA 0.0000 -SN 9999 1740 0 0 0
2019/08/05 03:00:00 BASE 11.29 11 14.61 16 -3.0 100 -3.0 0 0 966.2 NA 0.0000 -SN 9999 1740 0 0 0
2019/08/05 03:01:00 BASE 11.34 10 14.61 16 -3.0 100 -3.0 0 0 966.2 NA 0.0000 -SN 9999 1710 2590 0 0
2019/08/05 03:02:00 BASE 11.11 2 14.61 16 -2.9 100 -2.9 0 0 966.2 NA 0.0000 -SN 9999 1800 2490 6860 0
2019/08/05 03:03:00 BASE 11.19 355 14.61 16 -2.9 100 -2.9 0 0 966.1 NA 0.0000 9999 6820 0 0 0
2019/08/05 03:04:00 BASE 10.54 350 14.61 16 -2.9 100 -2.9 0 0 966.2 NA 0.0000 9999 2330 6790 0 0
2019/08/05 03:05:00 BASE 9.73 348 14.61 16 -2.8 100 -2.8 0 0 966.2 NA 0.0000 9999 2330 6790 9190 0
2019/08/05 03:06:00 BASE 10.21 352 13.17 7 -2.8 100 -2.8 0 0 966.2 NA 0.0000 9999 9090 0 0 0
2019/08/05 03:07:00 BASE 10.98 358 13.17 7 -2.8 100 -2.8 0 0 966.2 NA 0.0000 9999 5380 0 0 0
2019/08/05 03:08:00 BASE 11.32 3 13.07 3 -2.7 100 -2.7 0 0 966.2 NA 0.0000 9999 5250 0 0 0
2019/08/05 03:09:00 BASE 12.00 3 13.84 360 -2.7 100 -2.7 0 0 966.2 NA 0.0000 9999 5410 0 0 0
2019/08/05 03:10:00 BASE 12.03 3 13.84 360 -2.6 100 -2.6 0 0 966.2 NA 0.0000 9999 2170 5510 0 0
2019/08/05 03:11:00 BASE 10.85 360 13.84 360 -2.6 100 -2.6 0 0 966.2 NA 0.0000 9999 2170 5610 0 0
2019/08/05 03:12:00 BASE 10.58 357 13.84 360 -2.6 100 -2.6 0 0 966.2 NA 0.0000 9999 1710 2200 5540 0
2019/08/05 03:13:00 BASE 11.09 356 13.84 360 -2.6 100 -2.6 0 0 966.2 NA 0.0000 9999 1710 5640 0 0
2019/08/05 03:14:00 BASE 10.58 354 13.84 360 -2.6 100 -2.6 0 0 966.2 NA 0.0000 9999 4760 0 0 0
2019/08/05 03:15:00 BASE 9.71 350 13.84 360 -2.6 100 -2.6 0 0 966.2 NA 0.0000 9999 5610 0 0 0
2019/08/05 03:16:00 BASE 9.77 347 13.84 360 -2.6 99 -2.7 0 0 966.2 NA 0.0000 9999 1770 5770 0 0
2019/08/05 03:17:00 BASE 9.87 347 13.84 360 -2.6 99 -2.7 0 0 966.2 NA 0.0000 9999 2300 5640 0 0
2019/08/05 03:18:00 BASE 9.88 353 13.84 360 -2.6 99 -2.8 0 0 966.2 NA 0.0000 9999 1740 0 0 0
2019/08/05 03:19:00 BASE 10.25 355 12.81 355 -2.6 98 -2.9 0 0 966.2 NA 0.0000 9999 1740 0 0 0
2019/08/05 03:20:00 BASE 10.12 359 12.71 1 -2.6 98 -2.9 0 0 966.2 NA 0.0000 9999 1800 0 0 0
2019/08/05 03:21:00 BASE 10.29 5 12.71 1 -2.6 97 -3.0 0 0 966.2 NA 0.0000 9999 1670 0 0 0
2019/08/05 03:22:00 BASE 10.38 360 12.71 1 -2.6 97 -3.0 0 0 966.2 NA 0.0000 9999 1770 0 0 0
2019/08/05 03:23:00 BASE 9.26 354 11.83 1 -2.6 96 -3.1 0 0 966.2 NA 0.0000 9999 1840 0 0 0
2019/08/05 03:24:00 BASE 8.71 347 11.83 1 -2.6 96 -3.1 0 0 966.2 NA 0.0000 9999 1570 0 0 0
2019/08/05 03:25:00 BASE 9.06 348 11.83 1 -2.6 96 -3.1 0 0 966.2 NA 0.0000 9999 1670 0 0 0
2019/08/05 03:26:00 BASE 9.67 355 11.83 1 -2.5 96 -3.1 0 0 966.3 NA 0.0000 9999 1710 0 0 0
2019/08/05 03:27:00 BASE 10.11 355 11.83 1 -2.6 96 -3.1 0 0 966.2 NA 0.0000 9999 1640 0 0 0
2019/08/05 03:28:00 BASE 10.24 355 11.83 1 -2.6 96 -3.1 0 0 966.2 NA 0.0000 9999 1710 0 0 0
2019/08/05 03:29:00 BASE 10.06 0 11.68 3 -2.6 96 -3.1 0 0 966.2 NA 0.0000 9999 1740 2330 0 0
2019/08/05 03:30:00 BASE 10.54 6 11.94 4 -2.6 96 -3.2 0 0 966.2 NA 0.0000 9999 1710 2490 6000 0
2019/08/05 03:31:00 BASE 10.97 6 11.94 4 -2.7 96 -3.2 0 0 966.3 NA 0.0000 9999 2560 6070 0 0
2019/08/05 03:32:00 BASE 10.07 360 11.94 4 -2.7 96 -3.3 0 0 966.4 NA 0.0000 9999 2660 0 0 0
2019/08/05 03:33:00 BASE 9.19 355 11.94 4 -2.7 96 -3.3 0 0 966.4 NA 0.0000 9999 1840 2590 0 0
2019/08/05 03:34:00 BASE 9.91 350 11.99 345 -2.8 96 -3.3 0 0 966.3 NA 0.0000 9999 1800 2660 0 0
2019/08/05 03:35:00 BASE 10.99 348 11.99 353 -2.8 96 -3.3 0 0 966.2 NA 0.0000 9999 1740 2690 0 0
2019/08/05 03:36:00 BASE 10.91 348 12.30 350 -2.7 96 -3.3 0 0 966.3 NA 0.0000 9999 2590 0 0 0
2019/08/05 03:37:00 BASE 9.92 348 12.30 350 -2.6 96 -3.2 0 0 966.3 NA 0.0000 9999 1710 2850 0 0
2019/08/05 03:38:00 BASE 9.47 348 12.30 350 -2.6 96 -3.1 0 0 966.3 NA 0.0000 9999 1640 2820 0 0
2019/08/05 03:39:00 BASE 10.62 353 12.50 1 -2.5 96 -3.1 0 0 966.3 NA 0.0000 9999 2890 0 0 0
2019/08/05 03:40:00 BASE 11.59 357 12.50 1 -2.5 96 -3.1 0 0 966.2 NA 0.0000 9999 2850 0 0 0
2019/08/05 03:41:00 BASE 11.50 355 12.55 360 -2.5 96 -3.1 0 0 966.2 NA 0.0000 9999 1610 2170 2790 0
2019/08/05 03:42:00 BASE 11.30 350 12.55 360 -2.5 96 -3.1 0 0 966.2 NA 0.0000 9999 1570 3020 0 0
2019/08/05 03:43:00 BASE 12.33 356 15.18 2 -2.6 96 -3.1 0 0 966.2 NA 0.0000 9999 1640 2720 0 0
2019/08/05 03:44:00 BASE 13.45 2 15.33 6 -2.6 96 -3.1 0 0 966.2 NA 0.0000 9999 2490 3020 0 0
2019/08/05 03:45:00 BASE 13.28 3 15.33 6 -2.6 97 -3.0 0 0 966.2 NA 0.0000 9999 2820 0 0 0
2019/08/05 03:46:00 BASE 12.80 5 15.33 6 -2.6 97 -3.0 0 0 966.2 NA 0.0000 9999 2690 0 0 0
2019/08/05 03:47:00 BASE 12.90 6 15.33 6 -2.6 97 -3.0 0 0 966.2 NA 0.0000 9999 3050 0 0 0
2019/08/05 03:48:00 BASE 13.14 6 15.33 6 -2.6 97 -3.0 0 0 966.2 NA 0.0000 9999 1710 3020 0 0
2019/08/05 03:49:00 BASE 12.95 8 15.33 6 -2.6 97 -3.0 0 0 966.2 NA 0.0000 9999 1740 0 0 0
2019/08/05 03:50:00 BASE 12.98 9 15.33 6 -2.6 98 -2.9 0 0 966.2 NA 0.0000 9999 1740 2950 0 0
2019/08/05 03:51:00 BASE 12.89 10 15.33 6 -2.6 98 -2.9 0 0 966.2 NA 0.0000 9999 1900 3080 3640 0
2019/08/05 03:52:00 BASE 13.02 12 15.33 6 -2.7 98 -2.9 0 0 966.2 NA 0.0000 9999 3050 0 0 0
2019/08/05 03:53:00 BASE 12.91 15 15.33 6 -2.7 98 -2.9 0 0 966.2 NA 0.0000 9999 3250 0 0 0
2019/08/05 03:54:00 BASE 12.58 17 14.46 15 -2.7 98 -2.9 0 0 966.2 NA 0.0000 9999 1840 3480 0 0
2019/08/05 03:55:00 BASE 12.91 17 14.46 15 -2.7 98 -2.9 0 0 966.2 NA 0.0000 9999 2000 3710 6140 0
2019/08/05 03:56:00 BASE 12.71 18 14.46 15 -2.7 99 -2.9 0 0 966.2 NA 0.0000 9999 3840 6070 0 0
2019/08/05 03:57:00 BASE 12.23 20 14.46 15 -2.7 99 -2.9 0 0 966.2 NA 0.0000 9999 5910 0 0 0
2019/08/05 03:58:00 BASE 12.27 20 14.46 15 -2.7 99 -2.9 0 0 966.2 NA 0.0000 9999 1770 3970 5910 0
2019/08/05 03:59:00 BASE 12.19 22 14.46 15 -2.7 99 -2.8 0 0 966.2 NA 0.0000 9999 1840 5940 0 0
2019/08/05 04:00:00 BASE 12.38 23 14.46 15 -2.7 99 -2.8 0 0 966.1 NA 0.0000 9999 5940 0 0 0
2019/08/05 04:01:00 BASE 13.05 25 14.46 15 -2.7 99 -2.8 0 0 966.1 NA 0.0000 9999 5840 0 0 0
2019/08/05 04:02:00 BASE 13.06 27 14.46 15 -2.7 99 -2.8 0 0 966.1 NA 0.0000 9999 6000 0 0 0
2019/08/05 04:03:00 BASE 12.88 27 14.46 15 -2.7 99 -2.8 0 0 966.1 NA 0.0000 9999 6140 0 0 0
2019/08/05 04:04:00 BASE 13.11 26 14.40 31 -2.7 99 -2.8 0 0 966.1 NA 0.0000 9999 6000 0 0 0
2019/08/05 04:05:00 BASE 13.25 25 14.40 31 -2.7 99 -2.8 0 0 966.1 NA 0.0000 9999 5910 0 0 0
2019/08/05 04:06:00 BASE 13.10 23 14.40 15 -2.7 99 -2.9 0 0 966.0 NA 0.0000 9999 6000 0 0 0
2019/08/05 04:07:00 BASE 13.42 21 14.76 23 -2.7 99 -2.9 0 0 966.1 NA 0.0000 9999 1770 5970 0 0
2019/08/05 04:08:00 BASE 14.10 21 15.74 19 -2.7 98 -2.9 0 0 966.0 NA 0.0000 9999 5810 0 0 0
2019/08/05 04:09:00 BASE 13.70 19 15.74 19 -2.6 98 -2.9 0 0 966.1 NA 0.0000 9999 5970 0 0 0
2019/08/05 04:10:00 BASE 13.24 17 15.74 19 -2.6 98 -2.9 0 0 966.1 NA 0.0000 9999 5840 0 0 0
2019/08/05 04:11:00 BASE 13.73 20 15.74 19 -2.6 97 -2.9 0 0 966.1 NA 0.0000 9999 5770 0 0 0
2019/08/05 04:12:00 BASE 13.97 22 15.74 19 -2.5 97 -2.9 0 0 966.1 NA 0.0000 9999 5710 0 0 0
2019/08/05 04:13:00 BASE 13.58 22 15.74 19 -2.5 97 -2.9 0 0 966.2 NA 0.0000 9999 1840 5680 0 0
2019/08/05 04:14:00 BASE 13.25 22 15.74 19 -2.5 97 -2.9 0 0 966.2 NA 0.0000 9999 1900 5580 0 0
2019/08/05 04:15:00 BASE 13.39 20 15.74 19 -2.5 97 -3.0 0 0 966.2 NA 0.0000 9999 5410 0 0 0
2019/08/05 04:16:00 BASE 13.41 19 15.74 19 -2.5 96 -3.0 0 0 966.2 NA 0.0000 9999 5250 0 0 0
2019/08/05 04:17:00 BASE 13.37 19 15.74 19 -2.5 96 -3.0 0 0 966.2 NA 0.0000 9999 5910 0 0 0
2019/08/05 04:18:00 BASE 13.68 20 15.48 26 -2.5 96 -3.0 0 0 966.1 NA 0.0000 9999 5740 0 0 0
2019/08/05 04:19:00 BASE 14.15 20 15.90 24 -2.5 96 -3.0 0 0 966.1 NA 0.0000 9999 4660 5250 0 0
2019/08/05 04:20:00 BASE 13.88 18 15.90 24 -2.5 96 -3.0 0 0 966.1 NA 0.0000 9999 5020 5740 0 0
2019/08/05 04:21:00 BASE 13.50 18 15.90 24 -2.5 96 -3.1 0 0 966.1 NA 0.0000 9999 2100 4760 0 0
2019/08/05 04:22:00 BASE 13.93 19 15.90 24 -2.5 96 -3.1 0 0 966.1 NA 0.0000 9999 2100 0 0 0
2019/08/05 04:23:00 BASE 14.36 20 15.90 24 -2.5 95 -3.1 0 0 966.1 NA 0.0000 9999 0 0 0 3310
2019/08/05 04:24:00 BASE 14.53 19 15.90 24 -2.5 95 -3.2 0 0 966.1 NA 0.0000 9999 890 0 0 0
2019/08/05 04:25:00 BASE 14.20 18 15.90 24 -2.5 95 -3.2 0 0 966.1 NA 0.0000 9999 0 0 0 3310
2019/08/05 04:26:00 BASE 13.82 18 15.90 24 -2.5 95 -3.2 0 0 966.1 NA 0.0000 9999 2400 0 0 0
2019/08/05 04:27:00 BASE 13.15 19 15.90 24 -2.5 95 -3.2 0 0 966.2 NA 0.0000 9999 560 0 0 0
2019/08/05 04:28:00 BASE 13.40 21 15.90 24 -2.4 95 -3.2 0 0 966.1 NA 0.0000 9999 0 0 0 3050
2019/08/05 04:29:00 BASE 13.59 21 15.64 21 -2.4 94 -3.2 0 0 966.1 NA 0.0000 UP 9999 0 0 0 2920
2019/08/05 04:30:00 BASE 13.40 21 15.64 21 -2.4 94 -3.2 0 0 966.2 NA 0.0000 UP 9999 0 0 0 2820
2019/08/05 04:31:00 BASE 13.63 21 15.64 21 -2.4 94 -3.3 0 0 966.2 NA 0.0000 UP 9999 0 0 0 2820
2019/08/05 04:32:00 BASE 13.61 20 15.64 21 -2.4 94 -3.3 0 0 966.2 NA 0.0000 UP 9999 0 0 0 4360
2019/08/05 04:33:00 BASE 13.47 18 15.48 20 -2.4 94 -3.3 0 0 966.2 NA 0.0000 UP 9999 360 0 0 0
2019/08/05 04:34:00 BASE 13.03 17 15.48 20 -2.4 94 -3.3 0 0 966.2 NA 0.0000 UP 9999 360 2530 0 0
2019/08/05 04:35:00 BASE 12.81 16 14.97 17 -2.4 94 -3.2 0 0 966.2 NA 0.0000 UP 9000 260 0 0 0
2019/08/05 04:36:00 BASE 11.87 16 14.97 17 -2.4 94 -3.2 0 0 966.2 NA 0.0000 -SN 6000 0 0 0 4200
2019/08/05 04:37:00 BASE 11.17 15 14.97 17 -2.4 94 -3.3 0 0 966.2 NA 0.0000 -SN 9000 0 0 0 4430
2019/08/05 04:38:00 BASE 11.69 15 14.71 15 -2.4 94 -3.3 0 0 966.2 NA 0.0000 -SN 9000 0 0 0 3710
2019/08/05 04:39:00 BASE 11.38 14 14.71 15 -2.5 94 -3.3 0 0 966.3 NA 0.0000 -SN 7000 0 0 0 3350
2019/08/05 04:40:00 BASE 10.87 10 14.71 15 -2.5 94 -3.3 0 0 966.2 NA 0.0000 -SN BR 9999 0 0 0 3450
2019/08/05 04:41:00 BASE 10.89 5 14.71 15 -2.6 95 -3.3 0 0 966.3 NA 0.0000 -SN BR 7000 0 0 0 3580
2019/08/05 04:42:00 BASE 9.60 3 13.94 11 -2.6 95 -3.3 0 0 966.4 NA 0.0000 -SN BR 8000 0 0 0 3380
2019/08/05 04:43:00 BASE 8.30 358 13.94 11 -2.7 95 -3.3 0 0 966.4 NA 0.0000 -SN BR 9999 0 0 0 3710
2019/08/05 04:44:00 BASE 8.76 359 13.94 11 -2.8 96 -3.4 0 0 966.3 NA 0.0000 -SN BR 9999 2990 0 0 0
2019/08/05 04:45:00 BASE 10.32 5 12.86 20 -2.8 96 -3.3 0 0 966.3 NA 0.0000 -SN BR 9999 0 0 0 4270
2019/08/05 04:46:00 BASE 11.87 7 13.38 10 -2.8 97 -3.2 0 0 966.2 NA 0.0000 -SN 9999 390 0 0 0
2019/08/05 04:47:00 BASE 12.62 8 13.84 8 -2.8 98 -3.1 0 0 966.2 NA 0.0000 -SN 9999 360 0 0 0
2019/08/05 04:48:00 BASE 12.35 4 13.84 8 -2.8 98 -3.0 0 0 966.2 NA 0.0000 -SN 9999 2490 0 0 0
2019/08/05 04:49:00 BASE 12.68 6 13.99 10 -2.7 99 -2.8 0 0 966.2 NA 0.0000 -SN 9999 2300 0 0 0
2019/08/05 04:50:00 BASE 13.45 9 14.71 9 -2.7 99 -2.8 0 0 966.2 NA 0.0000 -SN 9999 390 3540 0 0
2019/08/05 04:51:00 BASE 13.97 10 15.38 10 -2.6 100 -2.7 0 0 966.2 NA 0.0000 -SN 9999 430 0 0 0
2019/08/05 04:52:00 BASE 14.53 12 15.84 8 -2.6 100 -2.7 0 0 966.2 NA 0.0000 -SN 9999 2560 0 0 0
2019/08/05 04:53:00 BASE 14.90 13 16.77 16 -2.6 100 -2.6 0 0 966.2 NA 0.0000 -SN 9999 1020 2490 0 0
2019/08/05 04:54:00 BASE 14.95 11 16.77 16 -2.6 100 -2.6 0 0 966.2 NA 0.0000 -SN 9999 390 0 0 0
2019/08/05 04:55:00 BASE 15.10 10 17.29 9 -2.6 100 -2.6 0 0 966.2 NA 0.0000 -SN 9999 300 0 0 0
2019/08/05 04:56:00 BASE 14.93 8 17.29 9 -2.6 100 -2.6 0 0 966.2 NA 0.0000 -SN 9999 230 0 0 0
2019/08/05 04:57:00 BASE 14.67 7 17.29 9 -2.6 100 -2.6 0 0 966.2 NA 0.0000 -SN 9999 260 0 0 0
2019/08/05 04:58:00 BASE 15.84 7 17.29 9 -2.7 100 -2.7 0 0 966.2 NA 0.0000 -SN 9999 360 0 0 0
2019/08/05 04:59:00 BASE 16.21 8 17.29 9 -2.7 100 -2.7 0 0 966.2 NA 0.0000 -SN 9999 690 0 0 0
2019/08/05 05:00:00 BASE 16.15 6 17.54 360 -2.7 100 -2.7 0 0 966.2 NA 0.0000 -SN 9999 1250 0 0 0
2019/08/05 05:01:00 BASE 16.04 1 17.54 360 -2.7 100 -2.7 0 0 966.2 NA 0.0000 -SN 9999 1510 0 0 0
2019/08/05 05:02:00 BASE 14.98 356 17.54 360 -2.7 100 -2.7 0 0 966.2 NA 0.0000 -SN 9999 1050 0 0 0
2019/08/05 05:03:00 BASE 14.09 351 17.54 360 -2.7 100 -2.7 0 0 966.3 NA 0.0000 -SN 9999 1210 0 0 0
2019/08/05 05:04:00 BASE 13.44 348 17.54 360 -2.6 100 -2.6 0 0 966.4 NA 0.0000 -SN 9999 850 0 0 0
2019/08/05 05:05:00 BASE 12.79 348 17.54 360 -2.6 100 -2.6 0 0 966.4 NA 0.0000 -SN 9999 1050 0 0 0
2019/08/05 05:06:00 BASE 12.48 348 17.54 360 -2.6 100 -2.6 0 0 966.4 NA 0.0000 -SN 9999 1080 0 0 0
2019/08/05 05:07:00 BASE 12.29 349 17.54 360 -2.6 100 -2.6 0 0 966.4 NA 0.0000 9999 1310 0 0 0
2019/08/05 05:08:00 BASE 11.72 351 17.54 360 -2.6 100 -2.6 0 0 966.5 NA 0.0000 9999 1210 0 0 0
2019/08/05 05:09:00 BASE 12.84 351 17.75 353 -2.6 100 -2.6 0 0 966.4 NA 0.0000 9999 520 0 0 0
2019/08/05 05:10:00 BASE 14.78 350 17.75 353 -2.6 100 -2.6 0 0 966.4 NA 0.0000 9999 360 0 0 0
2019/08/05 05:11:00 BASE 14.83 349 17.75 353 -2.6 100 -2.6 0 0 966.4 NA 0.0000 9999 330 0 0 0
2019/08/05 05:12:00 BASE 14.11 347 17.75 353 -2.6 100 -2.6 0 0 966.4 NA 0.0000 9999 720 0 0 0
2019/08/05 05:13:00 BASE 13.17 345 17.75 353 -2.6 100 -2.6 0 0 966.5 NA 0.0000 9999 980 0 0 0
2019/08/05 05:14:00 BASE 13.22 345 17.75 353 -2.6 100 -2.6 0 0 966.4 NA 0.0000 9999 1050 0 0 0
2019/08/05 05:15:00 BASE 14.17 345 17.75 353 -2.6 100 -2.6 0 0 966.4 NA 0.0000 9999 390 0 0 0
2019/08/05 05:16:00 BASE 15.09 344 17.75 353 -2.6 100 -2.6 0 0 966.4 NA 0.0000 9999 360 0 0 0
2019/08/05 05:17:00 BASE 15.29 341 17.75 353 -2.7 100 -2.7 0 0 966.4 NA 0.0000 9999 390 0 0 0
2019/08/05 05:18:00 BASE 15.19 335 17.75 332 -2.7 100 -2.7 0 0 966.4 NA 0.0000 9999 720 0 0 0
2019/08/05 05:19:00 BASE 16.04 330 17.75 332 -2.7 100 -2.7 0 0 966.5 NA 0.0000 9999 0 0 0 1250
2019/08/05 05:20:00 BASE 15.87 330 17.75 332 -2.7 100 -2.7 0 0 966.5 NA 0.0000 9999 300 0 0 0
2019/08/05 05:21:00 BASE 14.76 331 17.75 332 -2.7 100 -2.7 0 0 966.5 NA 0.0000 9999 390 0 0 0
2019/08/05 05:22:00 BASE 13.81 334 17.75 332 -2.7 100 -2.7 0 0 966.6 NA 0.0000 9999 460 1310 0 0
2019/08/05 05:23:00 BASE 13.17 335 17.75 332 -2.8 100 -2.8 0 0 966.6 NA 0.0000 9999 390 0 0 0
2019/08/05 05:24:00 BASE 13.41 333 17.75 332 -2.8 100 -2.8 0 0 966.6 NA 0.0000 9999 430 0 0 0
2019/08/05 05:25:00 BASE 13.90 331 17.75 332 -2.8 100 -2.8 0 0 966.6 NA 0.0000 9999 1210 0 0 0
2019/08/05 05:26:00 BASE 14.61 329 17.75 332 -2.9 100 -2.9 0 0 966.6 NA 0.0000 9999 390 0 0 0
2019/08/05 05:27:00 BASE 14.44 331 17.75 332 -2.9 100 -2.9 0 0 966.6 NA 0.0000 9999 390 1570 0 0
2019/08/05 05:28:00 BASE 13.47 336 17.34 329 -2.9 100 -2.9 0 0 966.6 NA 0.0000 9999 360 1670 0 0
2019/08/05 05:29:00 BASE 13.36 336 16.10 328 -2.9 100 -2.9 0 0 966.6 NA 0.0000 9999 330 1440 0 0
2019/08/05 05:30:00 BASE 13.80 333 16.10 328 -2.9 100 -2.9 0 0 966.7 NA 0.0000 9999 360 1480 0 0
2019/08/05 05:31:00 BASE 14.50 332 16.10 328 -2.9 100 -2.9 0 0 966.6 NA 0.0000 9999 490 0 0 0
2019/08/05 05:32:00 BASE 14.47 331 16.10 328 -2.9 100 -2.9 0 0 966.6 NA 0.0000 9999 390 0 0 0
2019/08/05 05:33:00 BASE 14.04 334 16.10 328 -3.0 100 -3.0 0 0 966.7 NA 0.0000 9999 330 980 0 0
2019/08/05 05:34:00 BASE 14.20 339 16.10 328 -3.0 100 -3.0 0 0 966.7 NA 0.0000 9999 330 0 0 0
2019/08/05 05:35:00 BASE 14.22 340 16.05 329 -3.0 100 -3.0 0 0 966.7 NA 0.0000 9999 360 0 0 0
2019/08/05 05:36:00 BASE 13.88 340 16.05 329 -3.0 100 -3.0 0 0 966.7 NA 0.0000 9999 460 0 0 0
2019/08/05 05:37:00 BASE 13.43 339 16.05 329 -3.0 100 -3.0 0 0 966.7 NA 0.0000 9999 750 0 0 0
2019/08/05 05:38:00 BASE 12.68 340 16.05 329 -3.0 100 -3.0 0 0 966.7 NA 0.0000 9999 850 0 0 0
2019/08/05 05:39:00 BASE 12.20 339 15.84 335 -3.0 100 -3.0 0 0 966.7 NA 0.0000 9999 850 0 0 0
2019/08/05 05:40:00 BASE 12.46 338 15.84 335 -3.0 100 -3.0 0 0 966.7 NA 0.0000 9999 790 0 0 0
2019/08/05 05:41:00 BASE 12.16 341 15.69 331 -3.0 100 -3.0 0 0 966.7 NA 0.0000 9999 620 0 0 0
2019/08/05 05:42:00 BASE 12.49 342 15.38 339 -3.0 100 -3.0 0 0 966.7 NA 0.0000 9999 660 0 0 0
2019/08/05 05:43:00 BASE 13.50 341 15.38 339 -3.0 100 -3.0 0 0 966.7 NA 0.0000 9999 430 0 0 0
2019/08/05 05:44:00 BASE 13.70 339 14.87 340 -3.0 100 -3.0 0 0 966.7 NA 0.0000 9999 1080 0 0 0
2019/08/05 05:45:00 BASE 13.32 335 14.82 336 -3.0 100 -3.0 0 0 966.7 NA 0.0000 9999 920 0 0 0
2019/08/05 05:46:00 BASE 13.13 333 14.82 336 -3.0 100 -3.0 0 0 966.7 NA 0.0000 9999 620 0 0 0
2019/08/05 05:47:00 BASE 13.37 333 14.97 329 -3.0 100 -3.0 0 0 966.7 NA 0.0000 9999 620 0 0 0
2019/08/05 05:48:00 BASE 13.16 333 14.97 329 -3.0 100 -3.0 0 0 966.7 NA 0.0000 9999 620 0 0 0
2019/08/05 05:49:00 BASE 12.78 333 14.97 329 -3.0 100 -3.0 0 0 966.7 NA 0.0000 9999 790 0 0 0
2019/08/05 05:50:00 BASE 12.77 332 14.97 329 -3.1 100 -3.1 0 0 966.7 NA 0.0000 9999 620 0 0 0
2019/08/05 05:51:00 BASE 12.59 332 14.97 329 -3.1 100 -3.1 0 0 966.7 NA 0.0000 9999 660 0 0 0
2019/08/05 05:52:00 BASE 12.16 332 14.97 329 -3.1 100 -3.1 0 0 966.7 NA 0.0000 9999 660 0 0 0
2019/08/05 05:53:00 BASE 12.80 333 15.64 337 -3.1 100 -3.1 0 0 966.7 NA 0.0000 9999 690 0 0 0
2019/08/05 05:54:00 BASE 14.50 337 16.26 339 -3.1 100 -3.1 0 0 966.7 NA 0.0000 9999 720 0 0 0
2019/08/05 05:55:00 BASE 15.21 339 16.26 339 -3.1 100 -3.1 0 0 966.7 NA 0.0000 9999 460 0 0 0
2019/08/05 05:56:00 BASE 14.50 338 16.26 339 -3.2 100 -3.2 0 0 966.7 NA 0.0000 9999 590 0 0 0
2019/08/05 05:57:00 BASE 12.95 336 16.26 339 -3.2 100 -3.2 0 0 966.7 NA 0.0000 9999 660 0 0 0
2019/08/05 05:58:00 BASE 12.02 336 16.26 339 -3.2 100 -3.2 0 0 966.7 NA 0.0000 9999 690 5540 0 0
2019/08/05 05:59:00 BASE 12.58 338 16.26 339 -3.2 100 -3.2 0 0 966.7 NA 0.0000 9999 850 5540 0 0
2019/08/05 06:00:00 BASE 13.51 339 16.26 339 -3.2 100 -3.2 0 0 966.7 NA 0.0000 9999 5320 0 0 0
2019/08/05 06:01:00 BASE 14.24 337 16.26 339 -3.3 100 -3.3 0 0 966.6 NA 0.0000 9999 720 5510 0 0
2019/08/05 06:02:00 BASE 14.43 337 16.26 339 -3.3 100 -3.3 0 0 966.6 NA 0.0000 9999 660 5350 0 0
2019/08/05 06:03:00 BASE 13.96 336 16.26 339 -3.3 100 -3.3 0 0 966.7 NA 0.0000 9999 620 5480 0 0
2019/08/05 06:04:00 BASE 13.64 336 16.20 338 -3.3 100 -3.3 0 0 966.7 NA 0.0000 9999 690 1180 0 0
2019/08/05 06:05:00 BASE 13.78 338 15.28 336 -3.3 100 -3.3 0 0 966.6 NA 0.0000 9999 5380 0 0 0
2019/08/05 06:06:00 BASE 14.05 339 15.28 336 -3.3 100 -3.3 0 0 966.6 NA 0.0000 9999 390 0 0 0
2019/08/05 06:07:00 BASE 14.28 339 15.28 336 -3.3 100 -3.3 0 0 966.6 NA 0.0000 9999 360 0 0 0
2019/08/05 06:08:00 BASE 14.11 339 15.28 336 -3.3 100 -3.3 0 0 966.6 NA 0.0000 9999 300 0 0 0
2019/08/05 06:09:00 BASE 13.33 340 15.28 336 -3.3 100 -3.3 0 0 966.6 NA 0.0000 9999 690 0 0 0
2019/08/05 06:10:00 BASE 12.77 339 15.28 336 -3.3 100 -3.3 0 0 966.6 NA 0.0000 9999 590 0 0 0
2019/08/05 06:11:00 BASE 12.35 336 14.92 339 -3.3 100 -3.3 0 0 966.6 NA 0.0000 9999 390 0 0 0
2019/08/05 06:12:00 BASE 12.31 336 14.92 339 -3.3 100 -3.3 0 0 966.6 NA 0.0000 9999 520 0 0 0
2019/08/05 06:13:00 BASE 13.27 338 14.92 339 -3.3 100 -3.3 0 0 966.6 NA 0.0000 9999 330 0 0 0
2019/08/05 06:14:00 BASE 13.87 338 15.18 338 -3.3 100 -3.3 0 0 966.6 NA 0.0000 9999 330 0 0 0
2019/08/05 06:15:00 BASE 13.80 339 15.18 338 -3.3 100 -3.3 0 0 966.5 NA 0.0000 9999 390 0 0 0
2019/08/05 06:16:00 BASE 13.30 342 15.18 338 -3.3 100 -3.3 0 0 966.6 NA 0.0000 9999 360 5810 0 0
2019/08/05 06:17:00 BASE 12.73 346 15.18 338 -3.3 100 -3.3 0 0 966.6 NA 0.0000 9999 360 4990 0 0
2019/08/05 06:19:00 BASE 12.57 347 15.18 338 -3.3 100 -3.3 0 0 966.5 NA 0.0000 9999 330 4660 0 0
2019/08/05 06:20:00 BASE 12.77 345 15.18 338 -3.3 100 -3.3 0 0 966.6 NA 0.0000 9999 330 4430 0 0
2019/08/05 06:21:00 BASE 12.72 347 15.18 338 -3.3 100 -3.3 0 0 966.6 NA 0.0000 9999 330 0 0 0
2019/08/05 06:22:00 BASE 13.12 347 15.18 338 -3.3 100 -3.3 0 0 966.5 NA 0.0000 9999 300 0 0 0
2019/08/05 06:23:00 BASE 13.47 343 15.18 338 -3.4 100 -3.4 0 0 966.5 NA 0.0000 9999 260 4300 0 0
2019/08/05 06:24:00 BASE 13.34 342 15.02 349 -3.4 100 -3.4 0 0 966.6 NA 0.0000 9999 260 0 0 0
2019/08/05 06:25:00 BASE 12.99 341 15.02 349 -3.4 100 -3.4 0 0 966.5 NA 0.0000 9999 330 5450 0 0
2019/08/05 06:26:00 BASE 13.17 339 15.02 349 -3.4 100 -3.4 0 0 966.5 NA 0.0000 9999 430 4430 0 0
2019/08/05 06:27:00 BASE 13.32 337 15.02 349 -3.4 100 -3.4 0 0 966.5 NA 0.0000 9999 390 4230 0 0
2019/08/05 06:28:00 BASE 12.84 337 15.02 349 -3.5 100 -3.5 0 0 966.5 NA 0.0000 9999 360 4270 0 0
2019/08/05 06:29:00 BASE 12.13 339 15.02 349 -3.5 100 -3.5 0 0 966.5 NA 0.0000 9999 4070 5380 0 0
2019/08/05 06:30:00 BASE 11.91 341 15.02 349 -3.5 100 -3.5 0 0 966.5 NA 0.0000 9999 5090 0 0 0
2019/08/05 06:31:00 BASE 12.52 345 15.02 349 -3.6 100 -3.6 0 0 966.4 NA 0.0000 9999 5150 0 0 0
2019/08/05 06:32:00 BASE 12.55 347 14.56 346 -3.6 100 -3.6 0 0 966.5 NA 0.0000 9999 5320 0 0 0
2019/08/05 06:33:00 BASE 11.77 349 14.40 337 -3.7 100 -3.7 0 0 966.5 NA 0.0000 9999 5280 0 0 0
2019/08/05 06:34:00 BASE 11.59 352 14.40 337 -3.7 100 -3.7 0 0 966.5 NA 0.0000 9999 5380 0 0 0
2019/08/05 06:35:00 BASE 12.13 353 14.40 337 -3.8 100 -3.8 0 0 966.5 NA 0.0000 9999 5220 0 0 0
2019/08/05 06:36:00 BASE 12.07 354 14.35 344 -3.8 100 -3.8 0 0 966.5 NA 0.0000 9999 5120 0 0 0
2019/08/05 06:37:00 BASE 12.45 350 14.30 343 -3.8 100 -3.8 0 0 966.4 NA 0.0000 9999 5020 0 0 0
2019/08/05 06:38:00 BASE 12.77 349 14.30 343 -3.9 100 -3.9 0 0 966.5 NA 0.0000 9999 4890 0 0 0
2019/08/05 06:39:00 BASE 12.43 353 14.30 343 -3.9 100 -3.9 0 0 966.5 NA 0.0000 9999 4990 0 0 0
2019/08/05 06:40:00 BASE 12.93 351 14.82 353 -3.9 100 -3.9 0 0 966.4 NA 0.0000 9999 5220 0 0 0
2019/08/05 06:41:00 BASE 12.88 345 14.82 353 -3.9 100 -3.9 0 0 966.5 NA 0.0000 9999 5090 0 0 0
2019/08/05 06:42:00 BASE 12.67 348 14.82 353 -3.9 100 -3.9 0 0 966.5 NA 0.0000 9999 4990 0 0 0
2019/08/05 06:43:00 BASE 12.53 350 14.82 353 -3.9 100 -3.9 0 0 966.5 NA 0.0000 9999 4950 0 0 0
2019/08/05 06:44:01 BASE 11.47 349 14.82 353 -3.9 100 -3.9 0 0 966.5 NA 0.0000 9999 4920 0 0 0
2019/08/05 06:45:00 BASE 10.61 351 14.82 353 -3.9 100 -3.9 0 0 966.5 NA 0.0000 9999 4990 0 0 0
2019/08/05 06:46:00 BASE 10.44 350 14.82 353 -3.9 100 -3.9 0 0 966.5 NA 0.0000 9999 4990 0 0 0
2019/08/05 06:47:00 BASE 10.28 351 14.82 353 -3.9 100 -3.9 0 0 966.5 NA 0.0000 9999 5020 0 0 0
2019/08/05 06:48:00 BASE 10.32 354 14.82 353 -4.0 100 -4.0 0 0 966.5 NA 0.0000 9999 4990 0 0 0
2019/08/05 06:49:00 BASE 11.17 353 14.82 353 -4.0 100 -4.0 0 0 966.5 NA 0.0000 9999 4890 0 0 0
2019/08/05 06:50:00 BASE 11.79 351 14.04 353 -4.0 100 -4.0 0 0 966.5 NA 0.0000 9999 4990 0 0 0
2019/08/05 06:51:00 BASE 11.44 352 14.04 353 -4.1 100 -4.1 0 0 966.5 NA 0.0000 9999 4990 0 0 0
2019/08/05 06:52:00 BASE 11.14 353 13.02 355 -4.1 100 -4.1 0 0 966.5 NA 0.0000 9999 13710 0 0 0
2019/08/05 06:53:00 BASE 10.79 354 13.02 355 -4.2 100 -4.2 0 0 966.5 NA 0.0000 9999 13390 0 0 0
2019/08/05 06:54:00 BASE 10.52 350 13.02 355 -4.2 100 -4.2 0 0 966.5 NA 0.0000 9999 0 0 0 0
2019/08/05 06:55:00 BASE 10.68 347 13.02 355 -4.2 100 -4.2 0 0 966.5 NA 0.0000 9999 0 0 0 0
2019/08/05 06:56:00 BASE 10.46 352 13.02 355 -4.2 100 -4.2 0 0 966.5 NA 0.0000 9999 0 0 0 0
2019/08/05 06:57:00 BASE 9.78 353 13.02 355 -4.2 100 -4.2 0 0 966.5 NA 0.0000 9999 0 0 0 0
2019/08/05 06:58:00 BASE 9.79 353 13.02 355 -4.2 100 -4.2 0 0 966.5 NA 0.0000 9999 4790 0 0 0
2019/08/05 06:59:00 BASE 9.74 355 13.02 355 -4.1 100 -4.1 0 0 966.5 NA 0.0000 9999 0 0 0 0
2019/08/05 07:00:00 BASE 9.71 355 12.35 339 -4.1 100 -4.1 0 0 966.5 NA 0.0000 9999 4790 0 0 0
2019/08/05 07:01:00 BASE 9.65 354 12.35 339 -4.1 100 -4.1 0 0 966.5 NA 0.0000 9999 4860 0 0 0
2019/08/05 07:02:00 BASE 8.81 351 12.35 339 -4.0 100 -4.0 0 0 966.5 NA 0.0000 9999 4950 0 0 0
2019/08/05 07:03:00 BASE 8.60 347 12.35 339 -4.0 100 -4.0 0 0 966.5 NA 0.0000 9999 4990 0 0 0
2019/08/05 07:04:00 BASE 9.02 348 12.35 339 -4.0 100 -4.0 0 0 966.5 NA 0.0000 9999 4950 0 0 0
2019/08/05 07:05:00 BASE 9.11 354 12.35 339 -4.0 100 -4.0 0 0 966.5 NA 0.0000 9999 4990 0 0 0
2019/08/05 07:06:00 BASE 8.47 358 12.35 339 -4.0 100 -4.0 0 0 966.6 NA 0.0000 9999 4920 0 0 0
2019/08/05 07:07:00 BASE 8.25 359 12.35 339 -4.1 100 -4.1 0 0 966.5 NA 0.0000 9999 0 0 0 0
2019/08/05 07:08:00 BASE 9.25 353 12.04 346 -4.1 100 -4.1 0 0 966.5 NA 0.0000 9999 4920 0 0 0
2019/08/05 07:09:00 BASE 9.50 349 12.04 346 -4.1 100 -4.1 0 0 966.5 NA 0.0000 9999 0 0 0 0
2019/08/05 07:10:00 BASE 8.72 351 12.04 346 -4.2 100 -4.2 0 0 966.5 NA 0.0000 9999 0 0 0 0
2019/08/05 07:11:00 BASE 8.91 350 12.04 346 -4.1 100 -4.1 0 0 966.5 NA 0.0000 9999 0 0 0 0
2019/08/05 07:12:00 BASE 9.99 353 12.04 346 -4.1 100 -4.1 0 0 966.5 NA 0.0000 9999 0 0 0 0
2019/08/05 07:13:00 BASE 11.35 357 13.17 354 -4.0 100 -4.0 0 0 966.4 NA 0.0000 9999 0 0 0 0
2019/08/05 07:14:00 BASE 11.36 356 13.17 354 -4.0 100 -4.0 0 0 966.5 NA 0.0000 9999 0 0 0 0
2019/08/05 07:15:00 BASE 10.26 353 13.17 354 -4.0 100 -4.0 0 0 966.5 NA 0.0000 9999 9650 0 0 0
2019/08/05 07:16:00 BASE 9.80 351 13.17 354 -4.0 100 -4.0 0 0 966.4 NA 0.0000 9999 9810 0 0 0
2019/08/05 07:17:00 BASE 10.62 349 13.17 354 -3.9 100 -3.9 0 0 966.4 NA 0.0000 9999 9880 0 0 0
2019/08/05 07:18:00 BASE 11.39 345 13.17 354 -3.9 100 -3.9 0 0 966.4 NA 0.0000 9999 9710 0 0 0
2019/08/05 07:19:00 BASE 11.32 342 13.17 354 -3.8 100 -3.8 0 0 966.4 NA 0.0000 9999 9510 0 0 0
2019/08/05 07:20:00 BASE 10.72 340 13.17 354 -3.8 100 -3.8 0 0 966.3 NA 0.0000 9999 9610 0 0 0
2019/08/05 07:21:00 BASE 9.83 349 13.17 354 -3.7 100 -3.7 0 0 966.4 NA 0.0000 9999 9480 0 0 0
2019/08/05 07:22:00 BASE 9.43 2 13.17 354 -3.7 100 -3.7 0 0 966.3 NA 0.0000 9999 0 0 0 590
2019/08/05 07:23:00 BASE 10.10 359 12.76 346 -3.7 100 -3.7 0 0 966.3 NA 0.0000 9999 9580 0 0 0
2019/08/05 07:24:00 BASE 10.93 351 12.81 345 -3.7 100 -3.7 0 0 966.2 NA 0.0000 9999 9320 0 0 0
2019/08/05 07:25:00 BASE 10.99 354 12.96 9 -3.8 100 -3.8 0 0 966.2 NA 0.0000 9999 9450 0 0 0
2019/08/05 07:26:00 BASE 11.01 356 12.96 9 -3.8 100 -3.8 0 0 966.2 NA 0.0000 9999 9350 0 0 0
2019/08/05 07:27:00 BASE 11.37 354 13.07 360 -3.8 100 -3.8 0 0 966.2 NA 0.0000 9999 9150 0 0 0
2019/08/05 07:28:00 BASE 12.96 356 16.77 3 -3.7 100 -3.7 0 0 966.1 NA 0.0000 9999 9350 0 0 0
2019/08/05 07:29:00 BASE 13.61 357 16.77 3 -3.7 100 -3.7 0 0 966.2 NA 0.0000 9999 8990 0 0 0
2019/08/05 07:30:00 BASE 13.02 355 16.77 3 -3.7 100 -3.7 0 0 966.1 NA 0.0000 9999 6730 0 0 0
2019/08/05 07:31:00 BASE 13.52 353 16.77 3 -3.7 100 -3.7 0 0 966.1 NA 0.0000 9999 6760 0 0 0
2019/08/05 07:32:00 BASE 14.51 352 17.18 350 -3.7 100 -3.7 0 0 966.1 NA 0.0000 9999 6560 0 0 0
2019/08/05 07:33:00 BASE 14.16 356 17.18 350 -3.7 100 -3.7 0 0 966.1 NA 0.0000 9999 6370 0 0 0
2019/08/05 07:34:00 BASE 14.34 356 17.80 350 -3.7 100 -3.7 0 0 966.0 NA 0.0000 9999 6100 0 0 0
2019/08/05 07:35:00 BASE 14.66 351 17.80 350 -3.7 100 -3.7 0 0 966.0 NA 0.0000 9999 11520 0 0 0
2019/08/05 07:36:00 BASE 15.40 353 18.88 352 -3.6 100 -3.6 0 0 965.9 NA 0.0000 9999 11450 0 0 0
2019/08/05 07:37:00 BASE 16.75 354 18.88 352 -3.6 100 -3.6 0 0 965.9 NA 0.0000 9999 11480 0 0 0
2019/08/05 07:38:00 BASE 17.21 356 20.22 347 -3.6 100 -3.6 0 0 965.8 NA 0.0000 9999 11390 0 0 0
2019/08/05 07:39:00 BASE 16.96 350 20.22 347 -3.6 100 -3.6 0 0 965.8 NA 0.0000 9999 11250 0 0 0
2019/08/05 07:40:00 BASE 16.95 351 22.43 5 -3.5 100 -3.5 0 0 965.7 NA 0.0000 9999 11320 0 0 0
2019/08/05 07:41:00 BASE 19.56 3 24.95 8 -3.5 100 -3.5 0 0 965.6 NA 0.0000 9999 11290 0 0 0
2019/08/05 07:42:00 BASE 21.74 10 24.95 8 -3.5 100 -3.5 0 0 965.5 NA 0.0000 9999 11320 0 0 0
2019/08/05 07:43:00 BASE 21.48 13 24.95 8 -3.5 100 -3.5 0 0 965.5 NA 0.0000 9999 11220 0 0 0
2019/08/05 07:44:00 BASE 21.87 15 25.31 12 -3.5 100 -3.5 0 0 965.4 NA 0.0000 9999 8430 11220 0 0
2019/08/05 07:45:00 BASE 23.10 18 25.31 12 -3.5 100 -3.5 0 0 965.4 NA 0.0000 9999 8460 11710 0 0
2019/08/05 07:46:01 BASE 23.28 18 25.31 12 -3.5 100 -3.5 0 0 965.3 NA 0.0000 -SN 9999 8430 11250 0 0
2019/08/05 07:47:00 BASE 23.92 18 25.93 20 -3.5 100 -3.5 0 0 965.3 NA 0.0000 -SN 9999 8370 0 0 0
2019/08/05 07:48:00 BASE 24.34 19 25.93 20 -3.5 100 -3.5 0 0 965.3 NA 0.0000 -SN 9999 8240 0 0 0
2019/08/05 07:49:00 BASE 25.13 19 27.42 19 -3.5 100 -3.5 0 0 965.2 NA 0.0000 -SN 9999 8200 0 0 0
2019/08/05 07:50:00 BASE 26.17 19 27.42 19 -3.5 100 -3.5 0 0 965.2 NA 0.0000 -SN 9999 8300 0 0 0
2019/08/05 07:51:01 BASE 25.50 18 27.42 19 -3.4 100 -3.4 0 0 965.3 NA 0.0000 -SN 9999 8330 10560 0 0
2019/08/05 07:52:00 BASE 24.41 19 27.42 19 -3.4 100 -3.4 0 0 965.3 NA 0.0000 -SN 9999 8330 10560 0 0
2019/08/05 07:53:00 BASE 23.71 18 27.42 19 -3.4 100 -3.4 0 0 965.4 NA 0.0000 -SN 9999 8370 10470 0 0
2019/08/05 07:54:00 BASE 23.19 16 27.42 19 -3.4 100 -3.5 0 0 965.4 NA 0.0000 -SN 9999 8370 10270 0 0
2019/08/05 07:55:00 BASE 23.14 17 27.42 19 -3.4 99 -3.5 0 0 965.4 NA 0.0000 -SN 9999 8300 0 0 0
2019/08/05 07:56:00 BASE 23.19 17 27.42 19 -3.5 99 -3.6 0 0 965.4 NA 0.0000 -SN 9999 8200 0 0 0
2019/08/05 07:57:00 BASE 23.56 18 27.42 19 -3.5 99 -3.7 0 0 965.4 NA 0.0000 -SN 9999 8170 10170 0 0
2019/08/05 07:58:00 BASE 24.33 20 27.42 19 -3.5 98 -3.7 0 0 965.3 NA 0.0000 -SN 9999 8140 10300 0 0
2019/08/05 07:59:00 BASE 23.73 20 27.37 23 -3.5 98 -3.7 0 0 965.4 NA 0.0000 -SN 9999 8170 10340 0 0
2019/08/05 08:00:00 BASE 23.01 19 26.85 15 -3.5 98 -3.8 0 0 965.4 NA 0.0000 -SN 9999 8170 10240 0 0
2019/08/05 08:01:00 BASE 23.16 19 26.34 24 -3.5 97 -3.8 0 0 965.4 NA 0.0000 -SN 9999 8170 10170 0 0
2019/08/05 08:02:00 BASE 24.05 20 26.44 18 -3.4 97 -3.8 0 0 965.4 NA 0.0000 -SN 9999 8040 0 0 0
2019/08/05 08:03:01 BASE 24.64 20 26.65 20 -3.4 97 -3.9 0 0 965.3 NA 0.0000 -SN 9999 8010 9970 0 0
2019/08/05 08:04:01 BASE 24.16 19 26.65 20 -3.4 97 -3.9 0 0 965.3 NA 0.0000 -SN 9999 9880 0 0 0
2019/08/05 08:05:00 BASE 24.10 19 26.65 20 -3.4 96 -3.9 0 0 965.3 NA 0.0000 -SN 9999 7940 9780 0 0
2019/08/05 08:06:00 BASE 24.77 20 27.83 25 -3.4 96 -3.9 0 0 965.3 NA 0.0000 -SN 9999 8040 9550 0 0
2019/08/05 08:07:00 BASE 25.38 21 27.83 25 -3.4 96 -3.9 0 0 965.3 NA 0.0000 -SN 9999 7940 0 0 0
2019/08/05 08:08:00 BASE 25.48 20 28.04 17 -3.4 96 -3.9 0 0 965.3 NA 0.0000 -SN 9999 7870 0 0 0
2019/08/05 08:09:00 BASE 25.44 20 28.04 17 -3.3 96 -3.9 0 0 965.3 NA 0.0000 -SN 9999 7910 0 0 0
2019/08/05 08:10:00 BASE 24.72 21 28.04 17 -3.3 96 -3.9 0 0 965.3 NA 0.0000 -SN 9999 7840 0 0 0
2019/08/05 08:11:00 BASE 24.62 21 28.04 17 -3.3 95 -3.9 0 0 965.3 NA 0.0000 -SN 9999 7840 0 0 0
2019/08/05 08:12:00 BASE 25.04 21 28.04 17 -3.3 95 -3.9 0 0 965.3 NA 0.0000 -SN 9999 5770 7840 0 0
2019/08/05 08:13:00 BASE 24.44 21 28.04 17 -3.3 95 -4.0 0 0 965.4 NA 0.0000 -SN 9999 5350 7870 0 0
2019/08/05 08:14:00 BASE 23.37 20 28.04 17 -3.3 95 -3.9 0 0 965.4 NA 0.0000 -SN 9999 5050 7840 0 0
2019/08/05 08:15:00 BASE 23.40 19 28.04 17 -3.3 95 -3.9 0 0 965.3 NA 0.0000 -SN 9999 4990 7810 0 0
2019/08/05 08:16:00 BASE 24.61 19 28.04 17 -3.2 95 -3.9 0 0 965.3 NA 0.0000 -SN 9999 5020 7780 0 0
2019/08/05 08:17:00 BASE 25.06 20 28.04 17 -3.2 95 -3.9 0 0 965.3 NA 0.0000 -SN 9999 4920 7640 0 0
2019/08/05 08:18:00 BASE 24.08 21 27.21 22 -3.2 95 -3.9 0 0 965.4 NA 0.0000 -SN 9999 4720 5910 0 0
2019/08/05 08:19:00 BASE 23.93 21 26.85 23 -3.2 95 -4.0 0 0 965.3 NA 0.0000 -SN 9999 4660 5910 7640 0
2019/08/05 08:20:00 BASE 24.39 21 26.85 23 -3.2 94 -4.0 0 0 965.3 NA 0.0000 -SN 9999 4630 6000 0 0
2019/08/05 08:21:00 BASE 24.00 20 26.85 23 -3.2 94 -4.0 0 0 965.4 NA 0.0000 -SN 9999 4560 5940 0 0
2019/08/05 08:22:00 BASE 23.44 20 26.85 23 -3.2 94 -4.0 0 0 965.4 NA 0.0000 -SN 9999 4660 5970 0 0
2019/08/05 08:23:00 BASE 23.11 21 26.85 23 -3.1 94 -4.0 0 0 965.4 NA 0.0000 -SN 9999 4760 9610 0 0
2019/08/05 08:24:00 BASE 22.98 22 26.85 23 -3.1 94 -4.0 0 0 965.4 NA 0.0000 -SN 9999 4820 9610 0 0
2019/08/05 08:25:00 BASE 22.43 22 26.85 23 -3.2 94 -4.0 0 0 965.4 NA 0.0000 -SN 9999 4720 9550 0 0
2019/08/05 08:26:00 BASE 21.79 22 26.85 23 -3.2 93 -4.1 0 0 965.4 NA 0.0000 -SN 9999 4660 9450 0 0
2019/08/05 08:27:00 BASE 21.32 21 26.75 22 -3.2 93 -4.2 0 0 965.4 NA 0.0000 -SN 9999 4660 9420 0 0
2019/08/05 08:28:00 BASE 21.61 22 26.75 22 -3.2 92 -4.2 0 0 965.4 NA 0.0000 9999 9580 0 0 0
2019/08/05 08:29:00 BASE 21.42 23 25.77 19 -3.2 92 -4.3 0 0 965.4 NA 0.0000 9999 9740 0 0 0
2019/08/05 08:30:00 BASE 20.33 23 25.21 22 -3.2 92 -4.3 0 0 965.4 NA 0.0000 9999 9420 0 0 0
2019/08/05 08:31:00 BASE 19.36 22 25.21 22 -3.1 91 -4.4 0 0 965.4 NA 0.2540 9999 9290 0 0 0
2019/08/05 08:32:00 BASE 19.30 24 25.21 22 -3.1 91 -4.4 0 0 965.4 NA 0.0000 9999 8690 0 0 0
2019/08/05 08:33:00 BASE 19.83 25 25.21 22 -3.1 90 -4.5 0 0 965.4 NA 0.0000 9999 7050 0 0 0
2019/08/05 08:34:00 BASE 20.60 23 25.21 22 -3.1 90 -4.5 0 0 965.4 NA 0.0000 9999 7550 0 0 0
2019/08/05 08:35:00 BASE 20.98 22 25.10 22 -3.1 90 -4.5 0 0 965.3 NA 0.0000 9999 7420 0 0 0
2019/08/05 08:36:00 BASE 21.30 21 25.10 22 -3.1 90 -4.5 0 0 965.3 NA 0.0000 9999 7870 0 0 0
2019/08/05 08:37:00 BASE 21.32 21 25.10 22 -3.1 90 -4.5 0 0 965.3 NA 0.0000 9999 7610 0 0 0
2019/08/05 08:38:00 BASE 20.01 22 25.10 22 -3.1 90 -4.5 0 0 965.4 NA 0.0000 9999 7420 0 0 0
2019/08/05 08:39:00 BASE 19.84 22 24.02 20 -3.1 90 -4.6 0 0 965.4 NA 0.0000 9999 4300 0 0 0
2019/08/05 08:40:00 BASE 19.37 23 24.02 20 -3.1 89 -4.6 0 0 965.4 NA 0.0000 9999 4490 0 0 0
2019/08/05 08:41:00 BASE 18.00 24 24.02 20 -3.1 89 -4.6 0 0 965.4 NA 0.0000 9999 4430 0 0 0
2019/08/05 08:42:00 BASE 18.20 22 24.02 20 -3.1 89 -4.6 0 0 965.4 NA 0.0000 9999 4300 0 0 0
2019/08/05 08:43:00 BASE 18.18 22 24.02 20 -3.1 89 -4.7 0 0 965.4 NA 0.0000 9999 4270 0 0 0
2019/08/05 08:44:00 BASE 18.13 22 24.02 20 -3.1 89 -4.7 0 0 965.2 NA 0.0000 9999 4270 0 0 0
2019/08/05 08:45:00 BASE 18.23 21 24.02 20 -3.1 89 -4.7 0 0 965.2 NA 0.0000 9999 4300 0 0 0
2019/08/05 08:46:00 BASE 19.33 22 24.02 20 -3.1 89 -4.7 0 0 965.1 NA 0.0000 9999 4170 0 0 0
2019/08/05 08:47:00 BASE 21.39 23 24.80 20 -3.1 89 -4.7 0 0 965.0 NA 0.0000 9999 4230 0 0 0
2019/08/05 08:48:00 BASE 22.87 21 28.40 19 -3.1 89 -4.7 0 0 964.9 NA 0.0000 9999 4690 0 0 0
2019/08/05 08:49:00 BASE 24.28 22 28.50 24 -3.1 89 -4.7 0 0 964.9 NA 0.0000 9999 4590 0 0 0
2019/08/05 08:50:00 BASE 24.52 23 28.50 24 -3.1 89 -4.7 0 0 964.9 NA 0.0000 -SN 9999 4590 0 0 0
2019/08/05 08:51:00 BASE 23.74 25 28.50 24 -3.1 89 -4.7 0 0 964.9 NA 0.0000 -SN 9999 4760 0 0 0
2019/08/05 08:52:00 BASE 22.38 28 28.50 24 -3.1 89 -4.7 0 0 964.9 NA 0.0000 -SN 9999 4920 5940 0 0
2019/08/05 08:53:00 BASE 21.86 28 28.50 24 -3.1 89 -4.7 0 0 964.9 NA 0.0000 -SN 9999 4950 5970 0 0
2019/08/05 08:54:00 BASE 22.72 26 28.50 24 -3.1 89 -4.7 0 0 964.9 NA 0.0000 -SN 9999 4860 0 0 0
2019/08/05 08:55:00 BASE 24.33 25 28.50 24 -3.1 89 -4.7 0 0 964.8 NA 0.0000 -SN 9999 5640 0 0 0
2019/08/05 08:56:00 BASE 24.99 24 28.50 24 -3.1 89 -4.7 0 0 964.9 NA 0.0000 -SN 9999 4590 5710 0 0
2019/08/05 08:57:00 BASE 24.45 22 28.50 24 -3.1 89 -4.7 0 0 964.8 NA 0.0000 -SN 9999 5770 0 0 0
2019/08/05 08:58:00 BASE 24.75 22 28.50 24 -3.1 89 -4.7 0 0 964.8 NA 0.0000 -SN 9999 5870 0 0 0
2019/08/05 08:59:00 BASE 24.74 23 28.40 22 -3.1 89 -4.7 0 0 964.8 NA 0.0000 -SN 9999 5680 6630 0 0
2019/08/05 09:00:00 BASE 24.71 22 29.27 20 -3.1 89 -4.7 0 0 964.9 NA 0.0000 -SN 9999 5480 6270 0 0
2019/08/05 09:01:00 BASE 24.63 23 29.27 20 -3.1 89 -4.7 0 0 964.9 NA 0.0000 -SN 9999 5410 6140 0 0
2019/08/05 09:02:00 BASE 24.34 24 29.27 20 -3.1 89 -4.7 0 0 964.9 NA 0.0000 -SN 9999 5380 6100 0 0
2019/08/05 09:03:00 BASE 24.06 27 29.27 20 -3.1 89 -4.7 0 0 964.9 NA 0.0000 -SN 9999 5350 5940 0 0
2019/08/05 09:04:00 BASE 22.34 29 29.27 20 -3.1 89 -4.7 0 0 965.0 NA 0.0000 -SN 9999 5280 6200 6690 0
2019/08/05 09:05:00 BASE 21.00 26 29.27 20 -3.1 88 -4.8 0 0 965.0 NA 0.0000 -SN 9999 5250 6200 0 0
2019/08/05 09:06:00 BASE 22.00 27 29.27 20 -3.1 88 -4.9 0 0 964.9 NA 0.0000 -SN 9999 5350 6330 0 0
2019/08/05 09:07:00 BASE 22.99 27 29.27 20 -3.2 88 -4.9 0 0 964.9 NA 0.0000 -SN 9999 5580 0 0 0
2019/08/05 09:08:00 BASE 23.06 28 29.27 20 -3.2 87 -5.0 0 0 964.9 NA 0.0000 -SN 9999 5510 0 0 0
2019/08/05 09:09:00 BASE 24.10 30 29.27 20 -3.2 87 -5.0 0 0 964.8 NA 0.0000 -SN 9999 5320 6070 0 0
2019/08/05 09:10:00 BASE 24.02 30 28.09 34 -3.1 87 -5.0 0 0 964.7 NA 0.0000 -SN 9999 5250 6230 0 0
2019/08/05 09:11:00 BASE 24.30 30 28.40 32 -3.1 87 -5.0 0 0 964.6 NA 0.0000 -SN 9999 5120 0 0 0
2019/08/05 09:12:00 BASE 25.81 30 29.68 34 -3.1 87 -5.0 0 0 964.5 NA 0.0000 -SN 9999 4170 0 0 0
2019/08/05 09:13:00 BASE 26.17 29 29.99 36 -3.2 87 -5.0 0 0 964.4 NA 0.0000 -SN 8000 5280 0 0 0
2019/08/05 09:14:00 BASE 27.01 28 30.20 32 -3.2 87 -5.0 0 0 964.4 NA 0.0000 -SN 6000 5380 6690 0 0
2019/08/05 09:15:00 BASE 26.75 28 30.20 32 -3.2 87 -5.0 0 0 964.4 NA 0.0000 -SN BR 5000 5810 0 0 0
2019/08/05 09:16:00 BASE 26.27 29 30.71 23 -3.2 87 -5.0 0 0 964.4 NA 0.0000 -SN BR 7000 6330 7220 0 0
2019/08/05 09:17:00 BASE 26.80 30 30.71 23 -3.2 87 -5.1 0 0 964.4 NA 0.0000 -SN BR 8000 7020 0 0 0
2019/08/05 09:18:00 BASE 27.52 31 30.76 35 -3.2 87 -5.1 0 0 964.3 NA 0.0000 -SN BR 7000 7190 9020 0 0
2019/08/05 09:19:00 BASE 27.06 31 30.76 35 -3.2 87 -5.1 0 0 964.4 NA 0.0000 -SN BR 9000 7090 0 0 0
2019/08/05 09:20:00 BASE 26.67 32 30.76 35 -3.2 87 -5.1 0 0 964.4 NA 0.0000 -SN BR 9000 6730 9060 0 0
2019/08/05 09:21:00 BASE 27.00 34 30.76 35 -3.3 87 -5.1 0 0 964.4 NA 0.0000 -SN BR 9000 8920 0 0 0
2019/08/05 09:22:00 BASE 26.71 34 30.76 35 -3.3 87 -5.2 0 0 964.4 NA 0.0000 -SN BR 7000 6820 8690 0 0
2019/08/05 09:23:00 BASE 26.64 34 30.76 35 -3.3 87 -5.3 0 0 964.4 NA 0.0000 -SN BR 7000 9120 0 0 0
2019/08/05 09:24:00 BASE 26.37 35 30.76 35 -3.4 86 -5.3 0 0 964.4 NA 0.0000 -SN BR 7000 7220 8890 0 0
2019/08/05 09:25:00 BASE 25.65 35 30.76 35 -3.4 86 -5.4 0 0 964.4 NA 0.0000 -SN BR 7000 5840 7050 0 0
2019/08/05 09:26:00 BASE 25.70 35 30.76 35 -3.4 86 -5.4 0 0 964.3 NA 0.0000 -SN BR 8000 5910 6690 0 0
2019/08/05 09:27:00 BASE 25.81 35 30.76 35 -3.4 86 -5.4 0 0 964.4 NA 0.0000 -SN BR 6000 5540 0 0 0
2019/08/05 09:28:00 BASE 25.37 33 30.25 31 -3.4 86 -5.4 0 0 964.3 NA 0.0000 -SN BR 6000 6400 0 0 0
2019/08/05 09:29:00 BASE 26.69 34 29.94 39 -3.4 86 -5.4 0 0 964.3 NA 0.0000 -SN BR 6000 5940 0 0 0
2019/08/05 09:30:00 BASE 26.62 36 29.94 39 -3.4 86 -5.4 0 0 964.3 NA 0.0000 -SN BR 7000 6370 0 0 0
2019/08/05 09:31:00 BASE 25.58 37 30.15 38 -3.4 86 -5.4 0 0 964.3 NA 0.0000 -SN BR 7000 6400 0 0 0
2019/08/05 09:32:00 BASE 25.68 38 30.15 38 -3.4 86 -5.5 0 0 964.3 NA 0.0000 -SN BR 7000 6140 0 0 0
2019/08/05 09:33:00 BASE 25.47 38 30.15 38 -3.5 86 -5.5 0 0 964.3 NA 0.0000 -SN BR 7000 6370 0 0 0
2019/08/05 09:34:00 BASE 25.22 38 30.15 38 -3.5 85 -5.6 0 0 964.2 NA 0.0000 -SN BR 6000 6590 8830 0 0
2019/08/05 09:35:00 BASE 26.35 38 30.20 30 -3.5 85 -5.6 0 0 964.2 NA 0.0000 -SN BR 6000 6660 8660 0 0
2019/08/05 09:36:00 BASE 27.32 38 30.20 30 -3.5 85 -5.7 0 0 964.1 NA 0.0000 -SN BR 6000 6560 8630 0 0
2019/08/05 09:37:00 BASE 26.44 38 30.20 30 -3.5 85 -5.7 0 0 964.2 NA 0.0000 -SN BR 6000 8560 0 0 0
2019/08/05 09:38:00 BASE 24.51 38 30.20 30 -3.5 84 -5.7 0 0 964.3 NA 0.0000 -SN 6000 12660 0 0 0
2019/08/05 09:39:00 BASE 24.69 39 30.20 30 -3.4 84 -5.8 0 0 964.2 NA 0.0000 -SN 6000 8560 12630 0 0
2019/08/05 09:40:00 BASE 25.81 40 30.20 30 -3.4 84 -5.8 0 0 964.1 NA 0.0000 HZ 6000 13650 0 0 0
2019/08/05 09:41:00 BASE 25.09 41 30.20 30 -3.4 83 -5.8 0 0 964.2 NA 0.0000 HZ 6000 8660 12530 0 0
2019/08/05 09:42:00 BASE 24.43 42 30.20 30 -3.4 83 -5.9 0 0 964.1 NA 0.0000 HZ 6000 8500 12530 0 0
2019/08/05 09:43:00 BASE 24.09 41 30.20 30 -3.4 83 -5.9 0 0 964.1 NA 0.0000 HZ 6000 8660 0 0 0
2019/08/05 09:44:00 BASE 23.83 41 30.20 30 -3.4 82 -6.0 0 0 964.1 NA 0.0000 HZ 6000 8560 0 0 0
2019/08/05 09:45:00 BASE 24.03 41 29.37 39 -3.4 82 -6.1 0 0 964.1 NA 0.0000 HZ 6000 8460 0 0 0
2019/08/05 09:46:00 BASE 24.25 41 29.12 34 -3.4 81 -6.1 0 0 964.1 NA 0.0000 HZ 6000 8530 0 0 0
2019/08/05 09:47:00 BASE 23.44 40 28.81 42 -3.4 81 -6.1 0 0 964.1 NA 0.0000 HZ 6000 8530 0 0 0
2019/08/05 09:48:00 BASE 22.50 40 28.81 42 -3.4 81 -6.2 0 0 964.1 NA 0.0000 HZ 6000 8630 0 0 0
2019/08/05 09:49:00 BASE 22.89 42 28.45 39 -3.4 81 -6.2 0 0 964.0 NA 0.0000 HZ 6000 8560 0 0 0
2019/08/05 09:50:00 BASE 23.37 40 28.45 39 -3.4 80 -6.2 0 0 964.0 NA 0.0000 -SN 6000 8530 0 0 0
2019/08/05 09:51:00 BASE 23.46 40 28.45 39 -3.4 80 -6.3 0 0 964.0 NA 0.0000 -SN 6000 8500 0 0 0
2019/08/05 09:52:00 BASE 23.60 41 28.45 39 -3.3 80 -6.3 0 0 964.0 NA 0.0000 -SN 6000 8400 0 0 0
2019/08/05 09:53:00 BASE 23.83 42 28.45 39 -3.3 79 -6.3 0 0 963.9 NA 0.0000 -SN 6000 8330 0 0 0
2019/08/05 09:54:00 BASE 23.75 42 28.45 39 -3.2 79 -6.3 0 0 963.9 NA 0.0000 -SN 6000 8200 0 0 0
2019/08/05 09:55:00 BASE 22.46 41 28.45 39 -3.2 79 -6.4 0 0 963.9 NA 0.0000 -SN 6000 8170 0 0 0
2019/08/05 09:56:00 BASE 21.89 39 28.45 39 -3.2 78 -6.4 0 0 963.9 NA 0.0000 -SN 6000 8140 0 0 0
2019/08/05 09:57:00 BASE 21.39 39 27.21 42 -3.2 78 -6.4 0 0 963.9 NA 0.0000 -SN 6000 8200 0 0 0
2019/08/05 09:58:00 BASE 23.03 38 27.21 42 -3.2 79 -6.4 0 0 963.8 NA 0.0000 HZ 7000 8200 0 0 0
2019/08/05 09:59:00 BASE 24.55 37 27.21 42 -3.2 79 -6.3 0 0 963.9 NA 0.0000 HZ 9000 8240 0 0 0
2019/08/05 10:00:00 BASE 22.99 40 27.21 42 -3.2 80 -6.2 0 0 963.9 NA 0.0000 HZ 9000 8200 0 0 0
2019/08/05 10:01:00 BASE 22.58 40 27.27 43 -3.1 80 -6.0 0 0 963.9 NA 0.0000 HZ 9999 8140 0 0 0
2019/08/05 10:02:00 BASE 22.37 39 27.27 43 -3.1 81 -5.9 0 0 963.9 NA 0.0000 HZ 9999 8070 0 0 0
2019/08/05 10:03:00 BASE 21.84 38 27.27 43 -3.0 81 -5.9 0 0 964.0 NA 0.0000 HZ 9999 8330 0 0 0
2019/08/05 10:04:00 BASE 21.94 39 27.27 43 -3.0 80 -5.9 0 0 964.0 NA 0.0000 HZ 9999 8300 0 0 0
2019/08/05 10:05:00 BASE 21.92 42 27.27 43 -3.0 80 -6.0 0 0 964.0 NA 0.0000 HZ 9999 8100 0 0 0
2019/08/05 10:06:00 BASE 22.62 41 27.27 43 -2.9 79 -6.1 0 0 963.9 NA 0.0000 HZ 9999 8040 0 0 0
2019/08/05 10:07:00 BASE 23.43 40 27.68 35 -2.9 78 -6.2 0 0 963.9 NA 0.0000 9999 8010 0 0 0
2019/08/05 10:08:00 BASE 23.32 39 27.68 35 -2.8 77 -6.3 0 0 964.0 NA 0.0000 9999 7970 0 0 0
2019/08/05 10:09:00 BASE 23.48 38 27.68 35 -2.8 76 -6.5 0 0 964.0 NA 0.0000 9999 7480 0 0 0
2019/08/05 10:10:00 BASE 22.35 38 27.68 35 -2.8 74 -6.7 0 0 964.1 NA 0.0000 9999 7610 0 0 0
2019/08/05 10:11:00 BASE 21.26 40 27.68 35 -2.7 73 -6.9 0 0 964.1 NA 0.0000 9999 7610 0 0 0
2019/08/05 10:12:00 BASE 20.99 43 27.68 35 -2.7 71 -7.1 0 0 964.1 NA 0.0000 9999 7250 7870 0 0
2019/08/05 10:13:00 BASE 20.44 42 27.68 35 -2.7 70 -7.4 0 0 964.2 NA 0.0000 9999 7120 0 0 0
2019/08/05 10:14:00 BASE 19.95 42 27.68 35 -2.7 69 -7.6 0 0 964.2 NA 0.0000 9999 7090 0 0 0
2019/08/05 10:15:00 BASE 19.40 42 27.68 35 -2.7 69 -7.7 0 0 964.2 NA 0.0000 9999 7190 0 0 0
2019/08/05 10:16:00 BASE 18.52 42 27.68 35 -2.8 68 -7.8 0 0 964.3 NA 0.0000 9999 7220 0 0 0
2019/08/05 10:17:00 BASE 17.96 43 26.91 36 -2.7 68 -7.9 0 0 964.3 NA 0.0000 9999 6860 0 0 0
2019/08/05 10:18:00 BASE 18.01 43 26.91 36 -2.7 67 -7.9 0 0 964.3 NA 0.0000 9999 6960 0 0 0
2019/08/05 10:19:00 BASE 16.93 46 25.05 39 -2.6 67 -7.9 0 0 964.4 NA 0.0000 9999 6500 0 0 0
2019/08/05 10:20:00 BASE 15.96 51 25.05 39 -2.5 66 -8.0 0 0 964.5 NA 0.0000 9999 6460 0 0 0
2019/08/05 10:21:00 BASE 15.11 53 25.05 39 -2.5 65 -8.1 0 0 964.5 NA 0.0000 9999 6330 0 0 0
2019/08/05 10:22:00 BASE 13.79 55 25.05 39 -2.5 65 -8.2 0 0 964.5 NA 0.0000 9999 6200 0 0 0
2019/08/05 10:23:00 BASE 13.60 56 22.38 43 -2.5 64 -8.3 0 0 964.5 NA 0.0000 9999 6170 6860 0 0
2019/08/05 10:24:00 BASE 14.54 56 22.38 43 -2.5 64 -8.4 0 0 964.5 NA 0.0000 9999 6230 0 0 0
2019/08/05 10:25:00 BASE 14.87 59 22.38 43 -2.5 64 -8.4 0 0 964.6 NA 0.0000 9999 6300 0 0 0
2019/08/05 10:26:00 BASE 14.21 67 21.40 42 -2.4 63 -8.5 0 0 964.7 NA 0.0000 9999 6270 0 0 0
2019/08/05 10:27:00 BASE 12.79 79 21.40 42 -2.3 63 -8.5 0 0 964.7 NA 0.0000 9999 6140 0 0 0
2019/08/05 10:28:00 BASE 10.88 92 18.06 51 -2.3 62 -8.7 0 0 964.8 NA 0.0000 9999 6140 0 0 0
2019/08/05 10:29:00 BASE 9.16 100 18.06 51 -2.3 61 -8.7 0 0 964.8 NA 0.0000 9999 6170 0 0 0
2019/08/05 10:30:00 BASE 7.63 106 17.18 54 -2.3 61 -8.8 0 0 964.8 NA 0.0000 9999 6140 0 0 0
2019/08/05 10:31:00 BASE 7.12 109 17.18 54 -2.4 61 -8.9 0 0 964.8 NA 0.0000 9999 6070 0 0 0
2019/08/05 10:32:00 BASE 6.73 118 17.18 54 -2.6 62 -8.9 0 0 964.8 NA 0.0000 9999 6000 0 0 0
2019/08/05 10:33:00 BASE 5.95 126 17.18 54 -2.7 63 -8.7 0 0 964.8 NA 0.0000 9999 5870 0 0 0
2019/08/05 10:34:00 BASE 6.02 121 16.67 70 -2.8 65 -8.5 0 0 964.8 NA 0.0000 9999 5840 0 0 0
2019/08/05 10:35:00 BASE 6.71 125 16.67 70 -2.9 67 -8.2 0 0 964.8 NA 0.0000 9999 5770 0 0 0
2019/08/05 10:36:00 BASE 6.60 129 15.23 87 -3.0 68 -8.0 0 0 964.8 NA 0.0000 9999 5740 0 0 0
2019/08/05 10:37:00 BASE 6.39 129 11.21 93 -3.0 69 -7.8 0 0 964.7 NA 0.0000 9999 5740 0 0 0
2019/08/05 10:38:00 BASE 6.89 133 10.49 101 -3.0 70 -7.7 0 0 964.7 NA 0.0000 9999 5680 0 0 0
2019/08/05 10:39:00 BASE 7.26 135 8.80 112 -3.0 70 -7.6 0 0 964.7 NA 0.0000 9999 5580 0 0 0
2019/08/05 10:40:00 BASE 7.26 139 8.90 138 -3.0 71 -7.6 0 0 964.6 NA 0.0000 9999 5580 0 0 0
2019/08/05 10:41:00 BASE 8.24 143 10.65 138 -3.0 71 -7.5 0 0 964.5 NA 0.0000 9999 5810 0 0 0
2019/08/05 10:42:00 BASE 9.99 143 11.32 144 -3.0 72 -7.3 0 0 964.5 NA 0.0000 9999 5910 0 0 0
2019/08/05 10:43:00 BASE 11.22 147 13.17 158 -3.0 72 -7.3 0 0 964.3 NA 0.0000 9999 6070 0 0 0
2019/08/05 10:44:00 BASE 12.92 152 14.76 156 -3.0 72 -7.2 0 0 964.2 NA 0.0000 9999 6070 0 0 0
2019/08/05 10:45:00 BASE 13.73 157 14.76 156 -2.9 72 -7.2 0 0 964.1 NA 0.0000 9999 6070 0 0 0
2019/08/05 10:46:00 BASE 13.20 158 14.76 156 -2.9 72 -7.2 0 0 964.1 NA 0.0000 9999 5840 0 0 0
2019/08/05 10:47:00 BASE 12.37 158 14.76 156 -2.9 72 -7.2 0 0 964.0 NA 0.0000 9999 5870 0 0 0
2019/08/05 10:48:00 BASE 12.59 159 14.76 156 -2.9 72 -7.2 0 0 964.1 NA 0.0000 9999 5870 0 0 0
2019/08/05 10:49:00 BASE 13.16 155 14.76 156 -2.9 73 -7.1 0 0 964.1 NA 0.0000 9999 5870 0 0 0
2019/08/05 10:50:00 BASE 13.72 151 16.10 149 -2.9 73 -7.1 0 0 964.0 NA 0.0000 9999 5870 0 0 0
2019/08/05 10:51:00 BASE 14.78 150 17.44 158 -2.8 73 -7.0 0 0 963.9 NA 0.0000 9999 5910 0 0 0
2019/08/05 10:52:00 BASE 16.50 156 20.27 163 -2.7 73 -6.9 0 0 963.6 NA 0.0000 9999 5970 0 0 0
2019/08/05 10:53:00 BASE 19.01 168 21.61 182 -2.7 73 -6.8 0 0 963.3 NA 0.0000 9999 6170 0 0 0
2019/08/05 10:54:00 BASE 19.58 174 21.61 182 -2.7 74 -6.7 0 0 963.4 NA 0.0000 6000 6170 0 0 0
2019/08/05 10:55:00 BASE 16.98 172 21.61 182 -2.6 74 -6.7 0 0 963.5 NA 0.0000 UP 4100 6140 0 0 0
2019/08/05 10:56:00 BASE 15.27 164 21.61 182 -2.6 74 -6.6 0 0 963.5 NA 0.0000 UP 9999 6170 0 0 0
2019/08/05 10:57:00 BASE 15.66 161 21.61 182 -2.6 74 -6.6 0 0 963.4 NA 0.0000 UP 9999 6140 0 0 0
2019/08/05 10:58:00 BASE 16.00 159 21.61 182 -2.5 74 -6.5 0 0 963.4 NA 0.0000 UP 9999 6070 0 0 0
2019/08/05 10:59:00 BASE 17.19 153 21.61 182 -2.4 73 -6.5 0 0 963.3 NA 0.0000 UP 9999 4170 6100 0 0
2019/08/05 11:00:00 BASE 17.88 142 22.79 127 -2.3 72 -6.6 0 0 963.4 NA 0.0000 UP 9999 4070 0 0 0
2019/08/05 11:01:00 BASE 18.14 138 22.79 127 -2.2 71 -6.7 0 0 963.4 NA 0.0000 UP 9999 4200 6100 0 0
2019/08/05 11:02:00 BASE 19.40 139 25.16 133 -2.1 70 -6.9 0 0 963.4 NA 0.0000 UP 9999 3640 0 0 0
2019/08/05 11:03:00 BASE 20.42 132 25.16 133 -2.1 69 -7.1 0 0 963.4 NA 0.0000 UP 9000 3710 0 0 0
2019/08/05 11:04:00 BASE 17.24 127 25.16 133 -2.1 68 -7.2 0 0 963.6 NA 0.0000 UP 9999 3580 5740 0 0
2019/08/05 11:05:00 BASE 11.99 109 25.16 133 -2.1 67 -7.3 0 0 963.8 NA 0.0000 UP 9999 4070 0 0 0
2019/08/05 11:06:00 BASE 8.01 88 25.16 133 -2.0 66 -7.6 0 0 963.8 NA 0.0000 UP 9999 4230 0 0 0
2019/08/05 11:07:00 BASE 5.56 78 25.16 133 -2.0 65 -7.8 0 0 963.8 NA 0.0000 UP 9999 4170 0 0 0
2019/08/05 11:08:00 BASE 8.24 98 25.16 133 -1.9 63 -8.0 0 0 963.7 NA 0.0000 UP 9999 4170 6590 0 0
2019/08/05 11:09:00 BASE 9.69 116 25.16 133 -1.9 62 -8.2 0 0 963.9 NA 0.0000 UP 9000 4130 6690 0 0
2019/08/05 11:10:00 BASE 10.38 105 25.16 133 -2.0 62 -8.4 0 0 963.7 NA 0.0000 UP 9999 6860 0 0 0
2019/08/05 11:11:00 BASE 12.63 103 25.16 133 -2.1 63 -8.3 0 0 963.7 NA 0.0000 UP 9999 4130 7020 0 0
2019/08/05 11:12:00 BASE 14.11 106 24.33 123 -2.4 65 -8.1 0 0 963.7 NA 0.0000 9999 4230 6990 7610 0
2019/08/05 11:13:00 BASE 17.20 119 20.83 119 -2.6 67 -7.9 0 0 963.5 NA 0.0000 9999 7320 0 0 0
2019/08/05 11:14:00 BASE 18.60 131 20.83 119 -2.8 69 -7.6 0 0 963.4 NA 0.0000 9999 4040 7280 0 0
2019/08/05 11:15:00 BASE 18.10 139 20.83 119 -2.9 72 -7.3 0 0 963.3 NA 0.0000 9999 4070 7350 0 0
2019/08/05 11:16:00 BASE 16.71 141 20.83 119 -3.0 73 -7.1 0 0 963.4 NA 0.0000 9999 4100 0 0 0
2019/08/05 11:17:00 BASE 15.14 134 20.83 119 -3.0 75 -6.8 0 0 963.6 NA 0.0000 9999 4070 0 0 0
2019/08/05 11:18:00 BASE 15.38 131 20.83 119 -3.0 76 -6.6 0 0 963.5 NA 0.0000 9999 4070 0 0 0
2019/08/05 11:19:00 BASE 14.65 137 20.83 119 -3.0 77 -6.5 0 0 963.5 NA 0.0000 9999 4000 0 0 0
2019/08/05 11:20:00 BASE 12.97 131 20.83 119 -3.0 78 -6.4 0 0 963.6 NA 0.0000 9999 4070 0 0 0
2019/08/05 11:21:00 BASE 12.28 124 20.83 119 -3.0 78 -6.3 0 0 963.5 NA 0.0000 9999 4040 6760 0 0
2019/08/05 11:22:00 BASE 12.43 128 20.83 119 -3.0 79 -6.2 0 0 963.4 NA 0.0000 9999 3940 6790 0 0
2019/08/05 11:23:00 BASE 13.70 128 19.39 133 -3.1 79 -6.2 0 0 963.4 NA 0.0000 9999 4000 7510 0 0
2019/08/05 11:24:00 BASE 14.35 125 19.24 149 -3.1 79 -6.2 0 0 963.4 NA 0.0000 9999 3900 7250 0 0
2019/08/05 11:25:00 BASE 13.20 126 17.95 142 -3.2 80 -6.2 0 0 963.3 NA 0.0000 9999 3870 0 0 0
2019/08/05 11:26:00 BASE 12.28 124 17.95 142 -3.2 80 -6.2 0 0 963.4 NA 0.0000 9999 4200 7280 0 0
2019/08/05 11:27:00 BASE 14.52 120 17.95 142 -3.2 80 -6.2 0 0 963.3 NA 0.0000 9999 4430 7150 0 0
2019/08/05 11:28:00 BASE 15.53 121 17.08 119 -3.2 80 -6.2 0 0 963.3 NA 0.0000 9999 4040 0 0 0
2019/08/05 11:29:00 BASE 13.84 119 17.08 119 -3.2 80 -6.1 0 0 963.4 NA 0.0000 9999 3940 0 0 0
2019/08/05 11:30:00 BASE 12.47 109 17.08 119 -3.2 80 -6.1 0 0 963.5 NA 0.0000 9999 4330 0 0 0
2019/08/05 11:31:00 BASE 10.98 100 17.08 119 -3.2 80 -6.2 0 0 963.6 NA 0.0000 9999 4360 0 0 0
2019/08/05 11:32:00 BASE 10.73 95 17.08 119 -3.2 80 -6.2 0 0 963.6 NA 0.0000 9999 4490 5810 0 0
2019/08/05 11:33:00 BASE 11.82 95 17.08 119 -3.2 79 -6.3 0 0 963.6 NA 0.0000 9999 4490 5840 0 0
2019/08/05 11:34:00 BASE 12.26 106 17.08 119 -3.3 79 -6.4 0 0 963.5 NA 0.0000 9999 4530 6730 0 0
2019/08/05 11:35:00 BASE 12.02 115 17.08 119 -3.3 79 -6.5 0 0 963.4 NA 0.0000 9999 6790 0 0 0
2019/08/05 11:36:00 BASE 12.86 118 17.08 119 -3.4 79 -6.5 0 0 963.4 NA 0.0000 9999 6790 0 0 0
2019/08/05 11:37:00 BASE 13.60 120 15.43 120 -3.3 79 -6.5 0 0 963.4 NA 0.0000 9999 6590 0 0 0
2019/08/05 11:38:00 BASE 13.58 116 15.18 123 -3.3 78 -6.5 0 0 963.4 NA 0.0000 9999 6070 6560 0 0
2019/08/05 11:39:00 BASE 13.79 111 15.18 123 -3.3 78 -6.6 0 0 963.5 NA 0.0000 9999 6070 0 0 0
2019/08/05 11:40:00 BASE 13.96 112 15.18 123 -3.3 78 -6.6 0 0 963.3 NA 0.0000 9999 6070 0 0 0
2019/08/05 11:41:00 BASE 14.48 116 16.62 114 -3.3 77 -6.7 0 0 963.3 NA 0.0000 9999 6230 0 0 0
2019/08/05 11:42:00 BASE 14.50 112 16.62 114 -3.3 77 -6.8 0 0 963.4 NA 0.0000 9999 6500 0 0 0
2019/08/05 11:43:00 BASE 14.57 103 16.82 101 -3.4 77 -6.8 0 0 963.5 NA 0.0000 9999 6630 0 0 0
2019/08/05 11:44:00 BASE 15.59 101 17.49 98 -3.4 77 -6.8 0 0 963.5 NA 0.0000 9999 6630 0 0 0
2019/08/05 11:45:00 BASE 16.34 108 18.47 108 -3.4 77 -6.8 0 0 963.4 NA 0.0000 9999 6460 0 0 0
2019/08/05 11:46:00 BASE 16.06 120 18.47 108 -3.4 77 -6.8 0 0 963.3 NA 0.0000 9999 6370 0 0 0
2019/08/05 11:47:00 BASE 15.40 133 18.47 108 -3.4 77 -6.8 0 0 963.1 NA 0.0000 9999 6460 0 0 0
2019/08/05 11:48:00 BASE 16.89 143 21.45 151 -3.4 77 -6.8 0 0 962.7 NA 0.0000 9999 3380 6430 0 0
2019/08/05 11:49:00 BASE 19.86 146 23.56 144 -3.4 77 -6.8 0 0 962.4 NA 0.0000 6000 3610 0 0 0
2019/08/05 11:50:00 BASE 21.03 150 23.56 144 -3.4 77 -6.8 0 0 962.4 NA 0.0000 -SN 3200 3280 0 0 0
2019/08/05 11:51:00 BASE 18.85 146 23.56 144 -3.5 78 -6.8 0 0 962.8 NA 0.0000 -SN 4100 3280 3870 0 0
2019/08/05 11:52:00 BASE 15.23 108 23.56 144 -3.5 78 -6.7 0 0 963.2 NA 0.0000 -SN 5000 3580 0 0 0
2019/08/05 11:53:00 BASE 14.67 77 23.56 144 -3.5 79 -6.6 0 0 963.1 NA 0.0000 -SN 9999 3280 0 0 0
2019/08/05 11:54:00 BASE 14.83 81 23.56 144 -3.5 79 -6.5 0 0 963.2 NA 0.0000 -SN 9999 3540 0 0 0
2019/08/05 11:55:00 BASE 13.97 101 23.56 144 -3.4 79 -6.5 0 0 963.1 NA 0.0000 -SN 9999 5640 0 0 0
2019/08/05 11:56:00 BASE 13.34 118 23.56 144 -3.3 79 -6.4 0 0 963.1 NA 0.0000 -SN 9999 2950 6730 0 0
2019/08/05 11:57:00 BASE 12.56 118 23.56 144 -3.3 79 -6.4 0 0 963.2 NA 0.0000 -SN 9999 3970 7350 0 0
2019/08/05 11:58:00 BASE 13.89 109 23.56 144 -3.2 78 -6.5 0 0 963.2 NA 0.0000 -SN 9999 3640 0 0 0
2019/08/05 11:59:00 BASE 14.30 111 22.74 152 -3.2 78 -6.5 0 0 963.1 NA 0.0000 -SN 9999 3870 0 0 0
2019/08/05 12:00:00 BASE 15.43 116 20.94 154 -3.2 77 -6.6 0 0 962.8 NA 0.0000 9999 7350 0 0 0
2019/08/05 12:01:00 BASE 17.49 116 19.03 115 -3.2 77 -6.6 0 0 962.8 NA 0.0000 9999 7020 0 0 0
2019/08/05 12:02:00 BASE 16.35 122 19.03 115 -3.1 76 -6.7 0 0 962.8 NA 0.0000 9999 6990 0 0 0
2019/08/05 12:03:00 BASE 15.41 126 19.03 115 -3.1 76 -6.7 0 0 962.7 NA 0.0000 9999 3540 7150 0 0
2019/08/05 12:04:00 BASE 14.80 129 19.03 115 -3.1 76 -6.7 0 0 962.7 NA 0.0000 9999 3580 7090 0 0
2019/08/05 12:05:00 BASE 13.48 132 19.03 115 -3.1 76 -6.8 0 0 962.7 NA 0.0000 9999 6960 0 0 0
2019/08/05 12:06:00 BASE 13.64 134 19.03 115 -3.1 75 -6.8 0 0 962.6 NA 0.0000 9999 6590 0 0 0
2019/08/05 12:07:00 BASE 14.20 140 19.03 115 -3.1 76 -6.8 0 0 962.4 NA 0.0000 9999 6530 0 0 0
2019/08/05 12:08:00 BASE 14.23 138 19.03 115 -3.1 76 -6.8 0 0 962.5 NA 0.0000 9999 6460 0 0 0
2019/08/05 12:09:00 BASE 15.91 130 19.03 115 -3.1 76 -6.8 0 0 962.5 NA 0.0000 9999 6500 0 0 0
2019/08/05 12:10:00 BASE 17.09 135 18.47 116 -3.2 76 -6.8 0 0 962.3 NA 0.0000 9999 6530 0 0 0
2019/08/05 12:11:00 BASE 17.48 151 19.19 170 -3.2 76 -6.8 0 0 962.0 NA 0.0000 9999 6630 0 0 0
2019/08/05 12:12:00 BASE 17.12 154 19.19 170 -3.2 76 -6.8 0 0 962.2 NA 0.0000 9999 6560 0 0 0
2019/08/05 12:13:00 BASE 14.29 144 19.19 170 -3.2 77 -6.7 0 0 962.5 NA 0.0000 9999 6560 0 0 0
2019/08/05 12:14:00 BASE 12.13 136 19.19 170 -3.2 77 -6.6 0 0 962.6 NA 0.0000 9999 6590 0 0 0
2019/08/05 12:15:00 BASE 14.12 132 19.19 170 -3.2 77 -6.6 0 0 962.4 NA 0.0000 9999 6630 0 0 0
2019/08/05 12:16:00 BASE 16.06 129 19.19 170 -3.1 78 -6.5 0 0 962.4 NA 0.0000 9999 6790 0 0 0
2019/08/05 12:17:00 BASE 16.32 132 19.19 170 -3.1 78 -6.5 0 0 962.2 NA 0.0000 9999 6860 0 0 0
2019/08/05 12:18:00 BASE 15.76 138 19.19 170 -3.1 78 -6.5 0 0 962.2 NA 0.0000 9999 6990 0 0 0
2019/08/05 12:19:00 BASE 15.12 140 19.19 170 -3.2 77 -6.6 0 0 962.1 NA 0.0000 9999 7250 0 0 0
2019/08/05 12:20:00 BASE 16.38 134 19.19 170 -3.2 77 -6.6 0 0 962.2 NA 0.0000 9999 7120 0 0 0
2019/08/05 12:21:00 BASE 17.11 127 19.14 137 -3.3 77 -6.7 0 0 962.1 NA 0.0000 9999 7350 0 0 0
2019/08/05 12:22:00 BASE 17.96 124 19.75 126 -3.3 77 -6.8 0 0 962.0 NA 0.0000 9999 7150 0 0 0
2019/08/05 12:23:00 BASE 19.78 124 22.74 125 -3.4 77 -6.8 0 0 961.8 NA 0.0000 9999 7380 0 0 0
2019/08/05 12:24:00 BASE 21.85 130 25.05 139 -3.4 77 -6.9 1 0 961.4 NA 0.0000 9999 7580 0 0 0
2019/08/05 12:25:00 BASE 24.78 134 28.40 134 -3.5 77 -6.9 1 0 961.3 NA 0.0000 -SN 6000 7810 0 0 0
2019/08/05 12:26:00 BASE 24.85 137 28.40 134 -3.5 77 -6.9 1 0 961.4 NA 0.0000 -SN 6000 7870 0 0 0
2019/08/05 12:27:00 BASE 21.10 134 28.40 134 -3.6 78 -7.0 1 0 962.0 NA 0.0000 -SN 9999 8010 0 0 0
2019/08/05 12:28:00 BASE 19.06 121 28.40 134 -3.7 78 -7.0 1 0 962.2 NA 0.0000 -SN 9999 8200 0 0 0
2019/08/05 12:29:00 BASE 18.60 115 28.40 134 -3.7 78 -6.9 1 0 962.2 NA 0.0000 -SN 9999 8330 0 0 0
2019/08/05 12:30:00 BASE 18.08 118 28.40 134 -3.7 78 -6.9 1 0 962.2 NA 0.0000 -SN 9999 7610 0 0 0
2019/08/05 12:31:00 BASE 17.48 117 28.40 134 -3.7 79 -6.9 1 0 962.2 NA 0.0000 -SN 9999 7680 8830 0 0
2019/08/05 12:32:00 BASE 16.17 113 28.40 134 -3.7 79 -6.9 1 0 962.4 NA 0.0000 -SN 9999 8660 0 0 0
2019/08/05 12:33:00 BASE 16.07 114 28.40 134 -3.8 79 -6.9 1 0 962.3 NA 0.0000 -SN 9999 8990 0 0 0
2019/08/05 12:34:00 BASE 16.95 122 28.40 134 -3.8 79 -6.9 1 0 962.2 NA 0.0000 -SN 9999 7280 8200 0 0
2019/08/05 12:35:00 BASE 17.22 127 24.85 140 -3.8 79 -6.9 1 0 962.1 NA 0.0000 -SN 9999 6920 0 0 0
2019/08/05 12:36:00 BASE 16.27 132 20.22 141 -3.8 79 -7.0 1 0 962.2 NA 0.0000 -SN 9999 5510 7220 0 0
2019/08/05 12:37:00 BASE 14.64 130 19.75 110 -3.8 79 -6.9 1 0 962.3 NA 0.0000 9999 5840 0 0 0
2019/08/05 12:38:00 BASE 13.82 124 19.03 115 -3.8 79 -6.9 1 0 962.3 NA 0.0000 9999 5410 0 0 0
2019/08/05 12:39:00 BASE 12.95 119 19.03 115 -3.8 79 -6.9 2 0 962.4 NA 0.0000 9999 6630 0 0 0
2019/08/05 12:40:00 BASE 12.22 110 18.78 124 -3.8 79 -6.9 2 0 962.4 NA 0.0000 9999 7050 0 0 0
2019/08/05 12:41:00 BASE 11.64 106 18.78 124 -3.8 80 -6.8 2 0 962.4 NA 0.0000 9999 7380 0 0 0
2019/08/05 12:42:00 BASE 12.94 103 18.78 124 -3.7 80 -6.7 2 0 962.3 NA 0.0000 9999 6860 7940 0 0
2019/08/05 12:43:00 BASE 15.08 106 18.88 122 -3.6 80 -6.6 2 0 962.1 NA 0.0000 9999 7940 0 0 0
2019/08/05 12:44:00 BASE 18.67 115 25.67 130 -3.4 79 -6.5 2 0 961.8 NA 0.0000 9999 8070 0 0 0
2019/08/05 12:45:00 BASE 19.51 119 25.67 130 -3.2 78 -6.4 2 0 962.0 NA 0.0000 9999 8070 0 0 0
2019/08/05 12:46:00 BASE 17.89 115 25.67 130 -3.1 77 -6.5 2 0 962.0 NA 0.0000 9999 8240 0 0 0
2019/08/05 12:47:00 BASE 18.98 117 25.67 130 -3.0 76 -6.6 2 0 961.8 NA 0.0000 9999 7710 0 0 0
2019/08/05 12:48:00 BASE 19.76 127 25.67 130 -2.9 75 -6.7 2 0 961.6 NA 0.0000 9999 7120 7870 0 0
2019/08/05 12:49:00 BASE 21.66 140 28.71 162 -2.9 74 -6.9 2 0 961.2 NA 0.0000 -SN 4200 7280 0 0 0
2019/08/05 12:50:00 BASE 21.88 133 28.71 162 -3.0 73 -7.1 2 0 961.7 NA 0.0000 -SN 2100 7280 0 0 0
2019/08/05 12:51:00 BASE 19.64 121 28.71 162 -3.1 74 -7.1 3 0 961.8 NA 0.0000 -SN 2400 6760 0 0 0
2019/08/05 12:52:00 BASE 20.05 123 28.71 162 -3.1 74 -7.0 3 0 961.7 NA 0.0000 -SN 7000 7380 0 0 0
2019/08/05 12:53:00 BASE 20.78 123 28.71 162 -3.1 74 -7.1 3 0 961.7 NA 0.0000 -SN 7000 7420 0 0 0
2019/08/05 12:54:00 BASE 18.83 122 28.71 162 -3.2 75 -7.1 3 0 962.0 NA 0.0000 -SN 7000 6370 0 0 0
2019/08/05 12:55:00 BASE 16.86 121 28.71 162 -3.3 75 -7.2 3 0 962.1 NA 0.0000 -SN 9000 7250 0 0 0
2019/08/05 12:56:00 BASE 16.45 121 28.71 162 -3.4 75 -7.2 4 0 962.0 NA 0.0000 -SN 9999 7510 0 0 0
2019/08/05 12:57:00 BASE 17.44 128 28.71 162 -3.5 75 -7.3 4 0 961.8 NA 0.0000 -SN 9999 8170 0 0 0
2019/08/05 12:58:00 BASE 16.84 133 28.71 162 -3.6 76 -7.2 4 0 961.9 NA 0.0000 -SN 9999 8170 0 0 0
2019/08/05 12:59:00 BASE 16.20 126 23.72 118 -3.7 77 -7.2 4 0 961.8 NA 0.0000 -SN 9999 8100 8990 0 0
2019/08/05 13:00:00 BASE 18.16 124 23.72 118 -3.7 78 -7.0 4 0 961.6 NA 0.0000 HZ 9999 8100 0 0 0
2019/08/05 13:01:00 BASE 17.43 129 23.72 118 -3.7 78 -6.9 4 0 961.7 NA 0.0000 9999 7550 0 0 0
2019/08/05 13:02:00 BASE 15.48 130 22.38 123 -3.6 78 -6.8 4 0 961.7 NA 0.0000 9999 7610 0 0 0
2019/08/05 13:03:00 BASE 13.52 119 22.17 125 -3.6 79 -6.8 5 0 961.7 NA 0.0000 9999 7740 0 0 0
2019/08/05 13:04:00 BASE 12.11 106 22.17 125 -3.5 79 -6.6 5 0 961.7 NA 0.0000 9999 8040 0 0 0
2019/08/05 13:05:00 BASE 11.97 102 22.17 125 -3.3 79 -6.5 5 0 961.7 NA 0.0000 9999 8200 0 0 0
2019/08/05 13:06:00 BASE 11.53 105 22.17 125 -3.2 79 -6.4 5 0 961.8 NA 0.0000 9999 7580 0 0 0
2019/08/05 13:07:00 BASE 12.46 96 22.17 125 -3.0 78 -6.3 5 0 961.7 NA 0.0000 9999 7510 0 0 0
2019/08/05 13:08:00 BASE 14.07 72 22.17 125 -2.9 78 -6.3 5 0 961.6 NA 0.0000 9999 7510 9060 0 0
2019/08/05 13:09:00 BASE 16.27 61 22.74 56 -2.8 77 -6.3 5 0 961.6 NA 0.0000 9999 9120 12110 0 0
2019/08/05 13:10:00 BASE 17.74 61 22.74 56 -2.8 76 -6.5 5 0 961.5 NA 0.0000 9999 9380 11910 0 0
2019/08/05 13:11:00 BASE 18.24 62 22.74 56 -2.8 75 -6.6 5 0 961.5 NA 0.0000 9999 8730 0 0 0
2019/08/05 13:12:00 BASE 18.02 62 22.74 56 -2.9 75 -6.7 5 0 961.5 NA 0.0000 9999 7320 8560 0 0
2019/08/05 13:13:00 BASE 17.54 57 22.74 56 -2.9 74 -6.9 6 0 961.5 NA 0.0000 9999 8760 0 0 0
2019/08/05 13:14:00 BASE 18.57 55 23.00 54 -2.9 74 -6.9 6 0 961.5 NA 0.0000 5000 8790 0 0 0
2019/08/05 13:15:00 BASE 19.72 65 24.08 65 -3.0 74 -7.0 6 0 961.5 NA 0.0000 6000 9350 0 0 0
2019/08/05 13:16:00 BASE 20.36 71 25.21 75 -3.0 74 -7.0 7 0 961.5 NA 0.0000 HZ 9999 12300 0 0 0
2019/08/05 13:17:00 BASE 20.26 75 25.21 75 -3.0 74 -7.0 7 0 961.6 NA 0.0000 -SN 9999 8790 11250 0 0
2019/08/05 13:18:00 BASE 17.66 87 25.21 75 -3.0 74 -7.0 7 0 961.6 NA 0.0000 -SN 9999 8530 0 0 0
2019/08/05 13:19:00 BASE 15.81 94 25.21 75 -3.1 74 -7.1 8 0 961.6 NA 0.0000 -SN 9999 10200 0 0 0
2019/08/05 13:20:00 BASE 15.46 98 25.21 75 -3.2 74 -7.1 9 0 961.7 NA 0.0000 -SN 9999 0 0 0 1800
2019/08/05 13:21:00 BASE 14.87 106 25.21 75 -3.3 74 -7.2 10 0 961.6 NA 0.0000 -SN 9999 8270 10270 0 0
2019/08/05 13:22:00 BASE 15.24 114 25.21 75 -3.4 75 -7.2 11 0 961.5 NA 0.0000 -SN 9999 8460 9450 0 0
2019/08/05 13:23:00 BASE 15.43 114 25.21 75 -3.5 75 -7.2 12 0 961.5 NA 0.0000 -SN 9999 8760 0 0 0
2019/08/05 13:24:00 BASE 14.15 109 25.21 75 -3.5 76 -7.2 12 0 961.7 NA 0.0000 -SN 9999 9090 0 0 0
2019/08/05 13:25:00 BASE 13.50 107 25.21 75 -3.5 76 -7.1 12 0 961.7 NA 0.0000 -SN 9999 8790 0 0 0
2019/08/05 13:26:00 BASE 12.96 107 21.81 84 -3.4 75 -7.1 11 0 961.7 NA 0.0000 -SN 9999 8070 0 0 0
2019/08/05 13:27:00 BASE 11.00 106 19.81 94 -3.4 75 -7.2 12 0 961.7 NA 0.0000 9999 7220 0 0 0
2019/08/05 13:28:00 BASE 9.44 118 19.29 79 -3.3 74 -7.2 14 0 961.6 NA 0.0000 9999 0 0 0 820
2019/08/05 13:29:00 BASE 9.04 116 19.14 115 -3.2 74 -7.2 17 0 961.5 NA 0.0000 9999 0 0 0 1250
2019/08/05 13:30:00 BASE 9.80 97 19.14 115 -3.2 73 -7.3 19 0 961.6 NA 0.0000 9999 7120 0 0 0
2019/08/05 13:31:00 BASE 11.34 92 19.14 115 -3.1 73 -7.2 22 0 961.5 NA 0.0000 9999 7020 0 0 0
2019/08/05 13:32:00 BASE 12.45 95 17.34 106 -3.0 73 -7.1 24 0 961.5 NA 0.0000 -SN 9999 7740 0 0 0
2019/08/05 13:33:00 BASE 14.33 95 19.34 98 -2.8 73 -7.0 26 0 961.3 NA 0.0000 -SN 9999 8010 0 0 0
2019/08/05 13:34:00 BASE 15.94 98 19.34 98 -2.7 73 -6.8 27 0 961.3 NA 0.0000 -SN 9999 8070 0 0 0
2019/08/05 13:35:00 BASE 18.39 108 23.51 115 -2.7 73 -6.8 25 0 961.1 NA 0.0000 -SN 9999 7610 0 0 0
2019/08/05 13:36:00 BASE 21.41 117 23.51 115 -2.8 73 -6.9 23 0 961.0 NA 0.0000 -SN 9999 7510 0 0 0
2019/08/05 13:37:00 BASE 22.45 121 24.80 126 -3.0 74 -7.1 21 0 960.8 NA 0.0000 -SN 9999 7450 0 0 0
2019/08/05 13:38:00 BASE 22.91 129 24.80 126 -3.3 74 -7.3 19 0 960.5 NA 0.0000 -SN 9999 7380 0 0 0
2019/08/05 13:39:00 BASE 22.80 135 24.80 126 -3.5 74 -7.5 17 0 960.4 NA 0.0000 -SN 9999 7220 0 0 0
2019/08/05 13:40:00 BASE 22.43 138 24.80 126 -3.7 75 -7.6 16 0 960.4 NA 0.0000 -SN 9999 7280 0 0 0
2019/08/05 13:41:00 BASE 20.93 135 24.80 126 -3.8 75 -7.5 15 0 960.6 NA 0.0000 -SN 9999 6820 0 0 0
2019/08/05 13:42:00 BASE 20.44 133 24.80 126 -3.7 76 -7.4 14 0 960.4 NA 0.0000 -SN 9999 7120 0 0 0
2019/08/05 13:43:00 BASE 19.79 135 24.80 126 -3.7 76 -7.3 13 0 960.6 NA 0.0000 -SN 9999 7280 0 0 0
2019/08/05 13:44:00 BASE 18.33 130 24.80 126 -3.7 76 -7.3 13 0 960.6 NA 0.0000 -SN 9999 7350 0 0 0
2019/08/05 13:45:00 BASE 18.99 126 24.80 126 -3.7 77 -7.2 12 0 960.6 NA 0.0000 -SN 9999 7380 0 0 0
2019/08/05 13:46:00 BASE 20.25 122 24.80 126 -3.8 77 -7.2 12 0 960.6 NA 0.0000 -SN 9999 7350 0 0 0
2019/08/05 13:47:00 BASE 21.73 123 24.64 128 -3.8 77 -7.2 12 0 960.4 NA 0.0000 -SN 9999 8920 0 0 0
2019/08/05 13:48:00 BASE 22.05 121 26.19 119 -3.8 78 -7.1 12 0 960.6 NA 0.0000 -SN 9999 7090 0 0 0
2019/08/05 13:49:00 BASE 20.27 113 26.19 119 -3.7 78 -7.0 13 0 960.8 NA 0.0000 -SN 9999 7020 0 0 0
2019/08/05 13:50:00 BASE 18.75 111 26.19 119 -3.7 78 -6.9 13 0 960.9 NA 0.0000 9999 6890 0 0 0
2019/08/05 13:51:00 BASE 18.49 110 26.19 119 -3.7 78 -6.9 14 0 960.9 NA 0.0000 9999 6960 0 0 0
2019/08/05 13:52:00 BASE 16.76 112 26.19 119 -3.6 78 -6.9 15 0 960.9 NA 0.0000 9999 6860 0 0 0
2019/08/05 13:53:00 BASE 14.02 115 26.19 119 -3.6 78 -6.9 16 0 960.9 NA 0.0000 9999 6890 0 0 0
2019/08/05 13:54:00 BASE 12.20 116 26.19 119 -3.7 78 -6.9 17 0 960.9 NA 0.0000 9999 8300 0 0 0
2019/08/05 13:55:00 BASE 11.34 113 26.19 119 -3.7 78 -6.9 19 0 960.9 NA 0.0000 9999 8400 0 0 0
2019/08/05 13:56:00 BASE 11.17 109 26.19 119 -3.6 78 -6.8 20 0 960.9 NA 0.0000 9999 6500 0 0 0
2019/08/05 13:57:00 BASE 12.87 107 26.19 119 -3.5 79 -6.7 23 0 960.9 NA 0.0000 9999 6920 0 0 0
2019/08/05 13:58:00 BASE 15.25 107 21.76 109 -3.4 79 -6.6 26 0 960.8 NA 0.0000 9999 7020 0 0 0
2019/08/05 13:59:00 BASE 14.05 104 21.66 113 -3.4 79 -6.5 27 0 960.9 NA 0.0000 9999 7090 0 0 0
2019/08/05 14:00:00 BASE 11.49 103 19.45 105 -3.4 79 -6.5 29 0 960.9 NA 0.0000 9999 7090 0 0 0
2019/08/05 14:01:00 BASE 11.37 98 18.26 116 -3.4 79 -6.5 29 0 960.8 NA 0.0000 9999 7280 9020 0 0
2019/08/05 14:02:00 BASE 12.60 102 18.21 87 -3.3 79 -6.4 28 0 960.8 NA 0.0000 9999 7220 8920 0 0
2019/08/05 14:03:00 BASE 14.67 112 18.21 87 -3.2 79 -6.4 27 0 960.7 NA 0.0000 9999 7640 8300 0 0
2019/08/05 14:04:00 BASE 16.93 116 21.09 124 -3.2 79 -6.4 26 0 960.6 NA 0.0000 9999 7320 8660 0 0
2019/08/05 14:05:00 BASE 17.75 115 21.09 124 -3.3 79 -6.4 25 0 960.6 NA 0.0000 9999 7280 8270 0 0
2019/08/05 14:06:00 BASE 16.46 111 21.09 124 -3.3 79 -6.5 24 0 960.7 NA 0.0000 9999 7640 0 0 0
2019/08/05 14:07:00 BASE 14.38 110 21.09 124 -3.4 79 -6.6 23 0 960.6 NA 0.0000 9999 7420 0 0 0
2019/08/05 14:08:00 BASE 13.39 112 21.09 124 -3.5 79 -6.6 23 0 960.6 NA 0.0000 9999 8500 0 0 0
2019/08/05 14:09:00 BASE 13.41 112 21.09 124 -3.4 79 -6.5 24 0 960.6 NA 0.0000 9999 8690 0 0 0
2019/08/05 14:10:00 BASE 12.72 113 21.09 124 -3.4 79 -6.5 25 0 960.5 NA 0.0000 9999 10700 0 0 0
2019/08/05 14:11:00 BASE 12.62 114 21.09 124 -3.4 79 -6.5 27 0 960.5 NA 0.0000 9999 10560 0 0 0
2019/08/05 14:12:00 BASE 12.35 112 21.09 124 -3.3 79 -6.5 28 0 960.5 NA 0.0000 9999 0 0 0 1610
2019/08/05 14:13:00 BASE 12.50 114 21.09 124 -3.3 79 -6.4 30 0 960.4 NA 0.0000 9999 11220 0 0 0
2019/08/05 14:14:00 BASE 12.81 116 19.39 109 -3.3 79 -6.5 31 0 960.5 NA 0.0000 9999 11390 0 0 0
2019/08/05 14:15:00 BASE 11.01 116 17.29 109 -3.3 79 -6.5 33 0 960.4 NA 0.0000 9999 10990 0 0 0
2019/08/05 14:16:00 BASE 10.07 117 16.62 110 -3.3 79 -6.5 35 0 960.4 NA 0.0000 9999 11220 0 0 0
2019/08/05 14:17:00 BASE 10.63 112 16.62 110 -3.2 79 -6.4 37 0 960.3 NA 0.0000 9999 0 0 0 1250
2019/08/05 14:18:00 BASE 11.46 109 16.62 110 -3.1 79 -6.3 38 0 960.4 NA 0.0000 9999 0 0 0 1120
2019/08/05 14:19:00 BASE 12.73 114 16.62 110 -3.0 79 -6.1 37 0 960.3 NA 0.0000 9999 0 0 0 1250
2019/08/05 14:20:00 BASE 12.71 115 16.62 110 -2.9 79 -6.1 36 0 960.3 NA 0.0000 9999 0 0 0 0
2019/08/05 14:21:00 BASE 11.19 113 16.62 110 -2.8 79 -6.0 35 0 960.3 NA 0.0000 9999 11680 0 0 0
2019/08/05 14:22:00 BASE 12.14 114 16.62 110 -2.8 78 -6.0 35 0 960.3 NA 0.0000 9999 10890 0 0 0
2019/08/05 14:23:00 BASE 12.55 115 16.15 113 -2.8 78 -6.1 35 0 960.3 NA 0.0000 9999 11480 0 0 0
2019/08/05 14:24:00 BASE 10.55 117 16.15 113 -2.9 78 -6.2 35 0 960.3 NA 0.0000 9999 0 0 0 590
2019/08/05 14:25:00 BASE 10.82 108 16.26 87 -2.9 78 -6.2 34 0 960.3 NA 0.0000 9999 0 0 0 920
2019/08/05 14:26:00 BASE 11.72 104 16.26 87 -2.8 78 -6.2 32 0 960.4 NA 0.0000 UP 9999 0 0 0 1050
2019/08/05 14:27:00 BASE 12.22 111 16.26 87 -2.8 78 -6.2 30 0 960.3 NA 0.0000 UP 9999 0 0 0 1310
2019/08/05 14:28:00 BASE 12.88 119 16.26 87 -2.9 78 -6.2 28 0 960.3 NA 0.0000 UP 9999 0 0 0 1380
2019/08/05 14:29:00 BASE 11.64 122 16.26 87 -2.9 78 -6.2 25 0 960.3 NA 0.0000 UP 9999 7740 0 0 0
2019/08/05 14:30:00 BASE 11.36 113 16.26 87 -2.9 78 -6.2 24 0 960.3 NA 0.0000 UP 9999 7680 0 0 0
2019/08/05 14:31:00 BASE 12.19 106 17.44 91 -2.9 79 -6.1 22 0 960.2 NA 0.0000 UP 9999 9580 0 0 0
2019/08/05 14:32:00 BASE 11.87 109 17.44 91 -2.9 79 -6.0 22 0 960.3 NA 0.0000 UP 9999 9550 0 0 0
2019/08/05 14:33:00 BASE 11.81 116 17.44 91 -2.8 79 -5.9 22 0 960.3 NA 0.0000 UP 9999 0 0 0 1280
2019/08/05 14:34:00 BASE 11.09 118 17.44 91 -2.8 79 -5.8 22 0 960.3 NA 0.0000 UP 9999 0 0 0 1480
2019/08/05 14:35:00 BASE 10.76 115 17.44 91 -2.8 79 -5.8 22 0 960.2 NA 0.0000 UP 9999 0 0 0 1510
2019/08/05 14:36:00 BASE 11.63 118 17.44 91 -2.9 79 -6.0 22 0 960.1 NA 0.0000 UP 9999 0 0 0 1510
2019/08/05 14:37:00 BASE 11.65 119 17.44 91 -3.0 79 -6.2 22 0 960.1 NA 0.0000 UP 9999 0 0 0 1610
2019/08/05 14:38:00 BASE 11.90 119 17.44 91 -3.1 79 -6.2 23 0 960.0 NA 0.0000 UP 9999 9220 0 0 0
2019/08/05 14:39:00 BASE 13.05 121 17.44 91 -3.1 79 -6.2 23 0 959.9 NA 0.0000 UP 9999 7710 0 0 0
2019/08/05 14:40:00 BASE 14.15 117 17.44 91 -3.1 79 -6.2 24 0 959.9 NA 0.0000 UP 9999 7780 0 0 0
2019/08/05 14:41:00 BASE 14.05 115 16.46 124 -3.1 79 -6.2 24 0 959.9 NA 0.0000 UP 9999 8460 0 0 0
2019/08/05 14:42:00 BASE 14.27 117 18.83 110 -3.1 79 -6.2 25 0 959.8 NA 0.0000 UP 9999 8270 0 0 0
2019/08/05 14:43:00 BASE 14.29 117 18.83 110 -3.1 79 -6.2 25 0 959.8 NA 0.0000 UP 9999 6690 0 0 0
2019/08/05 14:44:00 BASE 13.38 114 18.83 110 -3.1 80 -6.1 25 0 959.8 NA 0.0000 UP 9999 6920 0 0 0
2019/08/05 14:45:00 BASE 13.87 114 18.83 110 -3.1 79 -6.1 25 0 959.8 NA 0.0000 UP 9999 6920 0 0 0
2019/08/05 14:46:00 BASE 15.39 115 19.14 107 -3.0 79 -6.1 25 0 959.8 NA 0.0000 UP 9999 7280 0 0 0
2019/08/05 14:47:00 BASE 15.00 118 19.14 107 -3.0 79 -6.2 25 0 959.8 NA 0.0000 UP 9999 7510 0 0 0
2019/08/05 14:48:00 BASE 14.86 118 19.14 107 -3.1 79 -6.3 25 0 959.7 NA 0.0000 UP 9999 7610 0 0 0
2019/08/05 14:49:00 BASE 15.99 115 19.14 107 -3.1 78 -6.4 24 0 959.8 NA 0.0000 UP 9999 0 0 0 2100
2019/08/05 14:50:00 BASE 15.77 116 19.75 120 -3.2 78 -6.5 24 0 959.8 NA 0.0000 UP 9999 2000 0 0 0
2019/08/05 14:51:00 BASE 15.59 113 19.75 120 -3.3 78 -6.5 23 0 959.9 NA 0.0000 UP 9999 1870 0 0 0
2019/08/05 14:52:00 BASE 14.22 111 19.75 120 -3.3 78 -6.5 23 0 959.9 NA 0.0000 UP 9999 2000 0 0 0
2019/08/05 14:53:00 BASE 14.02 113 19.75 120 -3.3 79 -6.5 22 0 959.8 NA 0.0000 UP 9999 0 0 0 2130
2019/08/05 14:54:00 BASE 13.23 115 19.75 120 -3.3 79 -6.4 22 0 959.8 NA 0.0000 UP 9999 24250 0 0 0
2019/08/05 14:55:00 BASE 10.25 112 19.75 120 -3.3 79 -6.3 22 0 959.8 NA 0.0000 -SN 9000 0 0 0 2030
2019/08/05 14:56:00 BASE 9.50 81 19.75 120 -3.2 80 -6.2 22 0 959.8 NA 0.0000 -SN 6000 0 0 0 1940
2019/08/05 14:57:00 BASE 13.32 55 23.30 61 -2.9 80 -5.9 22 0 959.6 NA 0.0000 -SN 4300 0 0 0 2030
2019/08/05 14:58:00 BASE 18.69 52 23.30 61 -2.6 81 -5.5 21 0 959.5 NA 0.0000 -SN SQ 3200 0 0 0 1900
2019/08/05 14:59:00 BASE 19.83 49 23.30 61 -2.3 81 -5.2 20 0 959.5 NA 0.0000 -SN SQ 3200 0 0 0 1940
2019/08/05 15:00:00 BASE 19.07 49 23.30 61 -2.0 81 -4.9 21 0 959.4 NA 0.0000 -SN 2300 0 0 0 1900
2019/08/05 15:01:00 BASE 20.39 48 24.13 48 -1.8 81 -4.7 21 0 959.3 NA 0.0000 -SN 1900 0 0 0 2170
2019/08/05 15:02:00 BASE 22.07 47 24.90 49 -1.8 81 -4.6 22 0 959.2 NA 0.0000 -SN 1900 0 0 0 1970
2019/08/05 15:03:00 BASE 22.67 49 25.21 54 -1.8 81 -4.5 22 0 959.2 NA 0.0000 -SN 1900 0 0 0 2070
2019/08/05 15:04:00 BASE 22.83 49 27.01 45 -1.8 82 -4.5 22 0 959.2 NA 0.0000 -SN 1800 0 0 0 2430
2019/08/05 15:05:00 BASE 22.92 48 27.01 45 -1.8 82 -4.4 21 0 959.2 NA 0.0000 -SN 2300 0 0 0 2230
2019/08/05 15:06:00 BASE 22.93 48 27.01 45 -1.8 83 -4.4 21 0 959.1 NA 0.0000 -SN 2800 0 0 0 2200
2019/08/05 15:07:00 BASE 22.56 49 27.01 45 -1.8 83 -4.3 20 0 959.1 NA 0.0000 -SN 2400 0 0 0 2690
2019/08/05 15:08:00 BASE 23.12 50 27.16 44 -1.8 83 -4.2 20 0 959.1 NA 0.0000 -SN 2900 0 0 0 3480
2019/08/05 15:09:00 BASE 23.71 49 27.47 50 -1.8 84 -4.2 20 0 959.0 NA 0.0000 -SN 3900 0 0 0 3670
2019/08/05 15:10:00 BASE 23.91 48 27.47 50 -1.8 84 -4.1 19 0 959.0 NA 0.0000 -SN 3300 0 0 0 3220
2019/08/05 15:11:00 BASE 24.20 47 27.47 50 -1.7 84 -4.1 19 0 959.0 NA 0.0000 -SN 2000 0 0 0 3180
2019/08/05 15:12:00 BASE 24.23 49 27.47 50 -1.7 84 -4.1 20 0 959.0 NA 0.0000 -SN 1400 0 0 0 2620
2019/08/05 15:13:00 BASE 24.16 50 27.47 50 -1.8 84 -4.1 21 0 959.0 NA 0.0000 -SN 1400 0 0 0 2690
2019/08/05 15:14:00 BASE 24.11 50 28.14 49 -1.8 84 -4.1 21 0 959.0 NA 0.0000 -SN 1400 0 0 0 2950
2019/08/05 15:15:00 BASE 23.48 51 28.14 49 -1.8 84 -4.1 20 0 959.0 NA 0.0000 -SN 1400 0 0 0 2590
2019/08/05 15:16:00 BASE 22.60 51 28.14 49 -1.8 85 -4.1 20 0 959.0 NA 0.0000 -SN 1400 0 0 0 1940
2019/08/05 15:17:00 BASE 22.54 49 28.14 49 -1.9 85 -4.1 20 0 958.9 NA 0.0000 -SN BR 1300 0 0 0 1480
2019/08/05 15:18:00 BASE 23.16 51 28.14 49 -1.9 85 -4.0 21 0 958.9 NA 0.0000 -SN BR 1500 0 0 0 1310
2019/08/05 15:19:00 BASE 23.06 51 28.14 49 -1.9 85 -4.0 21 0 958.8 NA 0.0000 -SN BR 1600 0 0 0 1480
2019/08/05 15:20:00 BASE 24.01 50 28.14 49 -1.9 86 -4.0 21 0 958.8 NA 0.0000 -SN BR 1500 0 0 0 1570
2019/08/05 15:21:00 BASE 25.90 51 28.19 51 -1.9 86 -4.0 21 0 958.8 NA 0.0000 -SN BR 1700 0 0 0 1840
2019/08/05 15:22:00 BASE 25.95 52 28.40 50 -1.9 86 -3.9 20 0 958.7 NA 0.0000 -SN BR 1800 0 0 0 2070
2019/08/05 15:23:00 BASE 25.86 50 28.55 47 -2.0 87 -3.9 21 0 958.7 NA 0.0000 -SN BR 1800 0 0 0 2360
2019/08/05 15:24:00 BASE 25.55 49 28.55 55 -2.0 87 -3.9 22 0 958.7 NA 0.0000 -SN BR 1700 0 0 0 2920
2019/08/05 15:25:00 BASE 25.16 50 28.55 55 -2.0 87 -3.8 23 0 958.7 NA 0.0000 -SN BR 1800 0 0 0 3150
2019/08/05 15:26:00 BASE 24.73 50 28.55 55 -2.0 87 -3.8 22 0 958.7 NA 0.0000 -SN BR 1800 0 0 0 3280
2019/08/05 15:27:00 BASE 24.01 50 28.55 55 -2.0 88 -3.8 22 0 958.7 NA 0.0000 -SN BR 1700 0 0 0 3450
2019/08/05 15:28:00 BASE 24.74 51 28.55 55 -2.0 88 -3.7 22 0 958.7 NA 0.0000 -SN BR 1600 0 0 0 2260
2019/08/05 15:29:00 BASE 24.56 51 28.55 55 -2.0 88 -3.6 21 0 958.8 NA 0.0000 -SN BR 1300 0 0 0 1800
2019/08/05 15:30:00 BASE 23.83 52 28.55 55 -2.0 89 -3.6 21 0 958.8 NA 0.0000 -SN BR 1100 0 0 0 1800
2019/08/05 15:31:00 BASE 23.58 53 28.55 55 -2.0 89 -3.5 19 0 958.8 NA 0.0000 -SN BR 0900 0 0 0 1670
2019/08/05 15:32:00 BASE 23.66 55 28.55 55 -2.0 90 -3.5 19 0 958.8 NA 0.0000 -SN BR 0600 0 0 0 1150
2019/08/05 15:33:00 BASE 24.39 55 28.55 55 -2.0 90 -3.5 20 0 958.8 NA 0.0000 -SN BR 0550 0 0 0 1280
2019/08/05 15:34:00 BASE 24.35 55 28.19 50 -2.1 91 -3.4 20 0 958.8 NA 0.0000 SN BR 0800 0 0 0 1410
2019/08/05 15:35:00 BASE 23.61 55 28.19 50 -2.1 91 -3.3 22 0 958.9 NA 0.0000 +SN BR 1000 0 0 0 1380
2019/08/05 15:36:00 BASE 22.23 56 28.19 50 -2.1 92 -3.2 24 0 958.9 NA 0.0000 +SN BR 0800 0 0 0 1380
2019/08/05 15:37:00 BASE 20.54 54 28.19 50 -2.1 93 -3.2 26 0 959.0 NA 0.0000 SN BR 1000 0 0 0 1150
2019/08/05 15:38:00 BASE 20.55 54 26.65 55 -2.2 93 -3.1 28 0 959.0 NA 0.0000 SN FZFG 0900 0 0 0 1120
2019/08/05 15:39:00 BASE 21.68 55 26.65 55 -2.2 94 -3.1 30 0 959.0 NA 0.0000 SN FZFG 0650 0 0 0 1020
2019/08/05 15:40:00 BASE 22.13 56 26.65 55 -2.2 94 -3.0 32 0 958.9 NA 0.0000 SN FZFG 0600 0 0 0 980
2019/08/05 15:41:00 BASE 21.91 56 26.65 55 -2.3 95 -2.9 33 0 958.9 NA 0.0000 SN FZFG 0550 0 0 0 1020
2019/08/05 15:42:00 BASE 22.61 56 26.44 53 -2.3 96 -2.9 33 0 958.9 NA 0.0000 SN FZFG 0550 0 0 0 950
2019/08/05 15:43:00 BASE 23.55 53 27.57 58 -2.3 96 -2.8 32 0 958.9 NA 0.0000 SN FZFG 0600 0 0 0 950
2019/08/05 15:44:00 BASE 24.56 51 27.57 53 -2.3 97 -2.7 29 0 958.8 NA 0.0000 SN FZFG 0650 0 0 0 920
2019/08/05 15:45:00 BASE 24.92 51 27.57 53 -2.3 97 -2.7 26 0 958.9 NA 0.0000 +SN FZFG 0600 0 0 0 950
2019/08/05 15:46:00 BASE 23.54 53 27.57 53 -2.3 98 -2.6 23 0 958.9 NA 0.0000 +SN FZFG 0600 0 0 0 1050
2019/08/05 15:47:00 BASE 22.76 53 27.57 53 -2.3 98 -2.5 19 0 958.9 NA 0.0000 +SN FZFG 0550 0 0 0 950
2019/08/05 15:48:00 BASE 23.11 55 27.57 53 -2.3 99 -2.5 16 0 958.9 NA 0.0000 +SN FZFG 0550 0 0 0 950
2019/08/05 15:49:00 BASE 22.86 56 27.57 53 -2.3 99 -2.5 14 0 958.9 NA 0.0000 +SN FZFG 0550 0 0 0 950
2019/08/05 15:50:00 BASE 22.61 55 27.57 53 -2.4 99 -2.4 12 0 958.9 NA 0.0000 +SN FZFG 0550 0 0 0 850
2019/08/05 15:51:00 BASE 23.01 54 27.57 53 -2.4 100 -2.4 12 0 958.8 NA 0.0000 +SN FZFG 0600 0 0 0 750
2019/08/05 15:52:00 BASE 23.31 53 27.57 53 -2.4 100 -2.5 12 0 958.8 NA 0.0000 +SN FZFG 0350 0 0 0 790
2019/08/05 15:53:00 BASE 24.70 55 27.68 58 -2.4 100 -2.4 12 0 958.7 NA 0.0000 +SN FZFG 0200 0 0 0 920
2019/08/05 15:54:00 BASE 25.24 55 27.68 58 -2.5 100 -2.5 14 0 958.8 NA 0.0000 +SN FZFG 0200 0 0 0 850
2019/08/05 15:55:00 BASE 24.67 56 27.68 58 -2.5 100 -2.5 17 0 958.8 NA 0.0000 -SN FZFG 0200 0 0 0 950
2019/08/05 15:56:00 BASE 24.01 56 27.68 58 -2.5 100 -2.5 20 0 958.8 NA 0.0000 -SN FZFG 0250 0 0 0 1150
2019/08/05 15:57:00 BASE 23.27 57 27.68 58 -2.5 100 -2.5 24 0 958.9 NA 0.0000 -SN FZFG 0300 0 0 0 1350
2019/08/05 15:58:00 BASE 23.54 60 27.68 58 -2.5 100 -2.5 29 0 958.9 NA 0.0000 -SN FZFG 0400 0 0 0 1380
2019/08/05 15:59:00 BASE 24.41 61 27.68 58 -2.5 100 -2.5 35 0 958.9 NA 0.0000 -SN FZFG 0400 0 0 0 1310
2019/08/05 16:00:00 BASE 24.48 60 27.68 58 -2.5 100 -2.5 46 0 958.9 NA 0.0000 -SN FZFG 0200 0 0 0 1210
2019/08/05 16:01:00 BASE 23.96 61 27.68 58 -2.5 100 -2.5 59 0 958.9 NA 0.0000 UP FZFG 0200 0 0 0 1540
2019/08/05 16:02:00 BASE 23.57 63 27.68 58 -2.5 100 -2.5 68 0 958.9 NA 0.0000 UP FZFG 0250 0 0 0 1840
2019/08/05 16:03:00 BASE 22.63 65 26.91 51 -2.5 100 -2.5 71 0 958.9 NA 0.0000 -SN FZFG 0500 0 0 0 2070
2019/08/05 16:04:00 BASE 21.10 67 26.55 59 -2.5 100 -2.5 67 0 959.0 NA 0.0000 SN FZFG 1100 0 0 0 3020
2019/08/05 16:05:00 BASE 21.09 66 26.55 59 -2.5 100 -2.5 65 0 959.0 NA 0.0000 SN FZFG 0900 0 0 0 1710
2019/08/05 16:06:00 BASE 20.94 63 26.55 59 -2.5 100 -2.5 65 0 959.0 NA 0.0000 SN FZFG 0750 0 0 0 1710
2019/08/05 16:07:00 BASE 18.93 62 26.55 59 -2.5 100 -2.5 66 0 959.1 NA 0.0000 +SN FZFG 0900 0 0 0 2000
2019/08/05 16:08:00 BASE 17.29 65 26.55 59 -2.4 100 -2.4 68 0 959.1 NA 0.0000 +SN FZFG 0800 0 0 0 2130
2019/08/05 16:09:00 BASE 16.44 68 25.46 53 -2.4 100 -2.4 70 0 959.1 NA 0.0000 +SN FZFG 0900 0 0 0 2130
2019/08/05 16:10:00 BASE 16.53 62 25.05 63 -2.3 100 -2.3 72 0 959.1 NA 0.0000 -SN FZFG 1600 330 0 0 0
2019/08/05 16:11:00 BASE 16.01 43 25.05 63 -2.3 100 -2.3 74 0 959.1 NA 0.0000 -SN FZFG 2600 0 0 0 5090
2019/08/05 16:12:00 BASE 16.66 32 24.49 61 -2.2 100 -2.2 74 0 959.0 NA 0.2540 -SN BR 5000 0 0 0 5150
2019/08/05 16:13:00 BASE 18.65 34 24.49 61 -2.0 100 -2.0 73 0 958.9 NA 0.0000 -SN BR 9999 3640 0 0 0
2019/08/05 16:14:00 BASE 18.23 33 24.49 61 -1.9 100 -1.9 73 0 958.9 NA 0.0000 -SN BR 9999 3740 0 0 0
2019/08/05 16:15:00 BASE 18.73 30 23.51 32 -1.8 100 -1.8 74 0 958.9 NA 0.0000 -SN BR 9999 4530 0 0 0
2019/08/05 16:16:00 BASE 20.46 28 25.00 39 -1.7 100 -1.7 78 0 958.7 NA 0.0000 -SN BR 9999 4330 0 0 0
2019/08/05 16:17:00 BASE 21.57 25 25.72 17 -1.6 99 -1.7 85 0 958.6 NA 0.0000 -SN BR 9999 4100 22670 0 0
2019/08/05 16:18:00 BASE 21.82 25 25.72 17 -1.6 99 -1.8 87 0 958.6 NA 0.0000 -SN BR 9999 4430 0 0 0
2019/08/05 16:19:00 BASE 21.15 29 25.72 17 -1.6 98 -1.9 89 0 958.6 NA 0.0000 -SN BR 9999 4230 0 0 0
2019/08/05 16:20:00 BASE 19.93 29 25.72 17 -1.6 97 -2.0 91 0 958.7 NA 0.0000 -SN BR 9999 4820 0 0 0
2019/08/05 16:21:00 BASE 18.72 25 25.72 17 -1.6 97 -2.0 94 0 958.7 NA 0.0000 -SN 8000 4590 0 0 0
2019/08/05 16:22:00 BASE 20.48 25 26.34 35 -1.6 96 -2.1 99 0 958.7 NA 0.0000 -SN 6000 4460 0 0 0
2019/08/05 16:23:00 BASE 22.62 27 26.34 35 -1.6 96 -2.2 105 0 958.6 NA 0.0000 -SN 7000 5220 0 0 0
2019/08/05 16:24:00 BASE 23.81 27 27.37 28 -1.6 96 -2.2 111 0 958.6 NA 0.0000 -SN BR 7000 5380 0 0 0
2019/08/05 16:25:00 BASE 23.86 28 28.14 38 -1.6 95 -2.3 116 0 958.7 NA 0.0000 -SN BR 6000 5280 0 0 0
2019/08/05 16:26:00 BASE 22.39 27 28.14 38 -1.7 95 -2.3 120 0 958.7 NA 0.0000 -SN BR 6000 4950 0 0 0
2019/08/05 16:27:00 BASE 20.99 28 28.14 38 -1.7 95 -2.4 127 0 958.8 NA 0.0000 -SN BR 7000 4130 0 0 0
2019/08/05 16:28:00 BASE 20.27 29 28.14 38 -1.7 95 -2.4 129 0 958.8 NA 0.0000 -SN BR 7000 5150 0 0 0
2019/08/05 16:29:00 BASE 20.68 28 28.14 38 -1.7 95 -2.5 133 0 958.7 NA 0.0000 -SN BR 9000 4460 0 0 0
2019/08/05 16:30:00 BASE 21.42 30 28.14 38 -1.8 94 -2.6 136 0 958.6 NA 0.0000 -SN BR 9999 4630 0 0 0
2019/08/05 16:31:00 BASE 21.62 28 28.14 38 -1.8 94 -2.6 138 0 958.6 NA 0.0000 -SN BR 9000 4490 0 0 0
2019/08/05 16:32:00 BASE 22.35 24 28.14 38 -1.8 93 -2.8 137 0 958.5 NA 0.0000 -SN BR 9999 4360 0 0 0
2019/08/05 16:33:00 BASE 24.13 20 28.14 38 -1.8 93 -2.8 132 0 958.5 NA 0.0000 -SN BR 9999 4330 0 0 0
2019/08/05 16:34:00 BASE 24.07 21 28.14 38 -1.8 92 -2.9 122 0 958.5 NA 0.0000 -SN BR 9999 4300 0 0 0
2019/08/05 16:35:00 BASE 23.12 21 27.52 17 -1.8 92 -3.0 111 0 958.4 NA 0.0000 -SN BR 9999 3080 4630 0 0
2019/08/05 16:36:00 BASE 22.43 24 26.60 30 -1.8 91 -3.1 104 0 958.4 NA 0.0000 -SN BR 9999 2590 21750 0 0
2019/08/05 16:37:00 BASE 24.63 29 31.28 23 -1.9 91 -3.2 99 0 958.2 NA 0.0000 -SN 9000 3120 0 0 0
2019/08/05 16:38:00 BASE 26.99 30 31.28 23 -1.9 90 -3.3 98 0 958.2 NA 0.0000 -SN 7000 0 0 0 790
2019/08/05 16:39:00 BASE 26.67 28 31.28 23 -1.9 90 -3.4 98 0 958.2 NA 0.0000 -SN BR 7000 3150 0 0 0
2019/08/05 16:40:00 BASE 26.11 25 31.28 23 -2.0 90 -3.5 94 0 958.2 NA 0.0000 -SN BR 8000 3150 0 0 0
2019/08/05 16:41:00 BASE 25.97 22 31.28 23 -2.0 89 -3.5 86 0 958.2 NA 0.0000 -SN BR 9000 3870 0 0 0
2019/08/05 16:42:00 BASE 26.42 21 31.28 23 -2.0 89 -3.6 79 0 958.1 NA 0.0000 -SN BR 9999 3250 0 0 0
2019/08/05 16:43:00 BASE 27.95 21 31.74 23 -2.0 89 -3.6 73 0 957.9 NA 0.0000 -SN BR 9999 21420 0 0 0
2019/08/05 16:44:00 BASE 28.64 23 32.46 20 -2.0 88 -3.6 69 0 958.0 NA 0.0000 -SN BR 9999 0 0 0 750
2019/08/05 16:45:00 BASE 26.80 24 32.46 20 -1.9 88 -3.7 65 0 958.1 NA 0.2540 -SN BR 9999 2660 0 0 0
2019/08/05 16:46:00 BASE 26.58 25 32.46 20 -1.9 88 -3.7 63 0 958.0 NA 0.0000 -SN BR 9999 2070 0 0 0
2019/08/05 16:47:00 BASE 28.15 26 32.46 20 -1.9 87 -3.7 61 0 958.0 NA 0.0000 -SN BR 9999 0 0 0 620
2019/08/05 16:48:00 BASE 27.97 26 32.46 20 -1.9 87 -3.8 59 0 958.0 NA 0.0000 -SN BR 9999 0 0 0 620
2019/08/05 16:49:00 BASE 28.56 26 34.11 29 -1.9 87 -3.8 57 0 958.0 NA 0.0000 -SN 8000 0 0 0 520
2019/08/05 16:50:00 BASE 29.02 26 34.11 29 -1.8 86 -3.8 56 0 958.1 NA 0.0000 -SN 7000 0 0 0 590
2019/08/05 16:51:00 BASE 26.20 24 34.11 29 -1.8 86 -3.8 56 0 958.2 NA 0.0000 -SN 9000 1740 0 0 0
2019/08/05 16:52:00 BASE 25.63 23 34.11 29 -1.8 86 -3.8 56 0 958.1 NA 0.0000 -SN BR 9999 0 0 0 660
2019/08/05 16:53:00 BASE 27.47 26 34.11 29 -1.8 86 -3.8 54 0 957.9 NA 0.0000 -SN BR 9999 0 0 0 390
2019/08/05 16:54:00 BASE 28.77 29 34.11 29 -1.8 86 -3.8 51 0 957.9 NA 0.0000 -SN BR 9999 0 0 0 260
2019/08/05 16:55:00 BASE 28.69 27 34.11 29 -1.8 86 -3.8 48 0 958.1 NA 0.0000 -SN 9999 4430 0 0 0
2019/08/05 16:56:00 BASE 26.61 25 34.11 29 -1.8 87 -3.7 45 0 958.2 NA 0.0000 -SN 9999 4100 0 0 0
2019/08/05 16:57:00 BASE 24.92 24 34.11 29 -1.8 87 -3.7 42 0 958.1 NA 0.0000 -SN 9999 2590 6660 0 0
2019/08/05 16:58:00 BASE 25.66 24 34.11 29 -1.8 87 -3.7 39 0 958.0 NA 0.0000 -SN 9999 4360 6630 0 0
2019/08/05 16:59:00 BASE 27.75 27 33.75 34 -1.8 87 -3.7 37 0 957.9 NA 0.0000 -SN 9999 6140 0 0 0
2019/08/05 17:00:00 BASE 28.45 27 33.75 34 -1.8 87 -3.7 35 0 957.9 NA 0.0000 -SN 9999 4230 6230 0 0
2019/08/05 17:01:00 BASE 27.32 24 33.75 34 -1.8 87 -3.7 34 0 958.0 NA 0.0000 -SN 9999 1280 0 0 0
2019/08/05 17:02:00 BASE 25.39 27 33.75 34 -1.8 87 -3.6 35 0 958.2 NA 0.0000 -SN 9999 6270 0 0 0
2019/08/05 17:03:00 BASE 21.47 31 33.75 34 -1.7 87 -3.6 37 0 958.4 NA 0.0000 -SN 9999 6300 0 0 0
2019/08/05 17:04:00 BASE 21.05 31 33.75 34 -1.7 88 -3.5 37 0 958.2 NA 0.0000 9999 3900 6200 0 0
2019/08/05 17:05:00 BASE 24.64 27 33.75 34 -1.7 88 -3.5 36 0 958.1 NA 0.0000 9999 3710 6820 0 0
2019/08/05 17:06:00 BASE 24.33 26 33.75 34 -1.8 88 -3.5 34 0 958.3 NA 0.0000 9999 6590 0 0 0
2019/08/05 17:07:00 BASE 23.09 29 33.75 34 -1.8 88 -3.5 33 0 958.2 NA 0.0000 9999 4040 6630 0 0
2019/08/05 17:08:00 BASE 24.66 33 33.75 34 -1.8 88 -3.5 31 0 958.1 NA 0.0000 9999 6330 0 0 0
2019/08/05 17:09:00 BASE 27.21 31 31.90 27 -1.7 88 -3.5 30 0 957.9 NA 0.0000 9999 6230 0 0 0
2019/08/05 17:10:00 BASE 28.06 28 31.90 27 -1.7 87 -3.6 30 0 958.1 NA 0.0000 9999 5680 0 0 0
2019/08/05 17:11:00 BASE 23.90 25 31.90 27 -1.7 87 -3.6 30 0 958.4 NA 0.0000 9999 5610 0 0 0
2019/08/05 17:12:00 BASE 17.45 23 31.90 27 -1.7 86 -3.7 31 0 958.5 NA 0.0000 9999 4820 0 0 0
2019/08/05 17:13:00 BASE 18.52 23 31.90 27 -1.7 86 -3.7 32 0 958.3 NA 0.0000 9999 2360 6270 0 0
2019/08/05 17:14:00 BASE 23.24 25 31.90 27 -1.6 86 -3.7 34 0 958.1 NA 0.0000 9999 5120 6200 0 0
2019/08/05 17:15:00 BASE 24.35 30 31.90 27 -1.6 85 -3.7 35 0 958.2 NA 0.0000 9999 6630 0 0 0
2019/08/05 17:16:00 BASE 24.80 33 31.90 27 -1.5 85 -3.7 35 0 958.3 NA 0.0000 9999 4330 0 0 0
2019/08/05 17:17:00 BASE 24.72 30 34.67 23 -1.5 84 -3.8 35 0 958.3 NA 0.0000 9999 4300 0 0 0
2019/08/05 17:18:00 BASE 17.77 41 34.67 23 -1.4 84 -3.8 34 0 958.6 NA 0.0000 9999 6040 0 0 0
2019/08/05 17:19:00 BASE 11.81 40 34.67 23 -1.4 83 -3.9 33 0 958.7 NA 0.0000 9999 4130 5680 0 0
2019/08/05 17:20:00 BASE 15.95 30 34.67 23 -1.5 83 -4.0 34 0 958.6 NA 0.0000 9999 5320 0 0 0
2019/08/05 17:21:00 BASE 19.74 31 34.67 23 -1.4 82 -4.0 41 0 958.4 NA 0.0000 9999 4530 0 0 0
2019/08/05 17:22:00 BASE 20.20 35 34.67 23 -1.4 82 -4.0 40 0 958.6 NA 0.0000 9999 3970 0 0 0
2019/08/05 17:23:00 BASE 20.74 35 34.67 23 -1.3 82 -4.0 35 0 958.7 NA 0.0000 9999 4270 0 0 0
2019/08/05 17:24:00 BASE 20.74 33 34.67 23 -1.2 81 -4.0 32 0 958.9 NA 0.0000 9999 4200 0 0 0
2019/08/05 17:25:00 BASE 12.90 36 34.67 23 -1.2 81 -4.1 31 0 959.1 NA 0.0000 9999 3870 0 0 0
2019/08/05 17:26:00 BASE 4.64 23 34.67 23 -1.2 80 -4.1 31 0 959.1 NA 0.0000 9999 4130 0 0 0
2019/08/05 17:27:00 BASE 3.29 201 28.14 27 -1.2 79 -4.4 30 0 959.2 NA 0.0000 9999 4430 0 0 0
2019/08/05 17:28:00 BASE 2.78 237 28.14 27 -1.3 79 -4.5 28 0 959.3 NA 0.0000 9999 2790 4490 0 0
2019/08/05 17:29:00 BASE 2.62 334 28.14 27 -1.3 78 -4.6 26 0 959.4 NA 0.0000 9999 2790 4430 0 0
2019/08/05 17:30:00 BASE 1.83 338 28.14 27 -1.3 78 -4.6 26 0 959.4 NA 0.0000 9999 2990 0 0 0
2019/08/05 17:31:00 BASE 1.49 294 28.14 27 -1.4 78 -4.8 26 0 959.4 NA 0.0000 9999 3020 0 0 0
2019/08/05 17:32:00 BASE 1.62 134 28.14 27 -1.6 78 -4.9 26 0 959.3 NA 0.0000 9999 2460 0 0 0
2019/08/05 17:33:00 BASE 2.35 262 28.14 27 -1.7 78 -5.1 26 0 959.3 NA 0.0000 9999 2300 0 0 0
2019/08/05 17:34:00 BASE 3.90 275 8.85 50 -1.9 78 -5.2 27 0 959.2 NA 0.0000 9999 2170 3940 0 0
2019/08/05 17:35:00 BASE 3.88 272 7.72 253 -2.0 78 -5.3 26 0 959.2 NA 0.0000 9999 2070 3220 0 0
2019/08/05 17:36:00 BASE 3.43 266 7.72 253 -2.1 79 -5.3 26 0 959.1 NA 0.0000 9999 1710 0 0 0
2019/08/05 17:37:00 BASE 3.76 255 7.72 253 -2.0 79 -5.2 26 0 959.1 NA 0.0000 9999 3020 0 0 0
2019/08/05 17:38:00 BASE 4.07 238 7.72 253 -2.0 79 -5.1 27 0 959.2 NA 0.0000 9999 2100 0 0 0
2019/08/05 17:39:00 BASE 3.71 200 7.72 253 -2.0 79 -5.1 28 0 959.2 NA 0.0000 9999 2490 0 0 0
2019/08/05 17:40:00 BASE 3.23 173 7.72 253 -2.0 80 -5.1 28 0 959.2 NA 0.0000 9999 2590 0 0 0
2019/08/05 17:41:00 BASE 5.85 55 11.06 38 -2.0 80 -5.0 28 0 959.1 NA 0.0000 9999 2100 0 0 0
2019/08/05 17:42:00 BASE 7.65 45 11.06 38 -1.9 80 -4.8 29 0 959.0 NA 0.0000 9999 2360 3410 21520 0
2019/08/05 17:43:00 BASE 5.87 56 11.06 38 -1.8 81 -4.7 31 0 959.0 NA 0.0000 9999 2530 3450 0 0
2019/08/05 17:44:00 BASE 4.12 42 11.06 38 -1.7 81 -4.6 34 0 959.0 NA 0.0000 9999 2560 0 0 0
2019/08/05 17:45:00 BASE 3.32 356 11.06 38 -1.7 81 -4.5 37 0 959.0 NA 0.0000 9999 4690 0 0 0
2019/08/05 17:46:00 BASE 3.46 18 11.06 38 -1.6 81 -4.5 40 0 958.9 NA 0.0000 9999 4270 0 0 0
2019/08/05 17:47:00 BASE 5.06 71 11.06 38 -1.6 81 -4.5 42 0 958.9 NA 0.0000 9999 2300 0 0 0
2019/08/05 17:48:00 BASE 4.92 83 11.06 38 -1.6 81 -4.5 43 0 958.9 NA 0.0000 9999 3450 6400 0 0
2019/08/05 17:49:00 BASE 2.66 67 11.06 38 -1.6 81 -4.4 42 0 958.9 NA 0.0000 9999 3410 0 0 0
2019/08/05 17:50:00 BASE 2.23 60 11.06 38 -1.6 81 -4.4 41 0 958.8 NA 0.0000 9999 6820 0 0 0
2019/08/05 17:51:00 BASE 2.96 44 9.62 109 -1.6 81 -4.4 41 0 958.7 NA 0.0000 9999 4490 0 0 0
2019/08/05 17:52:00 BASE 5.58 44 10.03 35 -1.6 81 -4.5 41 0 958.7 NA 0.0000 9999 0 0 0 4590
2019/08/05 17:53:00 BASE 8.54 81 10.75 80 -1.6 80 -4.5 41 0 958.8 NA 0.0000 9999 1410 0 0 0
2019/08/05 17:54:00 BASE 6.63 110 10.75 80 -1.7 80 -4.6 40 0 958.9 NA 0.0000 9999 4040 0 0 0
2019/08/05 17:55:00 BASE 4.41 61 10.75 80 -1.7 80 -4.6 38 0 958.9 NA 0.0000 9999 2400 7050 0 0
2019/08/05 17:56:00 BASE 5.38 65 10.75 80 -1.7 80 -4.6 35 0 958.7 NA 0.0000 9999 7280 0 0 0
2019/08/05 17:57:00 BASE 4.88 129 10.75 80 -1.7 80 -4.6 31 0 958.8 NA 0.0000 9999 7420 0 0 0
2019/08/05 17:58:00 BASE 3.88 145 10.75 80 -1.7 80 -4.6 29 0 958.8 NA 0.0000 9999 2560 0 0 0
2019/08/05 17:59:00 BASE 4.01 109 10.75 80 -1.6 80 -4.6 27 0 958.7 NA 0.0000 9999 4300 0 0 0
2019/08/05 18:00:00 BASE 4.53 118 10.75 80 -1.6 80 -4.6 25 0 958.7 NA 0.0000 9999 4330 21720 0 0
2019/08/05 18:01:00 BASE 6.02 161 10.75 80 -1.7 80 -4.7 24 0 958.6 NA 0.0000 9999 4300 7380 0 0
2019/08/05 18:02:00 BASE 4.62 172 10.75 80 -1.7 80 -4.7 24 0 958.7 NA 0.0000 9999 7190 0 0 0
2019/08/05 18:03:00 BASE 3.09 159 8.95 142 -1.7 80 -4.7 23 0 958.7 NA 0.0000 9999 4040 7150 0 0
2019/08/05 18:04:00 BASE 4.06 175 8.95 142 -1.8 80 -4.7 23 0 958.8 NA 0.0000 9999 3870 0 0 0
2019/08/05 18:05:00 BASE 3.13 170 8.95 142 -1.8 81 -4.7 22 0 958.8 NA 0.0000 9999 3810 0 0 0
2019/08/05 18:06:00 BASE 2.90 124 8.95 142 -1.9 81 -4.8 22 0 958.8 NA 0.0000 9999 3840 0 0 0
2019/08/05 18:07:00 BASE 2.07 110 8.95 142 -2.0 81 -4.9 22 0 958.8 NA 0.0000 9999 3940 0 0 0
2019/08/05 18:08:00 BASE 1.84 208 8.95 142 -2.0 80 -5.0 22 0 958.7 NA 0.0000 9999 3970 0 0 0
2019/08/05 18:09:00 BASE 3.22 171 8.95 142 -2.1 80 -5.1 23 0 958.7 NA 0.0000 9999 3450 0 0 0
2019/08/05 18:10:00 BASE 4.23 149 8.95 142 -2.3 80 -5.2 23 0 958.7 NA 0.0000 9999 3870 0 0 0
2019/08/05 18:11:00 BASE 5.30 165 7.87 187 -2.3 80 -5.3 23 0 958.8 NA 0.0000 9999 3740 0 0 0
2019/08/05 18:12:00 BASE 3.87 158 7.87 187 -2.4 81 -5.2 23 0 958.9 NA 0.0000 9999 3870 0 0 0
2019/08/05 18:13:00 BASE 3.46 137 10.91 141 -2.4 81 -5.2 23 0 958.8 NA 0.0000 9999 3940 0 0 0
2019/08/05 18:14:00 BASE 6.75 139 10.91 141 -2.5 82 -5.2 23 0 958.6 NA 0.0000 9999 3970 0 0 0
2019/08/05 18:15:00 BASE 7.90 140 10.91 141 -2.5 82 -5.2 23 0 958.6 NA 0.0000 9999 4040 0 0 0
2019/08/05 18:16:00 BASE 4.91 113 10.91 141 -2.5 82 -5.1 22 0 958.7 NA 0.0000 9999 3970 0 0 0
2019/08/05 18:17:00 BASE 3.99 102 10.91 141 -2.5 82 -5.2 22 0 958.8 NA 0.0000 9999 3900 0 0 0
2019/08/05 18:18:00 BASE 3.94 118 10.91 141 -2.5 82 -5.2 21 0 958.8 NA 0.0000 9999 3810 0 0 0
2019/08/05 18:19:00 BASE 4.61 130 10.91 141 -2.5 81 -5.3 20 0 958.7 NA 0.0000 9999 4070 0 0 0
2019/08/05 18:20:00 BASE 6.77 129 10.91 141 -2.5 81 -5.3 19 0 958.7 NA 0.0000 9999 4100 0 0 0
2019/08/05 18:21:00 BASE 8.13 134 10.91 141 -2.5 81 -5.3 19 0 958.6 NA 0.0000 9999 3740 0 0 0
2019/08/05 18:22:00 BASE 8.42 139 10.91 141 -2.5 81 -5.3 20 0 958.6 NA 0.0000 9999 3870 0 0 0
2019/08/05 18:23:00 BASE 7.76 142 10.65 134 -2.5 81 -5.4 21 0 958.6 NA 0.0000 9999 4040 0 0 0
2019/08/05 18:24:00 BASE 6.98 141 10.65 134 -2.6 81 -5.4 21 0 958.7 NA 0.0000 9999 4070 0 0 0
2019/08/05 18:25:00 BASE 6.95 137 10.65 134 -2.6 81 -5.5 21 0 958.6 NA 0.0000 9999 4100 0 0 0
2019/08/05 18:26:00 BASE 8.05 144 10.65 134 -2.6 81 -5.5 22 0 958.6 NA 0.0000 9999 3770 0 0 0
2019/08/05 18:27:00 BASE 8.14 153 10.65 134 -2.6 81 -5.5 22 0 958.5 NA 0.0000 9999 3900 0 0 0
2019/08/05 18:28:00 BASE 7.07 159 10.65 134 -2.6 81 -5.4 23 0 958.4 NA 0.0000 9999 4070 0 0 0
2019/08/05 18:29:00 BASE 7.36 158 10.65 134 -2.5 81 -5.4 24 0 958.4 NA 0.0000 9999 4070 0 0 0
2019/08/05 18:30:00 BASE 9.18 159 10.70 157 -2.5 81 -5.3 26 0 958.3 NA 0.0000 9999 4070 0 0 0
2019/08/05 18:31:00 BASE 9.06 157 10.70 157 -2.4 81 -5.3 27 0 958.3 NA 0.0000 9999 4100 0 0 0
2019/08/05 18:32:00 BASE 8.89 151 10.70 157 -2.5 80 -5.4 27 0 958.2 NA 0.0000 9999 4170 0 0 0
2019/08/05 18:33:00 BASE 9.69 159 10.70 157 -2.5 80 -5.4 28 0 958.2 NA 0.0000 9999 4130 0 0 0
2019/08/05 18:34:00 BASE 9.57 169 12.09 179 -2.5 80 -5.5 27 0 958.1 NA 0.0000 9999 4000 0 0 0
2019/08/05 18:35:00 BASE 9.66 170 12.09 179 -2.5 80 -5.5 26 0 958.1 NA 0.0000 9999 4170 0 0 0
2019/08/05 18:36:00 BASE 9.41 165 12.09 179 -2.5 80 -5.5 25 0 958.1 NA 0.0000 9999 4130 0 0 0
2019/08/05 18:37:00 BASE 8.55 154 12.09 179 -2.5 80 -5.5 24 0 958.1 NA 0.0000 9999 4040 0 0 0
2019/08/05 18:38:00 BASE 8.54 145 12.09 179 -2.4 80 -5.4 23 0 958.1 NA 0.0000 9999 3640 0 0 0
2019/08/05 18:39:00 BASE 9.93 142 13.43 143 -2.3 80 -5.4 22 0 958.1 NA 0.0000 9999 3610 0 0 0
2019/08/05 18:40:00 BASE 11.53 144 13.48 141 -2.3 79 -5.4 21 0 958.0 NA 0.0000 9999 3180 4040 0 0
2019/08/05 18:41:00 BASE 12.58 142 16.15 127 -2.3 79 -5.5 21 0 958.0 NA 0.0000 9999 4000 0 0 0
2019/08/05 18:42:00 BASE 14.46 141 18.11 144 -2.4 79 -5.6 20 0 958.0 NA 0.0000 9999 3740 4170 0 0
2019/08/05 18:43:00 BASE 14.83 143 18.11 144 -2.5 78 -5.7 19 0 958.0 NA 0.0000 9999 4040 0 0 0
2019/08/05 18:44:00 BASE 12.36 144 18.11 144 -2.6 78 -5.9 18 0 958.1 NA 0.0000 9999 3740 0 0 0
2019/08/05 18:45:00 BASE 10.72 145 18.11 144 -2.6 78 -5.9 17 0 958.1 NA 0.0000 9999 2890 3840 0 0
2019/08/05 18:46:00 BASE 11.16 145 18.11 144 -2.5 78 -5.8 17 0 958.1 NA 0.0000 9999 3580 0 0 0
2019/08/05 18:47:00 BASE 10.02 145 18.11 144 -2.5 78 -5.8 16 0 958.1 NA 0.0000 9999 3480 0 0 0
2019/08/05 18:48:00 BASE 11.14 142 18.11 144 -2.4 77 -5.9 16 0 957.9 NA 0.0000 9999 3580 0 0 0
2019/08/05 18:49:00 BASE 12.45 146 18.11 144 -2.4 77 -5.9 16 0 957.9 NA 0.0000 9999 3670 0 0 0
2019/08/05 18:50:00 BASE 11.73 151 18.11 144 -2.4 76 -6.0 16 0 957.9 NA 0.0000 9999 3410 0 0 0
2019/08/05 18:51:00 BASE 13.50 147 18.11 144 -2.4 76 -6.1 16 0 957.9 NA 0.0000 9999 3450 0 0 0
2019/08/05 18:52:00 BASE 13.88 153 17.34 149 -2.4 76 -6.0 16 0 957.9 NA 0.0000 9999 3670 0 0 0
2019/08/05 18:53:00 BASE 11.65 149 16.57 171 -2.3 76 -6.1 16 0 958.0 NA 0.0000 9999 3810 0 0 0
2019/08/05 18:54:00 BASE 11.03 134 16.57 171 -2.3 75 -6.1 16 0 958.0 NA 0.0000 9999 3870 0 0 0
2019/08/05 18:55:00 BASE 12.25 133 16.57 171 -2.3 75 -6.1 16 0 958.0 NA 0.0000 9999 3410 3900 0 0
2019/08/05 18:56:00 BASE 12.79 136 16.57 171 -2.4 75 -6.3 16 0 958.0 NA 0.0000 9999 12890 0 0 0
2019/08/05 18:57:00 BASE 12.02 140 16.57 171 -2.5 74 -6.5 16 0 958.0 NA 0.0000 9999 3540 0 0 0
2019/08/05 18:58:00 BASE 10.73 140 16.57 171 -2.6 74 -6.5 16 0 958.0 NA 0.0000 9999 3540 0 0 0
2019/08/05 18:59:00 BASE 11.57 137 16.57 171 -2.7 74 -6.6 15 0 958.0 NA 0.0000 9999 3640 0 0 0
2019/08/05 19:00:00 BASE 11.67 135 16.57 171 -2.7 74 -6.6 15 0 957.9 NA 0.0000 9999 0 0 0 0
2019/08/05 19:01:00 BASE 11.89 132 16.57 171 -2.7 75 -6.6 15 0 957.9 NA 0.0000 9999 0 0 0 0
2019/08/05 19:02:00 BASE 12.30 130 14.56 135 -2.7 75 -6.6 15 0 957.9 NA 0.0000 9999 0 0 0 0
2019/08/05 19:03:00 BASE 11.83 129 14.92 131 -2.7 75 -6.6 14 0 957.9 NA 0.0000 9999 0 0 0 0
2019/08/05 19:04:00 BASE 12.34 125 14.92 131 -2.7 75 -6.5 14 0 957.9 NA 0.0000 9999 0 0 0 0
2019/08/05 19:05:00 BASE 12.16 123 14.92 131 -2.7 75 -6.5 13 0 957.9 NA 0.0000 9999 13190 0 0 0
2019/08/05 19:06:00 BASE 11.39 125 14.92 131 -2.6 75 -6.4 13 0 957.9 NA 0.0000 9999 3540 0 0 0
2019/08/05 19:07:00 BASE 12.52 122 16.98 122 -2.6 75 -6.5 13 0 957.9 NA 0.0000 9999 3900 0 0 0
2019/08/05 19:08:00 BASE 13.64 121 16.98 122 -2.6 74 -6.6 12 0 957.9 NA 0.0000 9999 3940 0 0 0
2019/08/05 19:09:00 BASE 13.06 122 16.98 122 -2.5 73 -6.7 12 0 957.9 NA 0.0000 9999 3940 0 0 0
2019/08/05 19:10:00 BASE 12.35 122 16.98 122 -2.6 73 -6.8 12 0 957.9 NA 0.0000 9999 3970 0 0 0
2019/08/05 19:11:00 BASE 11.66 122 16.98 122 -2.7 73 -6.9 11 0 957.9 NA 0.0000 9999 3870 0 0 0
2019/08/05 19:12:00 BASE 11.08 120 16.98 122 -2.8 73 -6.9 11 0 957.9 NA 0.0000 9999 3900 0 0 0
2019/08/05 19:13:00 BASE 10.27 116 16.98 122 -2.8 73 -6.9 10 0 957.9 NA 0.0000 9999 3810 0 0 0
2019/08/05 19:14:00 BASE 10.18 115 16.98 122 -2.8 74 -6.9 10 0 957.9 NA 0.0000 9999 3840 0 0 0
2019/08/05 19:15:00 BASE 10.76 119 16.98 122 -2.7 74 -6.8 10 0 957.9 NA 0.0000 9999 3870 0 0 0
2019/08/05 19:16:00 BASE 11.19 117 16.98 122 -2.7 74 -6.7 9 0 957.9 NA 0.0000 9999 3770 0 0 0
2019/08/05 19:17:00 BASE 11.61 116 14.20 122 -2.6 73 -6.7 9 0 957.9 NA 0.0000 9999 3840 0 0 0
2019/08/05 19:18:00 BASE 11.27 123 14.15 120 -2.7 73 -6.8 9 0 958.0 NA 0.0000 9999 3940 0 0 0
2019/08/05 19:19:01 BASE 10.28 124 12.71 119 -2.7 73 -6.8 8 0 958.0 NA 0.0000 9999 3280 4000 0 0
2019/08/05 19:20:00 BASE 9.90 124 12.71 119 -2.7 73 -6.9 8 0 958.0 NA 0.0000 9999 3350 0 0 0
2019/08/05 19:21:00 BASE 9.81 125 12.71 119 -2.8 73 -6.9 7 0 958.0 NA 0.0000 9999 3740 0 0 0
2019/08/05 19:22:00 BASE 9.39 122 12.55 122 -2.8 73 -6.9 7 0 958.0 NA 0.0000 9999 3770 0 0 0
2019/08/05 19:23:00 BASE 8.55 120 12.55 122 -2.9 74 -6.9 7 0 958.0 NA 0.0000 9999 3870 0 0 0
2019/08/05 19:24:00 BASE 7.63 121 12.55 122 -2.9 74 -6.8 6 0 958.0 NA 0.0000 9999 3900 0 0 0
2019/08/05 19:25:00 BASE 6.87 120 12.55 122 -3.0 75 -6.8 6 0 958.0 NA 0.0000 9999 3770 0 0 0
2019/08/05 19:26:00 BASE 6.23 116 12.55 122 -2.9 76 -6.7 6 0 958.0 NA 0.0000 9999 3810 0 0 0
2019/08/05 19:27:00 BASE 6.85 114 12.14 124 -2.9 76 -6.6 5 0 957.9 NA 0.0000 9999 3900 0 0 0
2019/08/05 19:28:00 BASE 7.65 115 10.85 118 -2.9 76 -6.5 5 0 957.9 NA 0.0000 9999 3770 0 0 0
2019/08/05 19:29:00 BASE 7.40 113 10.75 129 -2.9 76 -6.4 5 0 957.9 NA 0.0000 9999 3900 0 0 0
2019/08/05 19:30:00 BASE 6.99 111 10.19 124 -2.9 76 -6.4 5 0 957.9 NA 0.0000 9999 3250 0 0 0
2019/08/05 19:31:00 BASE 6.48 112 9.88 119 -2.9 77 -6.4 5 0 957.9 NA 0.0000 9999 3180 3840 0 0
2019/08/05 19:32:00 BASE 5.86 116 8.80 120 -2.8 77 -6.3 4 0 957.9 NA 0.0000 9999 3810 0 0 0
2019/08/05 19:33:00 BASE 5.31 116 8.75 124 -2.8 77 -6.3 4 0 957.9 NA 0.0000 9999 3940 0 0 0
2019/08/05 19:34:00 BASE 4.83 113 8.75 124 -2.7 77 -6.3 4 0 957.9 NA 0.0000 9999 4000 0 0 0
2019/08/05 19:35:00 BASE 4.03 112 8.75 124 -2.7 76 -6.3 4 0 957.9 NA 0.0000 9999 4040 0 0 0
2019/08/05 19:36:00 BASE 3.19 127 8.75 124 -2.7 76 -6.4 4 0 957.9 NA 0.0000 9999 3350 4040 0 0
2019/08/05 19:37:00 BASE 3.55 157 8.75 124 -2.7 75 -6.5 4 0 957.9 NA 0.0000 9999 3480 4130 0 0
2019/08/05 19:38:00 BASE 4.04 168 7.67 111 -2.8 76 -6.5 3 0 957.9 NA 0.0000 9999 4000 0 0 0
2019/08/05 19:39:01 BASE 3.37 166 7.05 109 -2.8 76 -6.5 3 0 957.9 NA 0.0000 9999 4040 0 0 0
2019/08/05 19:40:00 BASE 3.08 158 6.74 110 -2.8 76 -6.4 3 0 957.9 NA 0.0000 9999 4070 0 0 0
2019/08/05 19:41:00 BASE 2.68 147 5.97 118 -2.8 77 -6.3 3 0 957.9 NA 0.0000 9999 4130 0 0 0
2019/08/05 19:42:00 BASE 1.80 136 5.45 114 -2.8 78 -6.1 4 0 957.9 NA 0.0000 9999 4000 0 0 0
2019/08/05 19:43:00 BASE 1.37 133 5.14 118 -2.8 78 -6.1 4 0 957.9 NA 0.0000 9999 4000 0 0 0
2019/08/05 19:44:00 BASE 1.29 149 4.68 169 -2.8 78 -6.0 4 0 957.8 NA 0.0000 9999 4000 0 0 0
2019/08/05 19:45:00 BASE 1.65 174 4.68 169 -2.7 78 -6.0 5 0 957.8 NA 0.0000 9999 4000 0 0 0
2019/08/05 19:46:00 BASE 2.21 185 4.68 169 -2.7 78 -6.0 6 0 957.8 NA 0.0000 9999 4000 0 0 0
2019/08/05 19:47:00 BASE 2.84 178 4.32 165 -2.8 78 -6.1 6 0 957.8 NA 0.0000 9999 4000 0 0 0
2019/08/05 19:48:00 BASE 3.19 170 3.91 160 -2.9 78 -6.1 7 0 957.8 NA 0.0000 9999 4040 0 0 0
2019/08/05 19:49:00 BASE 2.92 164 3.91 160 -3.0 79 -6.1 7 0 957.8 NA 0.0000 9999 3970 0 0 0
2019/08/05 19:50:00 BASE 2.11 146 3.76 179 -3.0 79 -6.1 6 0 957.7 NA 0.0000 9999 3940 0 0 0
2019/08/05 19:51:00 BASE 1.11 120 3.76 179 -3.0 79 -6.1 6 0 957.7 NA 0.0000 9999 3940 0 0 0
2019/08/05 19:52:00 BASE 0.36 98 3.76 179 -3.0 80 -6.0 6 0 957.7 NA 0.0000 9999 3900 0 0 0
2019/08/05 19:53:00 BASE 0.04 90 3.76 179 -2.8 79 -5.9 5 0 957.7 NA 0.0000 9999 3940 0 0 0
2019/08/05 19:54:00 BASE 0.00 96 3.76 179 -2.7 79 -5.9 5 0 957.7 NA 0.0000 9999 3940 0 0 0
2019/08/05 19:55:00 BASE 0.00 83 3.76 179 -2.6 78 -5.9 5 0 957.7 NA 0.0000 9999 3970 0 0 0
2019/08/05 19:56:00 BASE 0.10 52 3.76 179 -2.5 77 -6.0 4 0 957.7 NA 0.0000 9999 4000 0 0 0
2019/08/05 19:57:00 BASE 0.84 44 3.76 179 -2.5 76 -6.1 4 0 957.7 NA 0.0000 9999 4000 0 0 0
2019/08/05 19:58:00 BASE 1.56 39 3.96 21 -2.5 75 -6.3 3 0 957.7 NA 0.0000 9999 4070 0 0 0
2019/08/05 19:59:00 BASE 2.89 13 4.68 1 -2.5 75 -6.4 3 0 957.6 NA 0.0000 9999 4130 0 0 0
2019/08/05 20:00:00 BASE 4.02 6 4.68 1 -2.4 74 -6.4 3 0 957.6 NA 0.0000 9999 4170 0 0 0
2019/08/05 20:01:00 BASE 3.95 21 4.68 1 -2.4 74 -6.3 2 0 957.6 NA 0.0000 9999 4170 0 0 0
2019/08/05 20:02:00 BASE 4.17 24 4.94 15 -2.4 75 -6.3 2 0 957.6 NA 0.0000 9999 4170 0 0 0
2019/08/05 20:03:00 BASE 4.78 15 5.61 8 -2.4 75 -6.2 1 0 957.6 NA 0.0000 9999 4130 0 0 0
2019/08/05 20:04:00 BASE 5.10 10 5.61 8 -2.4 76 -6.1 1 0 957.6 NA 0.0000 9999 4070 0 0 0
2019/08/05 20:05:00 BASE 4.88 7 5.61 8 -2.5 77 -6.0 1 0 957.5 NA 0.0000 9999 4000 0 0 0
2019/08/05 20:06:00 BASE 4.67 4 5.61 8 -2.6 78 -5.9 1 0 957.5 NA 0.0000 9999 4000 0 0 0
2019/08/05 20:07:00 BASE 4.71 4 5.61 8 -2.6 79 -5.8 1 0 957.5 NA 0.0000 9999 4000 0 0 0
2019/08/05 20:08:00 BASE 4.79 1 5.61 8 -2.6 79 -5.7 1 0 957.5 NA 0.0000 9999 4040 0 0 0
2019/08/05 20:09:00 BASE 4.68 355 5.61 8 -2.6 80 -5.6 1 0 957.4 NA 0.0000 9999 4040 0 0 0
2019/08/05 20:10:00 BASE 4.55 353 5.61 8 -2.6 80 -5.6 1 0 957.3 NA 0.0000 9999 3610 4040 0 0
2019/08/05 20:11:00 BASE 4.25 352 5.61 8 -2.7 81 -5.5 1 0 957.3 NA 0.0000 9999 3540 4040 0 0
2019/08/05 20:12:00 BASE 3.94 353 5.61 8 -2.7 81 -5.5 1 0 957.3 NA 0.0000 9999 3580 0 0 0
2019/08/05 20:13:00 BASE 3.81 358 5.20 7 -2.7 81 -5.4 0 0 957.3 NA 0.0000 9999 3510 3940 0 0
2019/08/05 20:14:00 BASE 3.74 1 5.09 2 -2.7 82 -5.4 0 0 957.3 NA 0.0000 9999 3480 3940 0 0
2019/08/05 20:15:00 BASE 3.65 358 5.09 2 -2.7 82 -5.4 0 0 957.3 NA 0.0000 9999 3480 0 0 0
2019/08/05 20:16:00 BASE 3.50 356 5.09 2 -2.7 82 -5.3 0 0 957.3 NA 0.0000 9999 3510 0 0 0
2019/08/05 20:17:00 BASE 3.48 355 4.99 350 -2.7 82 -5.3 0 0 957.3 NA 0.0000 9999 3970 0 0 0
2019/08/05 20:18:00 BASE 3.89 353 4.99 350 -2.6 82 -5.3 0 0 957.3 NA 0.0000 9999 3540 4000 0 0
2019/08/05 20:19:00 BASE 4.20 351 4.99 350 -2.6 82 -5.2 0 0 957.3 NA 0.0000 9999 4040 0 0 0
2019/08/05 20:20:00 BASE 4.22 347 4.99 348 -2.5 82 -5.2 0 0 957.3 NA 0.0000 9999 4000 0 0 0
2019/08/05 20:21:00 BASE 4.43 349 4.99 348 -2.5 82 -5.2 0 0 957.3 NA 0.0000 9999 4000 0 0 0
2019/08/05 20:22:00 BASE 4.66 359 5.35 8 -2.5 82 -5.2 0 0 957.3 NA 0.0000 9999 4040 0 0 0
2019/08/05 20:23:00 BASE 5.00 4 5.56 8 -2.5 82 -5.2 0 0 957.3 NA 0.0000 9999 3610 0 0 0
2019/08/05 20:24:00 BASE 5.15 8 5.56 3 -2.5 82 -5.2 0 0 957.3 NA 0.0000 9999 3540 4000 0 0
2019/08/05 20:25:00 BASE 5.03 15 5.56 3 -2.5 82 -5.2 0 0 957.3 NA 0.0000 9999 4040 0 0 0
2019/08/05 20:26:00 BASE 4.70 19 5.56 3 -2.6 82 -5.2 0 0 957.3 NA 0.0000 9999 4070 0 0 0
2019/08/05 20:27:00 BASE 4.39 16 5.56 3 -2.6 82 -5.3 0 0 957.3 NA 0.0000 9999 4070 0 0 0
2019/08/05 20:28:00 BASE 4.69 6 5.56 3 -2.6 82 -5.3 0 0 957.3 NA 0.0000 9999 4000 0 0 0
2019/08/05 20:29:00 BASE 4.73 1 5.56 3 -2.7 82 -5.3 0 0 957.3 NA 0.0000 9999 3540 4000 0 0
2019/08/05 20:30:00 BASE 3.97 7 5.56 3 -2.7 83 -5.2 0 0 957.2 NA 0.0000 9999 3540 4040 0 0
2019/08/05 20:31:00 BASE 3.29 16 5.56 3 -2.7 83 -5.2 0 0 957.3 NA 0.0000 9999 3540 4100 0 0
2019/08/05 20:32:00 BASE 3.43 24 5.56 3 -2.7 83 -5.1 0 0 957.3 NA 0.0000 9999 3580 0 0 0
2019/08/05 20:33:00 BASE 3.56 36 5.56 3 -2.7 84 -5.1 0 0 957.3 NA 0.0000 9999 3540 0 0 0
2019/08/05 20:34:00 BASE 2.90 49 5.45 353 -2.7 84 -5.0 0 0 957.3 NA 0.0000 9999 3540 0 0 0
2019/08/05 20:35:00 BASE 2.62 64 5.45 353 -2.7 84 -5.0 0 0 957.2 NA 0.0000 9999 3510 0 0 0
2019/08/05 20:36:00 BASE 3.71 85 5.45 353 -2.7 84 -5.1 0 0 957.2 NA 0.0000 9999 3510 0 0 0
2019/08/05 20:37:00 BASE 4.46 91 5.45 353 -2.8 84 -5.1 0 0 957.1 NA 0.0000 9999 3480 0 0 0
2019/08/05 20:38:00 BASE 4.25 87 5.25 360 -2.9 84 -5.2 0 0 957.2 NA 0.0000 9999 3510 0 0 0
2019/08/05 20:39:00 BASE 4.20 84 5.09 86 -3.0 84 -5.2 0 0 957.2 NA 0.0000 9999 3510 0 0 0
2019/08/05 20:40:00 BASE 3.77 73 5.09 86 -3.0 85 -5.2 0 0 957.2 NA 0.0000 9999 3510 0 0 0
2019/08/05 20:41:00 BASE 3.55 68 5.09 86 -3.0 85 -5.2 0 0 957.2 NA 0.0000 9999 3540 0 0 0
2019/08/05 20:42:00 BASE 3.70 63 5.09 86 -3.0 86 -5.1 0 0 957.2 NA 0.0000 9999 3710 0 0 0
2019/08/05 20:43:00 BASE 3.26 55 5.09 86 -3.0 86 -5.0 0 0 957.2 NA 0.0000 9999 3740 0 0 0
2019/08/05 20:44:00 BASE 2.73 62 5.09 86 -3.0 86 -5.0 0 0 957.1 NA 0.0000 9999 3840 0 0 0
2019/08/05 20:45:00 BASE 3.06 74 5.09 86 -3.0 86 -5.0 0 0 957.1 NA 0.0000 9999 3870 0 0 0
2019/08/05 20:46:00 BASE 3.13 80 5.04 96 -3.0 86 -5.0 0 0 957.0 NA 0.0000 9999 9190 0 0 0
2019/08/05 20:47:00 BASE 2.59 80 4.73 64 -3.0 86 -4.9 0 0 957.0 NA 0.0000 9999 9290 0 0 0
2019/08/05 20:48:00 BASE 2.36 65 4.73 64 -3.0 87 -4.9 0 0 957.0 NA 0.0000 9999 3670 0 0 0
2019/08/05 20:49:00 BASE 2.23 50 4.73 64 -2.9 87 -4.8 0 0 956.9 NA 0.0000 9999 3580 0 0 0
2019/08/05 20:50:00 BASE 2.50 48 4.73 64 -2.9 87 -4.8 0 0 956.9 NA 0.0000 9999 3540 0 0 0
2019/08/05 20:51:00 BASE 2.82 43 4.22 60 -2.8 87 -4.8 0 0 956.9 NA 0.0000 9999 3610 0 0 0
2019/08/05 20:52:00 BASE 2.47 43 3.91 46 -2.8 86 -4.7 0 0 956.9 NA 0.0000 9999 3610 0 0 0
2019/08/05 20:53:00 BASE 2.46 50 3.91 46 -2.7 86 -4.7 0 0 956.8 NA 0.0000 9999 3610 0 0 0
2019/08/05 20:54:00 BASE 3.12 46 3.96 22 -2.7 86 -4.7 0 0 956.7 NA 0.0000 9999 3540 0 0 0
2019/08/05 20:55:00 BASE 2.97 43 3.96 22 -2.7 86 -4.7 0 0 956.7 NA 0.0000 9999 3510 0 0 0
2019/08/05 20:56:00 BASE 2.68 45 3.96 22 -2.7 86 -4.7 0 0 956.7 NA 0.0000 9999 3480 0 0 0
2019/08/05 20:57:00 BASE 2.88 43 3.96 22 -2.7 86 -4.8 0 0 956.7 NA 0.0000 9999 3450 0 0 0
2019/08/05 20:58:00 BASE 3.65 33 5.09 29 -2.8 86 -4.8 0 0 956.7 NA 0.0000 9999 3510 0 0 0
2019/08/05 20:59:00 BASE 4.42 25 5.09 29 -2.8 86 -4.8 0 0 956.7 NA 0.0000 9999 3510 0 0 0
2019/08/05 21:00:00 BASE 4.04 27 5.09 29 -2.8 86 -4.8 0 0 956.7 NA 0.0000 9999 3480 0 0 0
2019/08/05 21:01:00 BASE 3.46 30 5.09 29 -2.8 86 -4.8 0 0 956.8 NA 0.0000 9999 3540 0 0 0
2019/08/05 21:02:00 BASE 3.04 22 5.09 29 -2.7 86 -4.8 0 0 956.7 NA 0.0000 9999 3540 0 0 0
2019/08/05 21:03:00 BASE 3.44 20 5.09 29 -2.7 86 -4.8 0 0 956.7 NA 0.0000 9999 3580 0 0 0
2019/08/05 21:04:00 BASE 3.94 24 5.09 29 -2.7 86 -4.7 0 0 956.8 NA 0.0000 9999 3810 0 0 0
2019/08/05 21:05:00 BASE 3.87 26 5.09 29 -2.6 86 -4.7 0 0 956.7 NA 0.0000 9999 3900 0 0 0
2019/08/05 21:06:00 BASE 3.88 25 5.09 29 -2.6 86 -4.7 0 0 956.7 NA 0.0000 9999 3940 0 0 0
2019/08/05 21:07:00 BASE 4.35 14 5.76 7 -2.6 86 -4.7 0 0 956.7 NA 0.0000 9999 3870 0 0 0
2019/08/05 21:08:00 BASE 4.66 17 5.76 7 -2.6 86 -4.7 0 0 956.7 NA 0.0000 9999 3940 0 0 0
2019/08/05 21:09:00 BASE 4.51 32 5.76 7 -2.6 86 -4.7 0 0 956.7 NA 0.0000 9999 4000 0 0 0
2019/08/05 21:10:00 BASE 4.53 34 5.76 7 -2.6 86 -4.7 0 0 956.6 NA 0.0000 9999 3970 0 0 0
2019/08/05 21:11:00 BASE 3.83 24 5.76 7 -2.7 86 -4.7 0 0 956.6 NA 0.0000 9999 4990 0 0 0
2019/08/05 21:12:00 BASE 2.92 24 5.76 7 -2.7 86 -4.8 0 0 956.6 NA 0.0000 9999 4990 0 0 0
2019/08/05 21:13:00 BASE 3.02 31 5.76 7 -2.7 86 -4.7 0 0 956.6 NA 0.0000 9999 4890 0 0 0
2019/08/05 21:14:00 BASE 3.33 26 5.76 7 -2.7 86 -4.7 0 0 956.6 NA 0.0000 9999 4790 0 0 0
2019/08/05 21:15:00 BASE 3.64 13 5.76 7 -2.7 87 -4.6 0 0 956.6 NA 0.0000 9999 4630 0 0 0
2019/08/05 21:16:00 BASE 4.01 8 5.76 7 -2.7 87 -4.6 0 0 956.6 NA 0.0000 9999 4490 0 0 0
2019/08/05 21:17:00 BASE 3.80 16 5.04 32 -2.7 87 -4.5 0 0 956.6 NA 0.0000 9999 4460 0 0 0
2019/08/05 21:18:00 BASE 3.68 27 5.04 32 -2.7 87 -4.5 0 0 956.6 NA 0.0000 9999 4360 0 0 0
2019/08/05 21:19:00 BASE 4.28 37 5.30 51 -2.7 87 -4.5 0 0 956.6 NA 0.0000 9999 4360 0 0 0
2019/08/05 21:20:00 BASE 4.79 47 5.30 51 -2.7 87 -4.5 0 0 956.5 NA 0.0000 9999 4400 0 0 0
2019/08/05 21:21:00 BASE 4.71 54 5.30 51 -2.7 88 -4.5 0 0 956.5 NA 0.0000 9999 4430 0 0 0
2019/08/05 21:22:00 BASE 4.35 49 5.30 51 -2.8 88 -4.5 0 0 956.5 NA 0.0000 9999 4460 0 0 0
2019/08/05 21:23:00 BASE 3.82 35 5.30 51 -2.8 88 -4.5 0 0 956.5 NA 0.0000 9999 4330 0 0 0
2019/08/05 21:24:00 BASE 3.77 28 5.30 51 -2.8 88 -4.5 0 0 956.5 NA 0.0000 9999 4200 0 0 0
2019/08/05 21:25:00 BASE 3.65 31 5.30 51 -2.8 88 -4.5 0 0 956.5 NA 0.0000 9999 4230 0 0 0
2019/08/05 21:26:00 BASE 4.15 21 5.92 5 -2.8 88 -4.5 0 0 956.5 NA 0.0000 9999 4000 0 0 0
2019/08/05 21:27:00 BASE 5.54 4 6.64 3 -2.8 88 -4.5 0 0 956.4 NA 0.0000 9999 3810 0 0 0
2019/08/05 21:28:00 BASE 6.20 3 6.84 2 -2.8 88 -4.4 0 0 956.4 NA 0.0000 9999 3810 0 0 0
2019/08/05 21:29:00 BASE 6.39 2 7.46 3 -2.8 89 -4.4 0 0 956.4 NA 0.0000 9999 3970 0 0 0
2019/08/05 21:30:00 BASE 7.03 354 8.23 1 -2.7 89 -4.3 0 0 956.4 NA 0.0000 9999 3870 0 0 0
2019/08/05 21:31:00 BASE 7.92 350 8.95 353 -2.7 89 -4.3 0 0 956.3 NA 0.0000 9999 3900 0 0 0
2019/08/05 21:32:00 BASE 8.40 349 9.41 344 -2.7 89 -4.2 0 0 956.2 NA 0.0000 9999 4560 0 0 0
2019/08/05 21:33:00 BASE 8.67 343 9.47 344 -2.7 89 -4.2 0 0 956.2 NA 0.0000 9999 4760 0 0 0
2019/08/05 21:34:00 BASE 7.44 344 9.47 344 -2.6 90 -4.1 0 0 956.2 NA 0.0000 9999 4430 0 0 0
2019/08/05 21:35:00 BASE 6.74 345 9.47 344 -2.6 90 -4.0 0 0 956.2 NA 0.0000 9999 4590 0 0 0
2019/08/05 21:36:00 BASE 7.47 340 9.47 344 -2.6 90 -3.9 0 0 956.2 NA 0.0000 9999 4460 0 0 0
2019/08/05 21:37:00 BASE 7.60 342 9.47 344 -2.6 91 -3.9 0 0 956.1 NA 0.0000 9999 4660 0 0 0
2019/08/05 21:38:00 BASE 8.10 345 9.47 344 -2.6 91 -3.9 0 0 956.1 NA 0.0000 9999 4590 0 0 0
2019/08/05 21:39:00 BASE 8.16 347 9.47 344 -2.6 91 -3.8 0 0 956.1 NA 0.0000 9999 4560 0 0 0
2019/08/05 21:40:00 BASE 7.32 350 9.47 344 -2.6 92 -3.8 0 0 956.1 NA 0.0000 9999 4590 0 0 0
2019/08/05 21:41:00 BASE 6.93 349 9.47 344 -2.6 92 -3.7 0 0 956.1 NA 0.0000 9999 5090 0 0 0
2019/08/05 21:42:00 BASE 7.08 346 9.47 344 -2.6 92 -3.7 0 0 956.1 NA 0.0000 9999 5280 0 0 0
2019/08/05 21:43:00 BASE 7.02 341 8.90 341 -2.6 92 -3.6 0 0 956.1 NA 0.0000 9999 5410 0 0 0
2019/08/05 21:44:00 BASE 6.52 338 8.90 341 -2.6 93 -3.6 0 0 956.1 NA 0.0000 9999 5410 0 0 0
2019/08/05 21:45:00 BASE 5.76 337 8.90 341 -2.6 93 -3.6 0 0 956.1 NA 0.0000 9999 5280 0 0 0
2019/08/05 21:46:00 BASE 4.74 339 8.90 341 -2.7 93 -3.6 0 0 956.1 NA 0.0000 9999 5250 0 0 0
2019/08/05 21:47:00 BASE 4.51 339 8.90 341 -2.7 94 -3.6 0 0 956.1 NA 0.0000 9999 5320 0 0 0
2019/08/05 21:48:00 BASE 5.17 338 8.28 348 -2.8 94 -3.6 0 0 956.1 NA 0.0000 9999 5280 0 0 0
2019/08/05 21:49:00 BASE 5.66 339 7.61 345 -2.8 94 -3.6 0 0 956.0 NA 0.0000 9999 5150 0 0 0
2019/08/05 21:50:00 BASE 5.67 340 7.61 345 -2.8 94 -3.6 0 0 956.0 NA 0.0000 9999 5020 0 0 0
2019/08/05 21:51:00 BASE 5.71 341 7.61 345 -2.8 94 -3.6 0 0 956.0 NA 0.0000 9999 4990 0 0 0
2019/08/05 21:52:00 BASE 6.25 343 7.15 334 -2.8 94 -3.6 0 0 956.0 NA 0.0000 9999 4950 0 0 0
2019/08/05 21:53:00 BASE 6.88 349 8.28 354 -2.8 94 -3.6 0 0 955.9 NA 0.0000 9999 4990 0 0 0
2019/08/05 21:54:00 BASE 7.32 353 8.28 354 -2.8 95 -3.5 0 0 955.9 NA 0.0000 9999 5020 0 0 0
2019/08/05 21:55:00 BASE 7.45 354 8.28 354 -2.7 95 -3.4 0 0 955.9 NA 0.0000 9999 5090 0 0 0
2019/08/05 21:56:00 BASE 7.76 356 8.69 350 -2.7 95 -3.4 0 0 955.9 NA 0.0000 9999 5020 0 0 0
2019/08/05 21:57:00 BASE 8.30 360 9.31 2 -2.7 96 -3.3 0 0 955.9 NA 0.0000 9999 4920 0 0 0
2019/08/05 21:58:00 BASE 8.68 2 9.31 2 -2.7 96 -3.3 0 0 955.9 NA 0.0000 9999 4920 0 0 0
2019/08/05 21:59:00 BASE 8.88 2 9.31 4 -2.7 96 -3.2 0 0 955.9 NA 0.0000 9999 4950 0 0 0
2019/08/05 22:00:00 BASE 9.16 3 10.34 5 -2.8 97 -3.2 0 0 955.9 NA 0.0000 9999 5090 0 0 0
2019/08/05 22:01:00 BASE 10.01 4 11.42 11 -2.8 97 -3.2 0 0 955.8 NA 0.0000 9999 5090 0 0 0
2019/08/05 22:02:00 BASE 10.25 6 11.42 11 -2.8 97 -3.2 0 0 955.9 NA 0.0000 9999 5090 0 0 0
2019/08/05 22:03:00 BASE 9.63 7 11.42 11 -2.8 98 -3.1 0 0 955.9 NA 0.0000 9999 5220 0 0 0
2019/08/05 22:04:00 BASE 9.57 7 11.42 11 -2.8 98 -3.0 0 0 955.9 NA 0.0000 9999 5280 0 0 0
2019/08/05 22:05:00 BASE 10.23 9 11.42 11 -2.8 99 -3.0 0 0 955.9 NA 0.0000 9999 5320 0 0 0
2019/08/05 22:06:00 BASE 10.69 10 11.78 1 -2.8 99 -2.9 0 0 955.9 NA 0.0000 9999 5250 0 0 0
2019/08/05 22:07:00 BASE 10.75 7 11.78 1 -2.9 100 -2.9 0 0 955.9 NA 0.0000 9999 5250 0 0 0
2019/08/05 22:08:00 BASE 10.56 6 11.78 1 -2.9 100 -2.9 0 0 955.9 NA 0.0000 9999 5150 0 0 0
2019/08/05 22:09:00 BASE 10.84 4 11.99 1 -2.9 100 -2.9 0 0 955.8 NA 0.0000 9999 5050 0 0 0
2019/08/05 22:10:00 BASE 11.89 3 13.32 1 -2.9 100 -2.9 0 0 955.8 NA 0.0000 9999 4950 0 0 0
2019/08/05 22:11:00 BASE 12.08 6 13.32 1 -2.9 100 -2.9 0 0 955.8 NA 0.0000 9999 4860 0 0 0
2019/08/05 22:12:00 BASE 11.69 9 13.32 1 -2.9 100 -2.9 0 0 955.9 NA 0.0000 9999 4760 0 0 0
2019/08/05 22:13:00 BASE 11.26 10 13.32 1 -3.0 100 -3.0 0 0 955.8 NA 0.0000 9999 4630 0 0 0
2019/08/05 22:14:00 BASE 10.97 8 13.32 1 -3.0 100 -3.0 0 0 955.9 NA 0.0000 9999 4530 0 0 0
2019/08/05 22:15:00 BASE 11.64 9 13.48 14 -3.0 100 -3.0 0 0 955.8 NA 0.0000 9999 4430 0 0 0
2019/08/05 22:16:00 BASE 12.33 10 13.48 14 -3.0 100 -3.0 0 0 955.8 NA 0.0000 9999 4270 0 0 0
2019/08/05 22:17:00 BASE 12.40 9 13.48 14 -3.0 100 -3.0 0 0 955.8 NA 0.0000 9999 4100 0 0 0
2019/08/05 22:18:00 BASE 12.52 10 13.48 14 -3.0 100 -3.0 0 0 955.8 NA 0.0000 9999 4000 0 0 0
2019/08/05 22:19:00 BASE 12.14 11 13.48 14 -3.1 100 -3.1 0 0 955.8 NA 0.0000 9999 0 0 0 5410
2019/08/05 22:20:00 BASE 11.52 9 13.48 14 -3.1 100 -3.1 0 0 955.8 NA 0.0000 9999 0 0 0 5350
2019/08/05 22:21:00 BASE 11.51 7 13.48 14 -3.1 100 -3.1 0 0 955.8 NA 0.0000 9999 0 0 0 5250
2019/08/05 22:22:00 BASE 11.92 8 13.48 14 -3.1 100 -3.1 0 0 955.8 NA 0.0000 9999 0 0 0 5410
2019/08/05 22:23:00 BASE 11.81 9 13.48 14 -3.1 100 -3.1 0 0 955.8 NA 0.0000 9999 0 0 0 5580
2019/08/05 22:24:00 BASE 11.78 9 13.48 14 -3.1 100 -3.1 0 0 955.8 NA 0.0000 9999 0 0 0 5640
2019/08/05 22:25:00 BASE 12.43 8 13.32 7 -3.1 100 -3.1 0 0 955.8 NA 0.0000 9999 0 0 0 5580
2019/08/05 22:26:00 BASE 12.59 6 13.32 7 -3.2 100 -3.2 0 0 955.8 NA 0.0000 9999 0 0 0 5610
2019/08/05 22:27:00 BASE 12.76 4 13.43 3 -3.2 100 -3.2 0 0 955.8 NA 0.0000 9999 0 0 0 5910
2019/08/05 22:28:00 BASE 12.50 2 13.43 3 -3.2 100 -3.2 0 0 955.8 NA 0.0000 9999 0 0 0 5350
2019/08/05 22:29:00 BASE 11.83 358 13.43 3 -3.1 100 -3.1 0 0 955.8 NA 0.0000 9999 0 0 0 5180
2019/08/05 22:30:00 BASE 11.79 358 13.43 3 -3.1 100 -3.1 0 0 955.8 NA 0.0000 9999 0 0 0 5050
2019/08/05 22:31:00 BASE 11.88 3 13.43 3 -3.1 100 -3.1 0 0 955.8 NA 0.0000 9999 0 0 0 4860
2019/08/05 22:32:00 BASE 11.79 5 13.43 3 -3.1 100 -3.1 0 0 955.8 NA 0.0000 9999 0 0 0 4690
2019/08/05 22:33:00 BASE 11.62 7 13.43 3 -3.1 100 -3.1 0 0 955.8 NA 0.0000 9999 0 0 0 4630
2019/08/05 22:34:00 BASE 11.81 10 13.43 3 -3.1 100 -3.1 0 0 955.7 NA 0.0000 9999 0 0 0 4590
2019/08/05 22:35:00 BASE 11.60 9 13.43 3 -3.1 100 -3.1 0 0 955.8 NA 0.0000 9999 0 0 0 4630
2019/08/05 22:36:00 BASE 10.81 9 13.43 3 -3.1 100 -3.1 0 0 955.8 NA 0.0000 9999 0 0 0 4560
2019/08/05 22:37:00 BASE 10.23 15 12.66 3 -3.1 100 -3.1 0 0 955.8 NA 0.0000 9999 0 0 0 4590
2019/08/05 22:38:00 BASE 9.70 20 12.55 6 -3.1 100 -3.1 0 0 955.8 NA 0.0000 9999 0 0 0 4590
2019/08/05 22:39:00 BASE 9.83 20 12.55 6 -3.1 100 -3.1 0 0 955.8 NA 0.0000 9999 0 0 0 3710
2019/08/05 22:40:00 BASE 10.63 16 12.55 6 -3.1 100 -3.1 0 0 955.8 NA 0.0000 9999 0 0 0 3610
2019/08/05 22:41:00 BASE 10.56 11 12.35 9 -3.2 100 -3.2 0 0 955.8 NA 0.0000 9999 0 0 0 3410
2019/08/05 22:42:00 BASE 8.97 7 12.35 9 -3.2 100 -3.2 0 0 955.8 NA 0.0000 9999 0 0 0 3250
2019/08/05 22:43:00 BASE 7.22 3 12.35 9 -3.2 100 -3.2 0 0 955.8 NA 0.0000 9999 0 0 0 3020
2019/08/05 22:44:00 BASE 6.71 10 12.14 10 -3.2 100 -3.2 0 0 955.8 NA 0.0000 9999 0 0 0 3020
2019/08/05 22:45:00 BASE 6.87 14 11.88 18 -3.1 100 -3.1 0 0 955.8 NA 0.0000 9999 0 0 0 2990
2019/08/05 22:46:00 BASE 6.92 15 11.88 18 -3.1 100 -3.1 0 0 955.9 NA 0.0000 9999 0 0 0 3180
2019/08/05 22:47:00 BASE 6.70 29 11.88 18 -3.1 100 -3.1 0 0 955.9 NA 0.0000 UP 9999 0 0 0 3220
2019/08/05 22:48:00 BASE 6.93 41 11.88 18 -3.1 100 -3.1 0 0 955.9 NA 0.0000 UP 8000 0 0 0 3380
2019/08/05 22:49:00 BASE 6.80 41 11.88 18 -3.1 100 -3.1 0 0 955.9 NA 0.0000 UP 6000 0 0 0 3380
2019/08/05 22:50:00 BASE 5.94 35 11.57 24 -3.2 100 -3.2 0 0 955.9 NA 0.0000 UP 6000 0 0 0 3350
2019/08/05 22:51:00 BASE 5.45 30 9.26 46 -3.2 100 -3.2 0 0 955.9 NA 0.0000 UP BR 9000 0 0 0 3310
2019/08/05 22:52:00 BASE 6.21 26 9.26 46 -3.3 100 -3.3 0 0 955.9 NA 0.0000 -SN BR 9999 0 0 0 3380
2019/08/05 22:53:00 BASE 6.52 19 9.26 46 -3.3 100 -3.3 0 0 955.9 NA 0.0000 -SN BR 9999 0 0 0 3280
2019/08/05 22:54:00 BASE 5.79 15 9.26 46 -3.3 100 -3.3 0 0 955.9 NA 0.0000 -SN BR 9999 0 0 0 3380
2019/08/05 22:55:00 BASE 5.57 18 9.26 46 -3.3 100 -3.3 0 0 955.9 NA 0.0000 -SN BR 9999 0 0 0 3250
2019/08/05 22:56:00 BASE 4.37 29 9.26 46 -3.3 100 -3.3 0 0 955.9 NA 0.0000 -SN BR 9999 0 0 0 3350
2019/08/05 22:57:00 BASE 2.95 58 9.26 46 -3.3 100 -3.3 0 0 955.9 NA 0.0000 -SN BR 9999 1380 0 0 0
2019/08/05 22:58:00 BASE 3.31 55 7.97 24 -3.3 100 -3.3 0 0 955.9 NA 0.0000 -SN BR 9999 0 0 0 3310
2019/08/05 22:59:00 BASE 4.51 27 7.97 24 -3.3 100 -3.3 0 0 955.9 NA 0.0000 -SN 9999 0 0 0 3410
2019/08/05 23:00:00 BASE 4.90 20 7.97 24 -3.3 100 -3.3 0 0 955.9 NA 0.0000 -SN 9999 0 0 0 3640
2019/08/05 23:01:00 BASE 5.75 25 8.54 50 -3.3 100 -3.3 0 0 955.8 NA 0.0000 -SN 9999 0 0 0 3870
2019/08/05 23:02:00 BASE 6.36 48 9.31 54 -3.3 100 -3.3 0 0 955.8 NA 0.0000 -SN 9999 0 0 0 3870
2019/08/05 23:03:00 BASE 4.29 76 9.31 54 -3.3 100 -3.3 0 0 955.9 NA 0.0000 -SN 9999 0 0 0 3580
2019/08/05 23:04:00 BASE 3.27 64 9.31 54 -3.3 100 -3.3 0 0 955.9 NA 0.0000 -SN 9999 0 0 0 3310
2019/08/05 23:05:00 BASE 3.48 31 9.31 54 -3.3 100 -3.3 0 0 955.8 NA 0.0000 -SN 9999 0 0 0 3480
2019/08/05 23:06:00 BASE 3.73 22 9.31 54 -3.3 100 -3.3 0 0 955.8 NA 0.0000 -SN 9999 0 0 0 3610
2019/08/05 23:07:00 BASE 4.96 23 9.31 54 -3.3 100 -3.3 0 0 955.8 NA 0.0000 -SN 9999 0 0 0 3610
2019/08/05 23:08:00 BASE 5.83 16 9.31 54 -3.3 100 -3.3 0 0 955.8 NA 0.0000 -SN 9999 0 0 0 3250
2019/08/05 23:09:00 BASE 6.16 1 9.31 54 -3.3 100 -3.3 0 0 955.8 NA 0.0000 -SN 9999 0 0 0 3450
2019/08/05 23:10:00 BASE 5.70 353 9.31 54 -3.3 100 -3.3 0 0 955.8 NA 0.0000 -SN 9999 0 0 0 3610
2019/08/05 23:11:00 BASE 4.69 352 9.31 54 -3.3 100 -3.3 0 0 955.8 NA 0.0000 -SN 9999 0 0 0 3450
2019/08/05 23:12:00 BASE 4.29 359 6.74 360 -3.3 100 -3.3 0 0 955.8 NA 0.0000 -SN 9999 0 0 0 3610
2019/08/05 23:13:00 BASE 4.64 6 6.74 360 -3.2 100 -3.3 0 0 955.8 NA 0.0000 -SN 9999 0 0 0 3840
2019/08/05 23:14:00 BASE 4.91 360 6.74 360 -3.2 100 -3.3 0 0 955.8 NA 0.0000 -SN 9999 0 0 0 3670
2019/08/05 23:15:00 BASE 4.48 358 6.74 360 -3.2 99 -3.3 0 0 955.8 NA 0.0000 -SN 9999 0 0 0 3840
2019/08/05 23:16:00 BASE 3.83 356 6.74 360 -3.2 99 -3.4 0 0 955.8 NA 0.0000 -SN 9999 0 0 0 3710
2019/08/05 23:17:00 BASE 3.63 352 6.74 360 -3.2 98 -3.4 0 0 955.9 NA 0.0000 -SN 9999 0 0 0 3640
2019/08/05 23:18:00 BASE 3.63 351 6.74 360 -3.2 98 -3.5 0 0 955.9 NA 0.0000 -SN 9999 0 0 0 3670
2019/08/05 23:19:00 BASE 3.94 345 5.61 354 -3.2 98 -3.5 0 0 955.8 NA 0.0000 -SN 9999 0 0 0 3670
2019/08/05 23:20:00 BASE 4.47 337 5.56 8 -3.2 98 -3.6 0 0 955.8 NA 0.0000 -SN 9999 0 0 0 3610
2019/08/05 23:21:00 BASE 5.09 336 5.92 337 -3.3 97 -3.6 0 0 955.8 NA 0.0000 -SN 9999 0 0 0 3610
2019/08/05 23:22:00 BASE 4.49 331 5.92 337 -3.3 97 -3.6 0 0 955.9 NA 0.0000 -SN 9999 0 0 0 3640
2019/08/05 23:23:00 BASE 3.40 326 5.92 337 -3.3 97 -3.7 0 0 955.9 NA 0.0000 -SN 7000 790 0 0 0
2019/08/05 23:24:00 BASE 3.10 325 5.92 337 -3.3 97 -3.7 0 0 955.9 NA 0.0000 -SN 7000 0 0 0 3840
2019/08/05 23:25:00 BASE 3.01 322 5.92 337 -3.3 97 -3.8 0 0 955.8 NA 0.0000 -SN 7000 0 0 0 3810
2019/08/05 23:26:00 BASE 3.13 323 5.92 337 -3.3 96 -3.8 0 0 955.8 NA 0.0000 -SN BR 6000 1120 0 0 0
2019/08/05 23:27:00 BASE 3.02 324 5.92 337 -3.3 96 -3.8 0 0 955.8 NA 0.0000 -SN BR 9999 1710 0 0 0
2019/08/05 23:28:00 BASE 2.69 312 5.92 337 -3.3 96 -3.9 0 0 955.8 NA 0.0000 -SN BR 9999 390 0 0 0
2019/08/05 23:29:00 BASE 2.46 299 5.92 337 -3.3 96 -3.9 0 0 955.8 NA 0.0000 -SN BR 6000 360 0 0 0
2019/08/05 23:30:00 BASE 2.43 290 5.92 337 -3.4 96 -3.9 0 0 955.8 NA 0.0000 -SN BR 3700 330 0 0 0
2019/08/05 23:31:00 BASE 2.29 283 4.48 329 -3.4 96 -3.9 0 0 955.8 NA 0.0000 -SN BR 3300 300 0 0 0
2019/08/05 23:32:00 BASE 2.21 276 3.76 335 -3.4 96 -4.0 0 0 955.8 NA 0.0000 -SN BR 3900 0 0 0 2330
2019/08/05 23:33:00 BASE 2.61 260 3.76 335 -3.4 96 -4.0 0 0 955.8 NA 0.0000 -SN BR 4100 850 0 0 0
2019/08/05 23:34:00 BASE 2.97 265 3.55 333 -3.4 96 -4.0 0 0 955.8 NA 0.0000 -SN BR 3800 0 0 0 2430
2019/08/05 23:35:00 BASE 3.19 285 3.86 296 -3.4 96 -3.9 0 0 955.8 NA 0.0000 -SN BR 4000 260 0 0 0
2019/08/05 23:36:00 BASE 3.78 293 4.68 291 -3.5 97 -3.9 0 0 955.8 NA 0.0000 -SN BR 3500 0 0 0 2400
2019/08/05 23:37:00 BASE 4.00 296 4.68 291 -3.5 97 -3.8 0 0 955.8 NA 0.0000 -SN BR 3800 0 0 0 2400
2019/08/05 23:38:00 BASE 4.10 297 4.78 294 -3.5 98 -3.8 0 0 955.8 NA 0.0000 -SN BR 4600 260 0 0 0
2019/08/05 23:39:00 BASE 4.47 295 4.89 296 -3.6 99 -3.7 0 0 955.9 NA 0.0000 -SN BR 4800 260 0 0 0
2019/08/05 23:40:00 BASE 4.43 298 4.89 296 -3.6 99 -3.7 0 0 955.9 NA 0.0000 -SN BR 4000 230 0 0 0
2019/08/05 23:41:00 BASE 4.11 302 4.89 296 -3.6 100 -3.7 0 0 955.9 NA 0.0000 -SN BR 3600 0 0 0 2260
2019/08/05 23:42:00 BASE 3.57 304 4.89 296 -3.6 100 -3.7 0 0 955.9 NA 0.0000 -SN BR 3500 0 0 0 2130
2019/08/05 23:43:00 BASE 3.01 309 4.89 296 -3.6 100 -3.6 0 0 955.9 NA 0.0000 -SN BR 3900 230 0 0 0
2019/08/05 23:44:00 BASE 2.89 307 4.89 296 -3.7 100 -3.7 0 0 955.9 NA 0.0000 -SN BR 3900 230 0 0 0
2019/08/05 23:45:00 BASE 3.22 298 4.89 296 -3.7 100 -3.7 0 0 956.0 NA 0.0000 -SN BR 4100 0 0 0 1800
2019/08/05 23:46:00 BASE 4.22 296 5.40 294 -3.7 100 -3.7 0 0 955.9 NA 0.0000 -SN BR 4800 0 0 0 1800
2019/08/05 23:47:00 BASE 5.14 295 5.56 288 -3.7 100 -3.7 0 0 955.9 NA 0.0000 -SN BR 4100 0 0 0 1870
2019/08/05 23:48:00 BASE 5.56 292 6.28 290 -3.7 100 -3.7 0 0 955.9 NA 0.0000 -SN BR 3600 260 0 0 0
2019/08/05 23:49:00 BASE 5.69 291 6.28 288 -3.7 100 -3.7 0 0 955.9 NA 0.0000 -SN BR 3800 230 0 0 0
2019/08/05 23:50:00 BASE 5.81 293 6.48 284 -3.7 100 -3.7 0 0 955.9 NA 0.0000 -SN BR 4400 0 0 0 1440
2019/08/05 23:51:00 BASE 5.62 297 6.48 284 -3.7 100 -3.7 0 0 955.9 NA 0.0000 -SN BR 4400 0 0 0 1410
2019/08/05 23:52:00 BASE 5.45 298 6.48 284 -3.7 100 -3.7 0 0 955.9 NA 0.0000 -SN BR 4000 0 0 0 1410
2019/08/05 23:53:00 BASE 5.64 297 6.48 284 -3.7 100 -3.7 0 0 955.9 NA 0.0000 -SN BR 4100 0 0 0 1380
2019/08/05 23:54:00 BASE 5.43 298 6.48 284 -3.7 100 -3.7 0 0 955.9 NA 0.0000 -SN BR 3500 0 0 0 1310
2019/08/05 23:55:00 BASE 5.24 304 6.48 284 -3.7 100 -3.7 0 0 955.9 NA 0.0000 -SN BR 3700 0 0 0 1350
2019/08/05 23:56:00 BASE 5.28 306 6.48 284 -3.8 100 -3.8 0 0 955.9 NA 0.0000 -SN BR 5000 0 0 0 1610
2019/08/05 23:57:00 BASE 5.04 305 6.48 284 -3.8 100 -3.8 0 0 955.9 NA 0.0000 -SN BR 4700 0 0 0 1710
2019/08/05 23:58:00 BASE 4.33 304 6.48 284 -3.8 100 -3.8 0 0 955.9 NA 0.0000 -SN BR 3800 0 0 0 1670
2019/08/05 23:59:00 BASE 3.57 304 6.48 284 -3.8 100 -3.8 0 0 955.9 NA 0.0000 -SN BR 3800 0 0 0 1180